[[{"header":{"parameterUnit":"m.s-1","parameterCategory":1,"la1":31.0,"la2":29.5877,"lo1":-88.7671,"lo2":-86.6584,"dy":0.0162,"dx":0.0185,"nx":115,"ny":88,"refTime":"2023-02-24T06:00:00:Z","depth":0,"parameterNumber":2,"parameterNumberName":"U-component_of_WINDS"},"data":[0.0,0.0,0.0,0.0,0.0,0.0,0.0,0.0,0.0,0.0,0.0,0.0,0.0,0.0,0.0,0.0,0.0,0.0,0.0,0.0,0.0,0.0,0.0,0.0,0.0,0.0,0.0,0.0,0.0,0.0,0.0,0.0,0.0,0.0,0.0,0.0,0.0,0.0,0.0,0.0,0.0,0.0,0.0,0.0,0.0,0.0,0.0,0.0,0.0,0.0,0.0,0.0,0.0,0.0,0.0,0.0,0.0,0.0,0.0,0.0,0.0,0.0,0.0,0.0,0.0,0.0,0.0,0.0,0.0,0.0,0.0,0.0,0.0,0.0,0.0,0.0,0.0,0.0,0.0,0.0,0.0,0.0,0.0,0.0,0.0,0.0,0.0,0.0,0.0,0.0,0.0,0.0,0.0,0.0,0.0,0.0,0.0,0.0,0.0,0.0,0.0,0.0,0.0,0.0,0.0,0.0,0.0,0.0,0.0,0.0,0.0,0.0,0.0,0.0,0.0,0.0,0.0,0.0,0.0,0.0,0.0,0.0,0.0,0.0,0.0,0.0,0.0,0.0,0.0,0.0,0.0,0.0,0.0,0.0,0.0,0.0,0.0,0.0,0.0,0.0,0.0,0.0,0.0,0.0,0.0,0.0,0.0,0.0,0.0,0.0,0.0,0.0,0.0,0.0,0.0,0.0,0.0,0.0,0.0,0.0,0.0,0.0,0.0,0.0,0.0,0.0,0.0,0.0,0.0,0.0,0.0,0.0,0.0,0.0,0.0,0.0,0.0,0.0,0.0,0.0,0.0,0.0,0.0,0.0,0.0,0.0,0.0,0.0,0.0,0.0,0.0,0.0,0.0,0.0,0.0,0.0,0.0,0.0,0.0,0.0,0.0,0.0,0.0,0.0,0.0,0.0,0.0,0.0,0.0,0.0,0.0,0.0,0.0,0.0,0.0,0.0,0.0,0.0,0.0,0.0,0.0,0.0,0.0,0.0,0.0,0.0,0.0,0.0,0.0,0.0,0.0,0.0,0.0,0.0,0.0,0.0,0.0,0.0,0.0,0.0,0.0,0.0,0.0,0.0,0.0,0.0,0.0,0.0,0.0,0.0,0.0,0.0,0.0,0.0,0.0,0.0,0.0,0.0,0.0,0.0,0.0,0.0,0.0,0.0,0.0,0.0,0.0,0.0,0.0,0.0,0.0,0.0,0.0,0.0,0.0,0.0,0.0,0.0,0.0,0.0,0.0,0.0,0.0,0.0,0.0,0.0,0.0,0.0,0.0,0.0,0.0,0.0,0.0,0.0,0.0,0.0,0.0,0.0,0.0,0.0,0.0,0.0,0.0,0.0,0.0,0.0,0.0,0.0,0.0,0.0,0.0,0.0,0.0,0.0,0.0,0.0,0.0,0.0,0.0,0.0,0.0,0.0,0.0,0.0,0.0,0.0,0.0,0.0,0.0,0.0,0.0,0.0,0.0,0.0,0.0,0.0,0.0,0.0,0.0,0.0,0.0,0.0,0.0,0.0,0.0,0.0,0.0,0.0,0.0,0.0,0.0,0.0,0.0,0.0,0.0,0.0,0.0,0.0,0.0,0.0,0.0,0.0,0.0,0.0,0.0,0.0,0.0,0.0,0.0,0.0,0.0,0.0,0.0,0.0,0.0,0.0,0.0,0.0,0.0,0.0,0.0,0.0,0.0,0.0,0.0,0.0,0.0,0.0,0.0,0.0,0.0,0.0,0.0,0.0,0.0,0.0,0.0,0.0,0.0,0.0,0.0,0.0,0.0,0.0,0.0,0.0,0.0,0.0,0.0,0.0,0.0,0.0,0.0,0.0,0.0,0.0,0.0,0.0,0.0,0.0,0.0,0.0,0.0,0.0,0.0,0.0,0.0,0.0,0.0,0.0,0.0,0.0,0.0,0.0,0.0,0.0,0.0,0.0,0.0,0.0,0.0,0.0,0.0,0.0,0.0,0.0,0.0,0.0,0.0,0.0,0.0,0.0,0.0,0.0,0.0,0.0,0.0,0.0,0.0,0.0,0.0,0.0,0.0,0.0,0.0,0.0,0.0,0.0,0.0,0.0,0.0,0.0,0.0,0.0,0.0,0.0,0.0,0.0,0.0,0.0,0.0,0.0,0.0,0.0,0.0,0.0,0.0,0.0,0.0,0.0,0.0,0.0,0.0,0.0,0.0,0.0,0.0,0.0,0.0,0.0,0.0,0.0,0.0,0.0,0.0,0.0,0.0,0.0,0.0,0.0,0.0,0.0,0.0,0.0,0.0,0.0,0.0,0.0,0.0,0.0,0.0,0.0,0.0,0.0,0.0,0.0,0.0,0.0,0.0,0.0,0.0,0.0,0.0,0.0,0.0,0.0,0.0,0.0,0.0,0.0,0.0,0.0,0.0,0.0,0.0,0.0,0.0,0.0,0.0,0.0,0.0,0.0,0.0,0.0,0.0,0.0,0.0,0.0,0.0,0.0,0.0,0.0,0.0,0.0,0.0,0.0,0.0,0.0,0.0,0.0,0.0,0.0,0.0,0.0,0.0,0.0,0.0,0.0,0.0,0.0,0.0,0.0,0.0,0.0,0.0,0.0,0.0,0.0,0.0,0.0,0.0,0.0,0.0,0.0,0.0,0.0,0.0,0.0,0.0,0.0,0.0,0.0,0.0,0.0,0.0,0.0,0.0,0.0,0.0,0.0,0.0,0.0,0.0,0.0,0.0,0.0,0.0,0.0,0.0,0.0,0.0,0.0,0.0,0.0,0.0,0.0,0.0,0.0,0.0,0.0,0.0,0.0,0.0,0.0,0.0,0.0,0.0,0.0,0.0,0.0,0.0,0.0,0.0,0.0,0.0,0.0,0.0,0.0,0.0,0.0,0.0,0.0,0.0,0.0,0.0,0.0,0.0,0.0,0.0,0.0,0.0,0.0,0.0,0.0,0.0,0.0,0.0,0.0,0.0,0.0,0.0,0.0,0.0,0.0,0.0,0.0,0.0,0.0,0.0,0.0,0.0,0.0,0.0,0.0,0.0,0.0,0.0,0.0,0.0,0.0,0.0,0.0,0.0,0.0,0.0,0.0,0.0,0.0,0.0,0.0,0.0,0.0,0.0,0.0,0.0,0.0,0.0,0.0,0.0,0.0,0.0,0.0,0.0,0.0,0.0,0.0,0.0,0.0,0.0,0.0,0.0,0.0,0.0,0.0,0.0,0.0,0.0,0.0,0.0,0.0,0.0,0.0,0.0,0.0,0.0,0.0,0.0,0.0,0.0,0.0,0.0,0.0,0.0,0.0,0.0,0.0,0.0,0.0,0.0,0.0,0.0,0.0,0.0,0.0,0.0,0.0,0.0,0.0,0.0,0.0,0.0,0.0,0.0,0.0,0.0,0.0,0.0,0.0,0.0,0.0,0.0,0.0,0.0,0.0,0.0,0.0,0.0,0.0,0.0,0.0,0.0,0.0,0.0,0.0,0.0,0.0,0.0,0.0,0.0,0.0,0.0,0.0,0.0,0.0,0.0,0.0,0.0,0.0,0.0,0.0,0.0,0.0,0.0,0.0,0.0,0.0,0.0,0.0,0.0,0.0,0.0,0.0,0.0,0.0,0.0,0.0,0.0,0.0,0.0,0.0,0.0,0.0,0.0,0.0,0.0,0.0,0.0,0.0,0.0,0.0,0.0,0.0,0.0,0.0,0.0,0.0,0.0,0.0,0.0,0.0,0.0,0.0,0.0,0.0,0.0,0.0,0.0,0.0,0.0,0.0,0.0,0.0,0.0,0.0,0.0,0.0,0.0,0.0,0.0,0.0,0.0,0.0,0.0,0.0,0.0,0.0,0.0,0.0,0.0,0.0,0.0,0.0,0.0,0.0,0.0,0.0,0.0,0.0,0.0,0.0,0.0,0.0,0.0,0.0,0.0,0.0,0.0,0.0,0.0,0.0,0.0,0.0,0.0,0.0,0.0,0.0,0.0,0.0,0.0,0.0,0.0,0.0,0.0,0.0,0.0,0.0,0.0,0.0,0.0,0.0,0.0,0.0,0.0,0.0,0.0,0.0,0.0,0.0,0.0,0.0,0.0,0.0,0.0,0.0,0.0,0.0,0.0,0.0,0.0,0.0,0.0,0.0,0.0,0.0,0.0,0.0,0.0,0.0,0.0,0.0,0.0,0.0,0.0,0.0,0.0,0.0,0.0,0.0,0.0,0.0,0.0,0.0,0.0,0.0,0.0,0.0,0.0,0.0,0.0,0.0,0.0,0.0,0.0,0.0,0.0,0.0,-2.9496,0.0,0.0,0.0,0.0,0.0,0.0,0.0,0.0,0.0,0.0,0.0,0.0,0.0,0.0,0.0,0.0,0.0,0.0,0.0,0.0,0.0,0.0,0.0,0.0,0.0,0.0,0.0,0.0,0.0,0.0,0.0,0.0,0.0,0.0,0.0,0.0,0.0,0.0,0.0,0.0,0.0,0.0,0.0,0.0,0.0,0.0,0.0,0.0,0.0,0.0,0.0,0.0,0.0,0.0,0.0,0.0,0.0,0.0,0.0,0.0,0.0,0.0,0.0,0.0,0.0,0.0,0.0,0.0,0.0,0.0,0.0,0.0,0.0,0.0,0.0,0.0,0.0,0.0,0.0,0.0,0.0,0.0,0.0,0.0,0.0,0.0,0.0,0.0,0.0,0.0,0.0,0.0,0.0,0.0,0.0,0.0,0.0,0.0,0.0,0.0,0.0,0.0,0.0,0.0,0.0,0.0,0.0,0.0,0.0,0.0,-2.9229,-2.9098,-2.9114,-2.9206,-2.9405,0.0,0.0,0.0,0.0,0.0,0.0,0.0,0.0,0.0,0.0,0.0,0.0,0.0,0.0,0.0,0.0,0.0,0.0,0.0,0.0,0.0,0.0,0.0,0.0,0.0,0.0,0.0,0.0,0.0,0.0,0.0,0.0,0.0,0.0,0.0,0.0,0.0,0.0,0.0,0.0,0.0,0.0,0.0,0.0,0.0,0.0,0.0,0.0,0.0,0.0,0.0,0.0,0.0,0.0,0.0,0.0,0.0,0.0,0.0,0.0,0.0,0.0,0.0,0.0,0.0,0.0,0.0,0.0,0.0,0.0,0.0,0.0,0.0,0.0,0.0,0.0,0.0,0.0,0.0,0.0,0.0,0.0,0.0,0.0,0.0,0.0,0.0,0.0,0.0,0.0,0.0,0.0,0.0,0.0,0.0,0.0,0.0,0.0,0.0,0.0,0.0,0.0,0.0,0.0,0.0,0.0,0.0,0.0,0.0,0.0,0.0,0.0,-2.9114,-2.9167,-2.9305,0.0,0.0,0.0,0.0,0.0,0.0,0.0,0.0,0.0,0.0,0.0,0.0,0.0,0.0,0.0,0.0,0.0,0.0,0.0,0.0,0.0,0.0,0.0,0.0,0.0,0.0,0.0,0.0,0.0,0.0,0.0,0.0,0.0,0.0,0.0,0.0,0.0,0.0,0.0,0.0,0.0,0.0,0.0,0.0,0.0,0.0,0.0,0.0,0.0,0.0,0.0,0.0,0.0,0.0,0.0,0.0,0.0,0.0,0.0,0.0,0.0,0.0,0.0,0.0,0.0,0.0,0.0,0.0,0.0,0.0,0.0,0.0,0.0,0.0,0.0,0.0,0.0,0.0,0.0,0.0,0.0,0.0,0.0,0.0,0.0,0.0,0.0,0.0,0.0,0.0,0.0,0.0,0.0,0.0,0.0,0.0,0.0,0.0,0.0,0.0,0.0,0.0,0.0,0.0,0.0,0.0,0.0,0.0,0.0,0.0,-2.9236,-2.9114,-2.9114,0.0,-2.9305,0.0,0.0,0.0,0.0,0.0,0.0,0.0,0.0,0.0,0.0,0.0,0.0,0.0,0.0,0.0,0.0,0.0,0.0,0.0,0.0,0.0,0.0,0.0,0.0,0.0,0.0,0.0,0.0,0.0,0.0,0.0,0.0,0.0,0.0,0.0,0.0,0.0,0.0,0.0,0.0,0.0,0.0,0.0,0.0,0.0,0.0,0.0,0.0,0.0,0.0,0.0,0.0,0.0,0.0,0.0,0.0,0.0,0.0,0.0,0.0,0.0,0.0,0.0,0.0,0.0,0.0,0.0,0.0,0.0,0.0,0.0,0.0,0.0,0.0,0.0,0.0,0.0,0.0,0.0,0.0,0.0,0.0,0.0,0.0,0.0,0.0,0.0,0.0,0.0,0.0,0.0,0.0,0.0,0.0,0.0,0.0,0.0,0.0,0.0,0.0,0.0,0.0,0.0,0.0,0.0,0.0,0.0,0.0,0.0,0.0,-2.9144,-2.9114,-2.9114,-2.9121,0.0,0.0,0.0,0.0,0.0,0.0,0.0,0.0,0.0,0.0,0.0,0.0,0.0,0.0,0.0,0.0,0.0,0.0,0.0,0.0,0.0,0.0,0.0,0.0,0.0,0.0,0.0,0.0,0.0,0.0,0.0,0.0,0.0,0.0,0.0,0.0,0.0,0.0,0.0,0.0,0.0,0.0,0.0,0.0,0.0,0.0,0.0,0.0,0.0,0.0,0.0,0.0,0.0,0.0,0.0,0.0,0.0,0.0,0.0,0.0,0.0,0.0,0.0,0.0,0.0,0.0,0.0,0.0,0.0,0.0,0.0,0.0,0.0,0.0,0.0,0.0,0.0,0.0,0.0,0.0,0.0,0.0,0.0,0.0,0.0,0.0,0.0,0.0,0.0,0.0,0.0,0.0,0.0,0.0,0.0,0.0,0.0,0.0,0.0,0.0,0.0,0.0,0.0,0.0,0.0,0.0,0.0,0.0,0.0,0.0,-2.9052,-2.9029,-2.9021,-2.9021,-2.9037,-2.9021,0.0,0.0,0.0,0.0,0.0,0.0,0.0,0.0,0.0,0.0,0.0,0.0,0.0,0.0,0.0,0.0,0.0,0.0,0.0,0.0,0.0,0.0,0.0,0.0,0.0,0.0,0.0,0.0,0.0,0.0,0.0,0.0,0.0,0.0,0.0,0.0,0.0,0.0,0.0,0.0,0.0,0.0,0.0,0.0,0.0,0.0,0.0,0.0,0.0,0.0,0.0,0.0,0.0,0.0,0.0,0.0,0.0,0.0,0.0,0.0,0.0,0.0,0.0,0.0,0.0,0.0,0.0,0.0,0.0,0.0,0.0,0.0,0.0,0.0,0.0,0.0,0.0,0.0,0.0,0.0,0.0,0.0,0.0,0.0,0.0,0.0,0.0,0.0,0.0,0.0,0.0,0.0,0.0,0.0,0.0,0.0,0.0,0.0,0.0,0.0,0.0,0.0,0.0,0.0,0.0,0.0,0.0,0.0,-2.9075,-2.8982,-2.8889,-2.8818,-2.8818,-2.8818,0.0,0.0,0.0,0.0,0.0,0.0,0.0,0.0,0.0,0.0,0.0,0.0,0.0,0.0,0.0,0.0,0.0,0.0,0.0,0.0,0.0,0.0,0.0,0.0,0.0,0.0,0.0,0.0,0.0,0.0,0.0,0.0,0.0,0.0,0.0,0.0,0.0,0.0,0.0,0.0,0.0,0.0,0.0,0.0,0.0,0.0,0.0,0.0,0.0,0.0,0.0,0.0,0.0,0.0,0.0,0.0,0.0,0.0,0.0,0.0,0.0,0.0,0.0,0.0,0.0,0.0,0.0,0.0,0.0,0.0,0.0,0.0,0.0,0.0,0.0,0.0,0.0,0.0,0.0,0.0,0.0,0.0,0.0,0.0,0.0,0.0,0.0,0.0,0.0,0.0,0.0,0.0,0.0,0.0,0.0,0.0,0.0,0.0,0.0,0.0,0.0,0.0,0.0,0.0,0.0,0.0,0.0,0.0,0.0,-2.9114,-2.9052,-2.9006,-2.8998,-2.8928,-2.8834,0.0,0.0,0.0,0.0,0.0,0.0,0.0,0.0,0.0,0.0,0.0,0.0,0.0,0.0,0.0,0.0,0.0,0.0,0.0,0.0,0.0,0.0,0.0,0.0,0.0,0.0,0.0,0.0,0.0,0.0,0.0,0.0,0.0,0.0,0.0,0.0,0.0,0.0,0.0,0.0,0.0,0.0,0.0,0.0,0.0,0.0,0.0,0.0,0.0,0.0,0.0,0.0,0.0,0.0,0.0,0.0,0.0,0.0,0.0,0.0,0.0,0.0,0.0,0.0,0.0,0.0,0.0,0.0,0.0,0.0,0.0,0.0,0.0,0.0,0.0,0.0,0.0,0.0,0.0,0.0,0.0,0.0,0.0,0.0,0.0,0.0,0.0,0.0,0.0,0.0,0.0,0.0,0.0,0.0,0.0,0.0,0.0,0.0,0.0,0.0,0.0,0.0,0.0,0.0,0.0,0.0,0.0,0.0,0.0,-2.9052,0.0,-2.9029,0.0,-2.8928,-2.8834,0.0,0.0,0.0,0.0,0.0,0.0,0.0,0.0,0.0,0.0,0.0,0.0,0.0,0.0,0.0,0.0,0.0,0.0,0.0,0.0,0.0,0.0,0.0,0.0,0.0,0.0,0.0,0.0,0.0,0.0,0.0,0.0,0.0,0.0,0.0,0.0,0.0,0.0,0.0,0.0,0.0,0.0,0.0,0.0,0.0,0.0,0.0,0.0,0.0,0.0,0.0,0.0,0.0,0.0,0.0,0.0,0.0,0.0,0.0,0.0,0.0,0.0,0.0,0.0,0.0,0.0,0.0,0.0,0.0,0.0,0.0,0.0,0.0,0.0,0.0,0.0,0.0,0.0,0.0,0.0,0.0,0.0,0.0,0.0,0.0,0.0,0.0,0.0,0.0,0.0,0.0,0.0,0.0,0.0,0.0,0.0,0.0,0.0,0.0,0.0,0.0,0.0,0.0,0.0,0.0,0.0,0.0,0.0,-2.9052,-2.8904,-2.8904,-2.8889,-2.8818,-2.8818,-2.8732,0.0,0.0,0.0,0.0,0.0,0.0,0.0,0.0,0.0,0.0,0.0,0.0,0.0,0.0,0.0,0.0,0.0,0.0,0.0,0.0,0.0,0.0,0.0,0.0,0.0,0.0,0.0,0.0,0.0,0.0,0.0,0.0,0.0,0.0,0.0,0.0,0.0,0.0,0.0,0.0,0.0,0.0,0.0,0.0,0.0,0.0,0.0,0.0,0.0,0.0,0.0,0.0,0.0,0.0,0.0,0.0,0.0,0.0,0.0,0.0,0.0,0.0,0.0,0.0,0.0,0.0,0.0,0.0,0.0,0.0,0.0,0.0,0.0,0.0,0.0,0.0,0.0,0.0,0.0,0.0,0.0,0.0,0.0,0.0,0.0,0.0,0.0,0.0,0.0,0.0,0.0,0.0,0.0,0.0,0.0,0.0,0.0,0.0,0.0,0.0,0.0,0.0,0.0,0.0,0.0,0.0,0.0,0.0,0.0,-2.9052,-2.9052,-2.9029,-2.8998,-2.8912,-2.8818,0.0,0.0,0.0,0.0,0.0,0.0,0.0,0.0,0.0,0.0,0.0,0.0,0.0,0.0,0.0,0.0,0.0,0.0,0.0,0.0,0.0,0.0,0.0,0.0,0.0,0.0,0.0,0.0,0.0,0.0,0.0,0.0,0.0,0.0,0.0,0.0,0.0,0.0,0.0,0.0,0.0,0.0,0.0,0.0,0.0,0.0,0.0,0.0,0.0,0.0,0.0,0.0,0.0,0.0,0.0,0.0,0.0,0.0,0.0,0.0,0.0,0.0,0.0,0.0,0.0,0.0,0.0,0.0,0.0,0.0,0.0,0.0,0.0,0.0,0.0,0.0,0.0,0.0,0.0,0.0,0.0,0.0,0.0,0.0,0.0,0.0,0.0,0.0,0.0,0.0,0.0,0.0,0.0,0.0,0.0,0.0,0.0,0.0,0.0,0.0,0.0,0.0,0.0,0.0,0.0,0.0,0.0,0.0,0.0,-2.8858,-2.9006,-2.9052,-2.8959,-2.8967,-2.8928,-2.8794,0.0,0.0,0.0,0.0,0.0,0.0,0.0,0.0,0.0,0.0,0.0,0.0,0.0,0.0,0.0,0.0,0.0,0.0,0.0,0.0,0.0,0.0,0.0,0.0,0.0,0.0,0.0,0.0,0.0,0.0,0.0,0.0,0.0,0.0,0.0,0.0,0.0,0.0,0.0,0.0,0.0,0.0,0.0,0.0,0.0,0.0,0.0,0.0,0.0,0.0,0.0,0.0,0.0,0.0,0.0,0.0,0.0,0.0,0.0,0.0,0.0,0.0,0.0,0.0,0.0,0.0,0.0,0.0,0.0,0.0,0.0,0.0,0.0,0.0,0.0,0.0,0.0,0.0,0.0,0.0,0.0,0.0,0.0,0.0,0.0,0.0,0.0,0.0,0.0,0.0,0.0,0.0,0.0,0.0,0.0,0.0,0.0,0.0,0.0,0.0,0.0,0.0,0.0,0.0,0.0,0.0,0.0,0.0,-2.8411,-2.8834,-2.8959,-2.87,-2.8936,-2.8975,0.0,0.0,0.0,0.0,0.0,0.0,0.0,0.0,0.0,0.0,0.0,0.0,0.0,0.0,0.0,0.0,0.0,0.0,0.0,0.0,0.0,0.0,0.0,0.0,0.0,0.0,0.0,0.0,0.0,0.0,0.0,0.0,0.0,0.0,0.0,0.0,0.0,0.0,0.0,0.0,0.0,0.0,0.0,0.0,0.0,0.0,0.0,0.0,0.0,0.0,0.0,0.0,0.0,0.0,0.0,0.0,0.0,0.0,0.0,0.0,0.0,0.0,0.0,0.0,0.0,0.0,0.0,0.0,0.0,0.0,0.0,0.0,0.0,0.0,0.0,0.0,0.0,0.0,0.0,0.0,0.0,0.0,0.0,0.0,0.0,0.0,0.0,0.0,0.0,0.0,0.0,0.0,0.0,0.0,0.0,0.0,0.0,0.0,0.0,0.0,0.0,0.0,0.0,0.0,0.0,0.0,0.0,0.0,0.0,-2.842,-2.8668,-2.87,-2.8493,-2.8645,-2.866,0.0,0.0,0.0,0.0,0.0,0.0,0.0,0.0,0.0,0.0,0.0,0.0,0.0,0.0,0.0,0.0,0.0,0.0,0.0,0.0,0.0,0.0,0.0,0.0,0.0,0.0,0.0,0.0,0.0,0.0,0.0,0.0,0.0,0.0,0.0,0.0,0.0,0.0,0.0,0.0,0.0,0.0,0.0,0.0,0.0,0.0,0.0,0.0,0.0,0.0,0.0,0.0,0.0,0.0,0.0,0.0,0.0,0.0,0.0,0.0,0.0,0.0,0.0,0.0,0.0,0.0,0.0,0.0,0.0,0.0,0.0,0.0,0.0,0.0,0.0,0.0,0.0,0.0,0.0,0.0,0.0,0.0,0.0,0.0,0.0,0.0,0.0,0.0,0.0,0.0,0.0,0.0,0.0,0.0,0.0,0.0,0.0,0.0,0.0,0.0,0.0,0.0,0.0,0.0,0.0,0.0,0.0,0.0,-2.8684,-2.8241,-2.8332,-2.8317,-2.8152,-2.8429,-2.8541,0.0,0.0,0.0,0.0,0.0,0.0,0.0,0.0,0.0,0.0,0.0,0.0,0.0,0.0,0.0,0.0,0.0,0.0,0.0,0.0,0.0,0.0,0.0,0.0,0.0,0.0,0.0,0.0,0.0,0.0,0.0,0.0,0.0,0.0,0.0,0.0,0.0,0.0,0.0,0.0,0.0,0.0,0.0,0.0,0.0,0.0,0.0,0.0,0.0,0.0,0.0,0.0,0.0,0.0,0.0,0.0,0.0,0.0,0.0,0.0,0.0,0.0,0.0,0.0,0.0,0.0,0.0,0.0,0.0,0.0,0.0,0.0,0.0,0.0,0.0,0.0,0.0,0.0,0.0,0.0,0.0,0.0,0.0,0.0,0.0,0.0,0.0,0.0,0.0,0.0,0.0,0.0,0.0,0.0,0.0,0.0,0.0,0.0,0.0,0.0,0.0,0.0,0.0,0.0,0.0,0.0,0.0,0.0,-2.8444,-2.8069,-2.8029,-2.7955,-2.7815,-2.8284,-2.8493,0.0,0.0,0.0,0.0,0.0,0.0,0.0,0.0,0.0,0.0,0.0,0.0,0.0,0.0,0.0,0.0,0.0,0.0,0.0,0.0,0.0,0.0,0.0,0.0,0.0,0.0,0.0,0.0,0.0,0.0,0.0,0.0,0.0,0.0,0.0,0.0,0.0,0.0,0.0,0.0,0.0,0.0,0.0,0.0,0.0,0.0,0.0,0.0,0.0,0.0,0.0,0.0,0.0,0.0,0.0,0.0,0.0,0.0,0.0,0.0,0.0,0.0,0.0,0.0,0.0,0.0,0.0,0.0,0.0,0.0,0.0,0.0,0.0,0.0,0.0,0.0,0.0,0.0,0.0,0.0,0.0,0.0,0.0,0.0,0.0,0.0,0.0,0.0,0.0,0.0,0.0,0.0,0.0,0.0,0.0,0.0,0.0,0.0,0.0,0.0,0.0,0.0,0.0,0.0,0.0,0.0,0.0,0.0,-2.8604,-2.8323,-2.8339,-2.8152,-2.7815,-2.8029,-2.8103,0.0,0.0,0.0,0.0,0.0,0.0,0.0,0.0,0.0,0.0,0.0,0.0,0.0,0.0,0.0,0.0,0.0,0.0,0.0,0.0,0.0,0.0,0.0,0.0,0.0,0.0,0.0,0.0,0.0,0.0,0.0,0.0,0.0,0.0,0.0,0.0,0.0,0.0,0.0,0.0,0.0,0.0,0.0,0.0,0.0,0.0,0.0,0.0,-2.4421,0.0,0.0,0.0,0.0,0.0,0.0,0.0,0.0,0.0,0.0,0.0,0.0,0.0,0.0,0.0,0.0,0.0,0.0,0.0,0.0,0.0,0.0,0.0,0.0,0.0,0.0,0.0,0.0,0.0,0.0,0.0,0.0,0.0,0.0,0.0,0.0,0.0,0.0,0.0,0.0,0.0,0.0,0.0,0.0,0.0,0.0,0.0,0.0,0.0,0.0,0.0,0.0,0.0,0.0,0.0,0.0,0.0,0.0,0.0,-2.8589,-2.8411,-2.8411,-2.8241,-2.793,-2.7955,-2.7955,0.0,0.0,0.0,0.0,0.0,0.0,0.0,0.0,0.0,0.0,0.0,0.0,0.0,0.0,0.0,0.0,0.0,0.0,0.0,0.0,0.0,0.0,0.0,0.0,0.0,0.0,0.0,0.0,0.0,0.0,0.0,0.0,0.0,0.0,0.0,0.0,0.0,0.0,0.0,0.0,0.0,0.0,0.0,0.0,0.0,0.0,0.0,0.0,0.0,0.0,0.0,0.0,0.0,0.0,0.0,0.0,0.0,0.0,0.0,0.0,0.0,0.0,0.0,0.0,0.0,0.0,0.0,0.0,0.0,0.0,0.0,0.0,0.0,0.0,0.0,0.0,0.0,0.0,0.0,0.0,0.0,0.0,0.0,0.0,0.0,0.0,0.0,0.0,0.0,0.0,0.0,0.0,0.0,0.0,0.0,0.0,0.0,0.0,0.0,0.0,0.0,0.0,0.0,0.0,0.0,0.0,0.0,-2.8493,-2.8493,-2.8372,-2.8372,-2.8226,-2.7995,-2.798,-2.793,-2.7815,0.0,0.0,0.0,0.0,0.0,0.0,0.0,0.0,0.0,0.0,0.0,0.0,0.0,0.0,0.0,0.0,0.0,0.0,0.0,0.0,0.0,0.0,0.0,0.0,0.0,0.0,0.0,0.0,0.0,0.0,0.0,0.0,0.0,0.0,0.0,0.0,0.0,0.0,-2.5425,-2.5159,0.0,0.0,0.0,0.0,0.0,0.0,0.0,0.0,-2.3907,0.0,0.0,0.0,0.0,0.0,0.0,0.0,0.0,0.0,0.0,0.0,0.0,0.0,0.0,0.0,0.0,0.0,0.0,0.0,0.0,0.0,0.0,0.0,0.0,0.0,0.0,0.0,0.0,0.0,0.0,0.0,0.0,0.0,0.0,0.0,0.0,0.0,0.0,0.0,0.0,0.0,0.0,0.0,0.0,0.0,0.0,0.0,0.0,0.0,0.0,0.0,0.0,0.0,0.0,0.0,0.0,-2.8411,-2.8308,-2.8259,-2.8235,-2.821,-2.8113,-2.784,-2.7855,-2.7815,-2.7815,0.0,0.0,0.0,0.0,0.0,0.0,0.0,0.0,0.0,0.0,0.0,0.0,0.0,0.0,0.0,0.0,0.0,0.0,0.0,0.0,0.0,0.0,0.0,0.0,0.0,0.0,0.0,0.0,0.0,0.0,0.0,0.0,0.0,0.0,0.0,0.0,0.0,0.0,0.0,-2.492,-2.4763,0.0,0.0,0.0,0.0,0.0,0.0,0.0,0.0,-2.345,0.0,0.0,0.0,0.0,0.0,0.0,0.0,0.0,0.0,0.0,0.0,0.0,0.0,0.0,0.0,0.0,0.0,0.0,0.0,0.0,0.0,0.0,0.0,0.0,0.0,0.0,0.0,0.0,0.0,0.0,0.0,0.0,0.0,0.0,0.0,0.0,0.0,0.0,0.0,0.0,0.0,0.0,0.0,0.0,0.0,0.0,0.0,0.0,0.0,0.0,0.0,0.0,0.0,0.0,0.0,-2.8217,-2.825,-2.8299,-2.8323,-2.8299,-2.8226,-2.8014,-2.7955,-2.794,0.0,0.0,0.0,0.0,0.0,0.0,0.0,0.0,0.0,0.0,0.0,0.0,0.0,0.0,0.0,0.0,0.0,0.0,0.0,0.0,0.0,0.0,0.0,0.0,0.0,0.0,0.0,0.0,0.0,0.0,0.0,0.0,0.0,0.0,0.0,0.0,0.0,0.0,0.0,0.0,-2.4664,-2.4591,-2.4287,0.0,0.0,0.0,0.0,0.0,0.0,-2.333,-2.3313,0.0,0.0,0.0,0.0,0.0,0.0,0.0,0.0,0.0,0.0,0.0,0.0,0.0,0.0,0.0,0.0,0.0,0.0,0.0,0.0,0.0,0.0,0.0,0.0,0.0,0.0,0.0,0.0,0.0,0.0,0.0,0.0,0.0,0.0,0.0,0.0,0.0,0.0,0.0,0.0,0.0,0.0,0.0,0.0,0.0,0.0,0.0,0.0,0.0,0.0,0.0,0.0,0.0,0.0,0.0,-2.8128,-2.829,-2.8348,-2.8372,-2.8348,-2.8299,-2.8162,-2.8014,-2.8029,0.0,0.0,0.0,0.0,0.0,0.0,0.0,0.0,0.0,0.0,0.0,0.0,0.0,0.0,0.0,0.0,0.0,0.0,0.0,0.0,0.0,0.0,0.0,0.0,0.0,0.0,0.0,0.0,0.0,0.0,0.0,0.0,0.0,0.0,0.0,0.0,0.0,0.0,0.0,0.0,0.0,-2.439,-2.3995,-2.4128,0.0,0.0,0.0,0.0,-2.306,-2.312,0.0,0.0,0.0,0.0,0.0,0.0,0.0,0.0,0.0,0.0,0.0,0.0,0.0,0.0,0.0,0.0,0.0,0.0,0.0,0.0,0.0,0.0,0.0,0.0,0.0,0.0,0.0,0.0,0.0,0.0,0.0,0.0,0.0,0.0,0.0,0.0,0.0,0.0,0.0,0.0,0.0,0.0,0.0,0.0,0.0,0.0,0.0,0.0,0.0,0.0,0.0,0.0,0.0,0.0,0.0,0.0,-2.8501,-2.8332,-2.8235,-2.8235,-2.8235,-2.8177,-2.8029,-2.789,-2.789,0.0,0.0,0.0,0.0,0.0,0.0,0.0,0.0,0.0,0.0,0.0,0.0,0.0,0.0,0.0,0.0,0.0,0.0,0.0,0.0,0.0,0.0,0.0,0.0,0.0,0.0,0.0,0.0,0.0,0.0,0.0,0.0,0.0,0.0,0.0,0.0,0.0,0.0,0.0,0.0,0.0,-2.4276,-2.4083,-2.4112,-2.4011,0.0,0.0,0.0,-2.2812,-2.2616,0.0,0.0,0.0,0.0,0.0,0.0,0.0,0.0,0.0,0.0,0.0,0.0,0.0,0.0,0.0,0.0,0.0,0.0,0.0,0.0,0.0,0.0,0.0,0.0,0.0,0.0,0.0,0.0,0.0,0.0,0.0,0.0,0.0,0.0,0.0,0.0,0.0,0.0,0.0,0.0,0.0,0.0,0.0,0.0,0.0,0.0,0.0,0.0,0.0,0.0,0.0,0.0,0.0,0.0,0.0,-2.832,-2.891,-2.8916,-2.9051,-2.9429,-2.9066,-2.8866,-2.8782,-2.8242,-2.793,0.0,0.0,0.0,0.0,0.0,0.0,0.0,0.0,0.0,0.0,0.0,0.0,0.0,0.0,0.0,0.0,0.0,0.0,0.0,0.0,0.0,0.0,0.0,0.0,0.0,0.0,0.0,0.0,0.0,0.0,0.0,0.0,0.0,0.0,0.0,0.0,0.0,0.0,0.0,0.0,0.0,0.0,-2.4125,-2.3923,0.0,0.0,0.0,-2.3312,-2.3443,0.0,0.0,0.0,0.0,0.0,0.0,0.0,0.0,0.0,0.0,0.0,0.0,0.0,0.0,0.0,0.0,0.0,0.0,0.0,0.0,0.0,0.0,0.0,0.0,0.0,0.0,0.0,0.0,0.0,0.0,0.0,0.0,0.0,0.0,0.0,0.0,0.0,0.0,0.0,0.0,0.0,0.0,0.0,0.0,0.0,0.0,0.0,0.0,0.0,0.0,0.0,0.0,0.0,0.0,0.0,0.0,0.0,-2.9475,-2.9607,-2.9894,-3.0356,-2.991,-2.9673,-2.9633,-2.894,0.0,0.0,0.0,0.0,0.0,0.0,0.0,0.0,0.0,0.0,0.0,0.0,0.0,0.0,0.0,0.0,0.0,0.0,0.0,0.0,0.0,0.0,0.0,0.0,0.0,0.0,0.0,-2.5061,0.0,0.0,0.0,0.0,0.0,0.0,0.0,0.0,0.0,0.0,0.0,0.0,0.0,0.0,-2.4174,-2.4174,-2.4052,-2.404,0.0,0.0,-2.3764,-2.4051,-2.4079,-2.4046,0.0,0.0,0.0,0.0,0.0,0.0,0.0,0.0,0.0,0.0,0.0,0.0,0.0,0.0,0.0,0.0,0.0,0.0,0.0,0.0,0.0,0.0,0.0,0.0,0.0,0.0,0.0,0.0,0.0,0.0,0.0,0.0,0.0,0.0,0.0,0.0,0.0,0.0,0.0,0.0,0.0,0.0,0.0,0.0,0.0,0.0,0.0,0.0,0.0,0.0,0.0,0.0,0.0,0.0,0.0,-3.0325,-3.0325,-3.0356,-3.0402,-3.0356,-3.034,-3.034,-3.0149,-2.989,0.0,0.0,0.0,0.0,0.0,0.0,0.0,0.0,0.0,0.0,0.0,0.0,0.0,0.0,0.0,0.0,0.0,0.0,0.0,0.0,0.0,0.0,0.0,0.0,0.0,0.0,0.0,0.0,0.0,0.0,0.0,0.0,0.0,0.0,0.0,0.0,0.0,0.0,0.0,0.0,0.0,-2.4379,-2.4379,-2.4683,-2.4855,0.0,0.0,-2.4402,-2.4288,-2.4267,-2.4235,-2.4025,0.0,0.0,0.0,0.0,0.0,0.0,0.0,0.0,0.0,0.0,0.0,0.0,0.0,0.0,0.0,0.0,0.0,0.0,0.0,0.0,0.0,0.0,0.0,0.0,0.0,0.0,0.0,0.0,0.0,0.0,0.0,0.0,0.0,0.0,0.0,0.0,0.0,0.0,0.0,0.0,0.0,0.0,0.0,0.0,0.0,0.0,0.0,0.0,0.0,0.0,0.0,0.0,0.0,-3.0534,-3.1012,-3.1012,-3.1213,-3.157,-3.1071,-3.0777,-3.0777,-3.0045,-2.9577,0.0,0.0,0.0,0.0,0.0,0.0,0.0,0.0,0.0,0.0,0.0,0.0,0.0,0.0,0.0,0.0,0.0,0.0,0.0,0.0,0.0,0.0,0.0,0.0,0.0,0.0,0.0,0.0,-2.4791,-2.4347,-2.4216,0.0,0.0,0.0,0.0,0.0,0.0,0.0,0.0,0.0,0.0,-2.4974,-2.4955,-2.4912,0.0,0.0,-2.5046,-2.4813,-2.4658,-2.4893,-2.491,-2.4391,-2.4597,0.0,0.0,0.0,0.0,0.0,0.0,0.0,0.0,0.0,0.0,0.0,0.0,0.0,0.0,0.0,0.0,0.0,0.0,0.0,0.0,0.0,0.0,0.0,0.0,0.0,0.0,0.0,0.0,0.0,0.0,0.0,0.0,0.0,0.0,0.0,0.0,0.0,0.0,0.0,0.0,0.0,0.0,0.0,0.0,0.0,0.0,0.0,0.0,0.0,0.0,0.0,0.0,-3.1163,-3.1636,-3.1554,-3.1729,-3.216,-3.1526,-3.1144,-3.1129,-3.0372,-2.9911,0.0,0.0,0.0,0.0,0.0,0.0,0.0,0.0,0.0,0.0,0.0,0.0,0.0,0.0,0.0,0.0,0.0,0.0,0.0,0.0,0.0,0.0,0.0,0.0,0.0,0.0,0.0,0.0,-2.4823,-2.4151,-2.3832,0.0,0.0,0.0,0.0,0.0,0.0,0.0,0.0,0.0,0.0,-2.5377,-2.528,-2.5204,-2.5257,-2.5622,-2.5447,-2.523,-2.5127,-2.5397,-2.5437,-2.5004,0.0,0.0,0.0,0.0,0.0,0.0,0.0,0.0,0.0,0.0,0.0,0.0,0.0,0.0,0.0,0.0,0.0,0.0,0.0,0.0,0.0,0.0,0.0,0.0,0.0,0.0,0.0,0.0,0.0,0.0,-3.2453,0.0,0.0,0.0,0.0,0.0,0.0,0.0,0.0,0.0,0.0,0.0,0.0,0.0,0.0,0.0,0.0,0.0,0.0,0.0,0.0,0.0,0.0,0.0,-3.216,-3.1864,-3.1709,-3.1739,-3.1566,-3.1478,-3.1463,-3.1435,-3.129,-3.094,0.0,0.0,0.0,0.0,0.0,0.0,0.0,0.0,0.0,0.0,0.0,0.0,0.0,0.0,0.0,0.0,0.0,0.0,0.0,0.0,0.0,0.0,0.0,0.0,0.0,0.0,-2.5527,-2.4719,-2.3938,0.0,0.0,0.0,0.0,0.0,0.0,0.0,0.0,0.0,0.0,-2.5358,-2.5532,-2.5331,-2.562,-2.5871,-2.5873,-2.5734,-2.5652,-2.5779,-2.5699,-2.5676,0.0,0.0,0.0,0.0,0.0,0.0,0.0,0.0,0.0,0.0,0.0,0.0,0.0,0.0,0.0,0.0,0.0,0.0,0.0,0.0,0.0,0.0,0.0,0.0,0.0,0.0,0.0,-3.2743,-3.28,0.0,0.0,0.0,0.0,0.0,0.0,0.0,0.0,0.0,0.0,0.0,-3.28,-3.28,0.0,0.0,0.0,0.0,0.0,0.0,0.0,0.0,0.0,0.0,0.0,0.0,-3.215,-3.2066,-3.1953,-3.1896,-3.1896,-3.1638,-3.1466,-3.1365,-3.1146,-3.0984,-3.0866,0.0,0.0,0.0,0.0,0.0,0.0,0.0,0.0,0.0,0.0,0.0,0.0,0.0,0.0,0.0,0.0,0.0,0.0,0.0,0.0,0.0,0.0,0.0,0.0,0.0,-2.6038,0.0,0.0,0.0,0.0,0.0,0.0,0.0,0.0,0.0,0.0,0.0,-2.5388,-2.5401,-2.5845,-2.6108,-2.5928,-2.6008,-2.6015,0.0,0.0,0.0,0.0,0.0,0.0,0.0,0.0,0.0,0.0,0.0,0.0,0.0,0.0,-2.3751,-2.3198,-2.315,-2.3161,-2.2927,0.0,0.0,0.0,0.0,0.0,0.0,0.0,0.0,0.0,0.0,0.0,0.0,0.0,0.0,0.0,0.0,-3.2718,0.0,0.0,0.0,0.0,0.0,0.0,0.0,0.0,-3.2566,-3.2621,-3.2468,-3.2468,-3.2468,0.0,-3.237,-3.2203,0.0,0.0,0.0,0.0,0.0,0.0,0.0,0.0,-3.2025,-3.1912,-3.1826,-3.1754,-3.1754,-3.1481,-3.1307,-3.1234,-3.0955,-3.0791,-3.0732,-3.0628,-3.0702,0.0,0.0,0.0,0.0,0.0,0.0,0.0,0.0,0.0,0.0,0.0,0.0,0.0,0.0,0.0,0.0,0.0,0.0,0.0,0.0,0.0,0.0,0.0,-2.6328,0.0,0.0,0.0,0.0,0.0,0.0,0.0,0.0,0.0,-2.498,-2.5534,-2.6001,-2.6001,-2.6226,-2.6327,-2.6131,0.0,0.0,0.0,0.0,0.0,0.0,0.0,-2.4921,-2.4693,-2.472,-2.4718,-2.4538,-2.4345,-2.408,-2.3666,0.0,0.0,-2.3298,-2.3261,-2.3235,-2.2964,-2.2964,-2.2852,-2.2478,-2.2365,-2.2262,0.0,0.0,0.0,0.0,0.0,0.0,0.0,0.0,-3.2951,-3.2897,0.0,-3.2413,0.0,0.0,0.0,0.0,0.0,0.0,0.0,0.0,-3.2401,-3.2441,-3.1722,-3.1722,-3.1536,-3.1204,-3.1131,-3.1058,-3.1087,-3.2033,0.0,0.0,0.0,0.0,0.0,0.0,-3.1756,-3.1727,-3.1438,-3.1292,-3.1278,-3.1161,-3.1073,-3.1058,-3.0866,-3.0702,-3.0582,-3.0538,-3.0552,-3.0568,-3.0264,0.0,0.0,0.0,0.0,0.0,0.0,0.0,0.0,0.0,0.0,0.0,0.0,0.0,0.0,0.0,0.0,0.0,0.0,0.0,0.0,-2.7214,0.0,0.0,0.0,0.0,0.0,0.0,0.0,0.0,0.0,0.0,-2.5166,-2.5995,-2.6692,-2.6679,0.0,0.0,0.0,0.0,-2.55,-2.5312,-2.5182,-2.5111,-2.5264,-2.4826,-2.4658,-2.5194,0.0,0.0,-2.449,-2.4309,-2.4007,-2.3641,-2.3714,-2.3824,-2.3593,-2.3457,-2.3224,-2.2852,-2.2665,-2.2327,-2.1949,-2.1949,-2.1911,-3.3176,0.0,0.0,0.0,0.0,-3.2978,-3.2951,-3.2951,-3.2924,-3.2812,-3.2672,-3.233,0.0,0.0,0.0,0.0,0.0,0.0,-3.168,-3.1291,-3.1566,-3.1608,-3.1492,-3.1551,-3.1508,-3.1422,-3.1364,-3.1234,-3.1014,-3.1306,-3.1566,-3.1752,0.0,0.0,0.0,0.0,-3.1146,-3.094,-3.0836,-3.0807,-3.0807,-3.0747,-3.0642,-3.0387,-3.019,-3.0021,-2.9867,-2.9882,-2.9882,-2.9882,-2.9789,0.0,0.0,0.0,0.0,0.0,0.0,0.0,0.0,0.0,0.0,0.0,0.0,0.0,0.0,0.0,0.0,0.0,0.0,0.0,-2.718,-2.718,-2.7116,0.0,0.0,0.0,0.0,0.0,0.0,0.0,0.0,0.0,-2.5547,-2.6101,-2.6499,0.0,0.0,-2.6097,-2.5735,-2.5382,-2.517,-2.5135,0.0,0.0,0.0,-2.4766,-2.467,-2.5076,-2.4586,-2.4116,-2.4091,-2.3677,-2.3298,-2.3187,-2.3224,-2.3224,-2.3224,-2.3482,-2.3677,-2.3556,-2.3409,-2.3198,-2.2927,-2.2665,-2.23,-3.2904,-3.2996,-3.2989,-3.2978,-3.2978,-3.2978,-3.2951,-3.2912,-3.2827,-3.2715,-3.2559,-3.2064,-3.1724,-3.1566,-3.1581,0.0,0.0,0.0,-3.1146,-3.0777,-3.1014,-3.1028,-3.0896,-3.0925,-3.0881,-3.0748,-3.0762,-3.0628,-3.0433,-3.0433,-3.0613,-3.094,0.0,0.0,-3.1102,-3.0911,-3.0762,-3.0598,-3.0612,-3.0612,-3.0612,-3.0507,-3.0357,-3.0099,-2.9901,-2.973,-2.9602,-2.9602,-2.9602,-2.9602,-2.9477,-2.9383,0.0,0.0,0.0,0.0,0.0,0.0,0.0,0.0,0.0,0.0,0.0,-2.8554,0.0,0.0,0.0,0.0,-2.7436,-2.7323,-2.7214,-2.7302,0.0,0.0,0.0,0.0,0.0,0.0,0.0,-2.6144,-2.6282,-2.6233,-2.5784,-2.6102,-2.6374,-2.6292,-2.6015,-2.5805,-2.5606,0.0,-2.4826,-2.4873,-2.4406,-2.4236,-2.4647,-2.4406,-2.4236,-2.4467,-2.4105,-2.3787,-2.3787,-2.3457,-2.3224,-2.315,-2.3113,-2.3113,-2.3038,-2.3298,-2.3482,-2.3335,-2.3224,-2.3038,-2.2777,-2.2505,-2.2252,-3.2662,-3.2811,-3.3029,-3.309,-3.3043,-3.3043,-3.2935,-3.2788,-3.259,-3.252,-3.2422,-3.161,-3.1379,-3.158,-3.1131,0.0,-3.0312,-3.0866,-3.0718,-3.008,-3.0628,-3.0598,-3.005,-3.005,-2.9896,-2.9602,-2.9602,-2.9602,-2.9602,-2.9602,-2.9772,-3.0064,-3.0371,-3.0598,-3.0748,-3.0583,-3.0507,-3.0538,-3.0522,-3.0507,-3.0507,-3.0326,-3.019,-3.0038,-2.9853,-2.9668,-2.954,-2.954,-2.9509,-2.9509,-2.9226,-2.9067,-2.9067,0.0,0.0,0.0,0.0,0.0,0.0,0.0,0.0,0.0,0.0,0.0,0.0,0.0,0.0,0.0,-2.7503,0.0,-2.7503,-2.7503,0.0,0.0,0.0,-2.7456,-2.7335,-2.7268,-2.7019,-2.6496,0.0,0.0,-2.5875,0.0,-2.6141,-2.6242,-2.5721,-2.5382,-2.5512,-2.4921,-2.4454,-2.4526,-2.4127,-2.3934,-2.42,-2.397,-2.374,-2.3787,-2.3593,-2.3556,-2.3556,-2.3482,-2.3409,-2.3187,-2.3176,-2.3113,-2.2927,-2.2879,-2.2777,-2.244,-2.2402,-2.2327,-2.2025,-2.1921,-2.1845,-3.4167,-3.4291,-3.3624,-3.3042,-3.2551,-3.2441,-3.2231,-3.1977,-3.1807,-3.1608,-3.1364,-3.094,-3.0807,-3.0822,-3.0462,-3.0264,-3.0158,-3.031,-3.0127,-2.9741,-2.9882,-2.9865,-2.9696,-2.971,-2.9665,-2.9602,-2.9602,-2.9602,-2.9602,-2.9602,-2.9634,-2.9741,-2.9789,-2.9974,-3.0249,-3.0083,-2.996,-2.9851,-2.9851,-2.982,-2.9851,-2.9789,-2.9682,-2.9557,-2.9369,-2.918,-2.8972,-2.8908,-2.8858,-2.8844,-2.8748,-2.8716,-2.8716,-2.8438,0.0,0.0,0.0,0.0,0.0,0.0,0.0,0.0,0.0,-2.798,-2.7669,0.0,-2.7503,0.0,-2.7503,-2.7503,-2.7503,-2.7503,0.0,0.0,-2.7503,-2.7503,-2.7469,-2.6952,-2.6633,-2.6645,-2.6129,-2.5664,-2.5276,-2.5276,-2.5194,-2.4969,-2.5276,-2.5407,-2.5028,-2.4454,-2.4164,-2.4345,-2.3787,-2.3446,-2.4043,-2.4127,-2.4055,-2.4043,-2.3677,-2.3383,-2.3372,-2.2964,-2.2639,-2.2451,-2.2365,-2.2338,-2.2149,-2.2101,-2.2073,-2.1987,-2.2176,-2.2365,-2.2262,-2.2035,-2.1807,-3.4074,-3.428,-3.3459,-3.2955,-3.2732,-3.2201,-3.1823,-3.158,-3.1466,-3.1292,-3.1087,-3.0687,-3.0372,-3.0221,-3.0005,-2.9865,-2.9865,-2.9865,-2.9772,-2.9602,-2.9602,-2.9602,-2.9602,-2.9602,-2.9602,-2.9602,-2.9602,-2.9602,-2.9602,-2.9602,-2.9602,-2.9602,-2.9602,-2.9696,-2.9865,-2.9744,-2.9682,-2.9602,-2.9602,-2.9602,-2.9602,-2.954,-2.9415,-2.9257,-2.9067,-2.8876,-2.8716,-2.8619,-2.8587,-2.8587,-2.8587,-2.8587,-2.8587,-2.8438,-2.8276,0.0,0.0,0.0,0.0,0.0,0.0,0.0,0.0,0.0,0.0,0.0,-2.7503,0.0,-2.7503,-2.7523,-2.7623,-2.7556,-2.7536,-2.7623,-2.7556,-2.7503,-2.7503,-2.7154,-2.6803,-2.6598,-2.6358,-2.5943,-2.5229,-2.5241,-2.5064,-2.4575,-2.4754,-2.4873,-2.4562,-2.4007,-2.3714,-2.3897,-2.3409,-2.3113,-2.3604,-2.3677,-2.3677,-2.3629,-2.3383,-2.3216,-2.3425,-2.3215,-2.2966,-2.3015,-2.2963,-2.2724,-2.2363,-2.2185,-2.2108,-2.2146,-2.2262,-2.2342,-2.218,-2.1959,-2.1807,-3.3553,-3.3925,-3.3171,-3.3034,-3.3253,-3.2237,-3.1659,-3.1437,-3.1278,-3.1205,-3.1102,-3.0538,-3.0099,-2.9822,-2.9713,-2.9665,-2.9665,-2.9634,-2.9634,-2.9634,-2.9602,-2.9602,-2.9602,-2.9602,-2.9602,-2.9602,-2.9602,-2.9602,-2.9602,-2.9602,-2.9602,-2.9602,-2.9602,-2.9602,-2.9602,-2.9602,-2.9602,-2.9602,-2.9602,-2.9602,-2.9602,-2.9477,-2.932,-2.9131,-2.894,-2.878,-2.8619,-2.8619,-2.8587,-2.8587,-2.8587,-2.8587,-2.8587,-2.8554,-2.8476,0.0,-2.83,0.0,0.0,0.0,0.0,0.0,0.0,0.0,0.0,-2.7556,-2.757,-2.7536,-2.757,-2.7656,-2.7822,-2.7656,-2.7636,-2.7822,-2.7689,-2.7603,-2.757,-2.7536,-2.7255,-2.6586,-2.6756,-2.6517,-2.5546,-2.5453,-2.5182,-2.4514,-2.4189,-2.4043,-2.4018,-2.3629,-2.3335,-2.3298,-2.3113,-2.3038,-2.3075,-2.3038,-2.3038,-2.3038,-2.3038,-2.3154,-2.3514,-2.3553,-2.3678,-2.3946,-2.3774,-2.3512,-2.2969,-2.2689,-2.2519,-2.2499,-2.2436,-2.2291,-2.2063,-2.2063,-2.1963,-3.51,-3.5439,-3.4256,-3.3847,-3.3929,-3.2807,-3.1879,-3.1087,-3.0836,-3.0582,-3.031,-3.0203,-3.0097,-3.005,-3.0019,-2.9988,-2.9974,-2.9837,-2.9747,-2.9747,-2.9665,-2.9602,-2.9602,-2.9602,-2.9602,-2.9602,-2.9602,-2.9602,-2.9602,-2.9602,-2.9602,-2.9602,-2.9602,-2.9602,-2.9602,0.0,0.0,0.0,-2.9602,-2.9602,-2.9602,-2.9571,-2.9477,-2.9352,-2.9162,0.0,-2.8748,-2.8651,-2.8587,-2.8587,-2.8587,0.0,0.0,0.0,0.0,0.0,0.0,0.0,0.0,0.0,0.0,0.0,-2.8046,-2.7967,-2.798,-2.798,-2.7914,-2.7789,-2.7901,-2.8013,-2.8046,-2.8,-2.8013,-2.8046,-2.8013,-2.8013,-2.798,-2.7703,-2.7423,-2.7323,-2.6837,-2.6333,-2.5767,-2.5146,-2.4563,-2.4116,-2.3556,-2.3261,-2.3261,-2.3261,-2.3298,-2.3261,-2.3113,-2.3001,-2.3001,-2.3001,-2.3001,-2.3001,-2.3001,-2.3045,-2.3165,-2.3187,-2.3253,-2.3539,-2.3515,-2.351,-2.3366,-2.3037,-2.2718,-2.253,-2.2211,-2.2025,-2.2315,-2.2656,-2.2811,-3.5067,0.0,-3.4371,-3.4044,0.0,-3.3143,-3.2418,-3.1849,-3.1618,-3.1447,-3.126,-3.1228,-3.1197,-3.1166,-3.1071,-3.104,-3.1025,-3.093,-3.0728,-3.0461,-3.0367,-3.0162,-2.9865,-2.9879,-2.9834,-2.9865,-2.9744,-2.9699,-2.9699,-2.9634,-2.9602,-2.9602,-2.9602,-2.9602,-2.9617,-2.9912,-2.988,-2.9602,-2.9602,-2.9602,-2.9602,-2.9602,-2.954,-2.9415,0.0,0.0,0.0,0.0,0.0,0.0,0.0,0.0,0.0,0.0,0.0,-2.843,-2.8392,-2.8341,-2.8341,-2.8341,-2.8373,-2.8341,-2.8341,-2.8276,-2.8112,-2.8112,-2.8046,-2.7967,-2.8046,-2.8131,-2.8197,-2.8145,-2.8145,-2.8197,-2.8131,-2.8112,-2.8079,-2.7914,-2.7736,-2.7523,-2.7175,-2.6722,-2.6092,-2.5476,-2.4778,-2.4141,-2.3604,-2.3224,-2.3038,-2.3075,-2.315,-2.315,-2.3075,-2.3001,-2.3001,-2.3001,-2.3001,-2.3001,-2.3001,-2.3099,-2.3329,-2.3362,-2.3487,-2.384,-2.3993,-2.3974,-2.3527,-2.3366,-2.3195,-2.2856,-2.2537,-2.2355,-2.2606,-2.2756,-2.2863,-3.4635,-3.4942,-3.4262,-3.4156,-3.4354,-3.3581,-3.3152,-3.2963,0.0,0.0,0.0,-3.2384,-3.2352,-3.232,-3.2145,-3.208,-3.208,-3.208,-3.1808,-3.132,-3.1274,-3.0971,-3.0454,-3.0454,-3.0423,-3.0378,-3.0225,-3.0117,-3.0086,-2.9989,-2.994,-2.994,-2.994,-2.994,-2.9968,-3.0413,-3.0445,-2.9954,-2.9813,-2.9771,-2.9771,-2.9659,-2.954,-2.9383,-2.9383,-2.932,-2.9099,-2.894,-2.8858,-2.8844,-2.8748,-2.8651,-2.8651,-2.8619,-2.8633,-2.8587,-2.8587,-2.8587,-2.8587,-2.8587,-2.8587,-2.8587,-2.8587,-2.8457,-2.8177,-2.8177,-2.8177,-2.8145,-2.8177,-2.8243,-2.8333,-2.8249,-2.8229,-2.832,-2.8262,-2.821,-2.8177,-2.8145,-2.7967,-2.7669,-2.7469,-2.7154,-2.6427,-2.5816,-2.5241,-2.4467,-2.3886,-2.3482,-2.3187,-2.3113,-2.3075,-2.3038,-2.3038,-2.3038,-2.3001,-2.3001,-2.3001,-2.3001,-2.3001,-2.3154,-2.3471,-2.3564,-2.3798,-2.4181,-2.4501,-2.4252,-2.3677,-2.3584,-2.3562,-2.3151,-2.2847,-2.267,-2.2715,-2.2608,-2.2654,-3.4769,-3.527,-3.4599,-3.4673,-3.52,-3.4501,-3.4186,-3.4084,-3.2991,-3.2481,-3.2481,-3.2481,-3.2449,-3.2449,-3.2449,-3.2449,-3.2417,-3.232,-3.2198,0.0,-3.1951,-3.1829,-3.1725,-3.1743,-3.1646,-3.147,-3.1438,-3.1401,-3.127,-3.1204,-3.1232,-3.1218,-3.1232,-3.1218,-3.1232,-3.1316,-3.1316,-3.1218,-3.0684,-3.0357,-3.0357,-2.9883,-2.954,-2.9383,-2.9397,-2.9289,-2.9099,-2.9067,-2.9067,-2.9067,-2.9035,-2.8972,-2.878,-2.8748,-2.8716,-2.8587,-2.8587,-2.8587,-2.8587,-2.8587,-2.8587,-2.8587,-2.8587,-2.8476,-2.83,-2.8425,-2.8444,-2.83,-2.8411,-2.8522,-2.8554,-2.8522,-2.8522,-2.8554,-2.8522,-2.8522,-2.849,-2.8276,-2.8112,-2.8013,-2.7456,-2.7087,-2.6769,-2.5861,-2.5123,-2.4767,-2.4093,-2.3556,-2.3482,-2.3372,-2.3187,-2.3065,-2.315,-2.3187,-2.3113,-2.3001,-2.3038,-2.3001,-2.3001,-2.3034,-2.3132,-2.3165,-2.3329,-2.3716,-2.3874,-2.3894,-2.3867,-2.3698,-2.336,-2.2946,-2.2538,-2.2325,-2.2483,-2.2488,-2.249,-3.5121,-3.535,-3.4887,-3.4854,-3.5103,-3.4601,-3.438,-3.4356,-3.3804,-3.3543,-3.3543,-3.3543,-3.351,-3.351,-3.3558,-3.3543,-3.351,-3.3477,-3.3256,-3.297,-3.2858,-3.2605,-3.2302,-3.2288,-3.2209,-3.2145,-3.2047,-3.1982,-3.1913,-3.1735,-3.1603,-3.1603,-3.1551,-3.1654,-3.1963,-3.1991,-3.2145,-3.2455,-3.1527,-3.105,-3.105,-3.0769,-3.0441,-3.0027,-3.0013,-2.9782,-2.9397,-2.9289,-2.9226,-2.9131,-2.8972,-2.8844,-2.8729,-2.8683,-2.8683,-2.8587,-2.8587,-2.8587,-2.8587,-2.8587,-2.8587,-2.8587,-2.8587,-2.8554,-2.8476,-2.8554,-2.8554,-2.8476,-2.8554,-2.8587,-2.8587,-2.8587,-2.8587,-2.8587,-2.8587,-2.8587,-2.8587,-2.8503,-2.8373,-2.8295,-2.7723,-2.7175,-2.6858,-2.6151,-2.5288,-2.4718,-2.3959,-2.3593,-2.3593,-2.3641,-2.3556,-2.3383,-2.3409,-2.3409,-2.3335,-2.3224,-2.3187,-2.3187,-2.3075,-2.3038,-2.3001,-2.3001,-2.3099,-2.3296,-2.3525,-2.3602,-2.359,-2.3568,-2.3306,-2.2857,-2.2507,-2.2313,-2.2297,-2.2195,-2.2294,-3.5464,-3.5512,-3.5085,-3.4854,-3.4769,-3.4654,-3.4534,-3.4414,-3.4467,-3.4481,-3.4414,-3.438,-3.438,-3.438,-3.438,-3.438,-3.438,-3.438,-3.4138,-3.375,-3.3707,-3.3412,-3.2959,-3.2901,-3.2916,-3.2836,-3.2739,-3.2688,-3.2622,-3.2345,-3.2179,-3.2098,-3.2027,-3.2193,-3.2595,-3.2623,-3.2848,-3.3192,-3.2398,-3.1836,-3.171,-3.1569,-3.1246,-3.0797,-3.0726,-3.0484,-3.0066,-2.9929,-2.9732,-2.9416,-2.9274,-2.9059,-2.8729,-2.8729,-2.8683,-2.8619,-2.8587,-2.8655,-2.879,-2.8926,-2.8994,-2.8994,-2.9007,-2.9007,-2.9007,-2.8994,-2.8926,-2.8845,-2.8967,-2.9034,-2.9062,-2.9034,-2.9007,-2.8994,-2.8994,-2.898,-2.8831,-2.8614,-2.8323,-2.8191,-2.7523,-2.679,-2.6449,-2.6094,-2.5419,-2.4454,-2.3934,-2.374,-2.3751,-2.3861,-2.3897,-2.3787,-2.3677,-2.3567,-2.3519,-2.3335,-2.3224,-2.3224,-2.3113,-2.3038,-2.3001,-2.3001,-2.3001,-2.3067,-2.3296,-2.3356,-2.3121,-2.3247,-2.321,-2.2746,-2.2461,-2.23,-2.2105,-2.1963,-2.2004,-3.5608,-3.5799,-3.5216,-3.475,-3.4534,-3.5055,-3.4971,-3.4501,-3.4735,-3.4668,-3.4448,-3.438,-3.4414,-3.438,-3.438,-3.438,-3.438,-3.438,-3.437,-3.4312,-3.4327,-3.4283,-3.4182,-3.4177,-3.4124,-3.3946,-3.3897,-3.3786,-3.3699,-3.3639,-3.3593,-3.3435,-3.3401,-3.3268,-3.3227,-3.3192,-3.3234,-3.3276,-3.3178,-3.289,-3.2328,-3.178,-3.1443,-3.1415,-3.1401,-3.1373,-3.1232,-3.1316,-3.1003,-3.0437,-3.0335,-2.9969,-2.921,-2.9049,-2.8922,-2.866,-2.8627,-2.8817,-2.9393,-2.9916,-3.0188,-3.0242,-3.0174,-3.0174,-3.0174,-3.0215,-2.9984,-2.9631,-2.9916,-3.0133,-3.0228,-3.0174,-3.012,-3.0066,-3.012,-3.0025,-2.9443,-2.8507,-2.767,-2.718,-2.6643,-2.5523,-2.5809,-2.5468,-2.4896,-2.4543,-2.4347,-2.4262,-2.4251,-2.4251,-2.4276,-2.4134,-2.3895,-2.359,-2.3431,-2.315,-2.3113,-2.3065,-2.3038,-2.3001,-2.3001,-2.3001,-2.3001,-2.3012,-2.3045,-2.3078,-2.3056,-2.3056,-2.2928,-2.2644,-2.244,-2.2289,-2.1959,-2.1845,-2.1949,-3.6148,-3.6226,-3.5735,-3.5347,-3.5055,-3.5285,-3.5237,-3.5023,-3.5121,-3.5004,-3.4721,-3.4702,-3.4568,-3.4414,-3.438,-3.438,-3.438,-3.438,-3.438,-3.438,-3.438,-3.438,-3.438,-3.438,-3.4346,-3.4312,-3.4278,-3.423,-3.4191,-3.4,-3.3744,-3.3466,-3.3431,-3.3396,-3.3312,-3.3276,-3.3276,-3.3276,-3.3276,-3.3164,-3.296,-3.2721,-3.2398,-3.2075,-3.2033,-3.1836,-3.1527,-3.1485,-3.1326,-3.0946,-3.09,-3.0689,-3.0176,-3.0162,-3.0097,-2.9964,-2.9892,-2.9901,-3.0011,-3.0269,-3.0405,-3.0405,-3.0405,-3.0405,-3.0432,-3.0717,-3.0812,-3.0608,-3.0473,-3.0405,-3.0432,-3.0405,-3.0405,-3.0405,-3.0405,-3.031,-3.0079,-2.9623,-2.9215,-2.8982,-2.84,-2.771,-2.7274,-2.636,-2.5683,-2.5422,-2.5261,-2.5076,-2.5073,-2.4982,-2.4895,-2.4858,-2.4543,-2.41,-2.3746,-2.3482,-2.3309,-2.3198,-2.3075,-2.3001,-2.3045,-2.3001,-2.3001,-2.3012,-2.3034,-2.3034,-2.3012,-2.3001,-2.2889,-2.2628,-2.2327,-2.2187,-2.1997,-2.1987,-2.1959,-3.6554,-3.66,-3.6258,-3.5832,-3.5432,-3.5497,-3.5497,-3.54,-3.54,-3.5219,-3.4902,-3.4802,-3.4702,-3.4549,-3.4448,-3.438,-3.4414,-3.4467,-3.4534,-3.4534,-3.4635,-3.4635,-3.4534,-3.4549,-3.4481,-3.4414,-3.438,-3.438,-3.438,-3.4157,-3.3848,-3.357,-3.3521,-3.3452,-3.3396,-3.3396,-3.3347,-3.3276,-3.3276,-3.3276,-3.3276,-3.3276,-3.3101,-3.2707,-3.2651,-3.2455,-3.2019,-3.1991,-3.1859,-3.1542,-3.1528,-3.1358,-3.1009,-3.0962,-3.0942,-3.0868,-3.0931,-3.0856,-3.0663,-3.0798,-3.088,-3.0893,-3.0893,-3.0893,-3.0975,-3.1287,-3.1517,-3.1504,-3.1137,-3.092,-3.088,-3.0893,-3.0893,-3.0907,-3.088,-3.0839,-3.0676,-3.0497,-3.0207,-3.0108,-2.9315,-2.9125,-2.8373,-2.7249,-2.6413,-2.6375,-2.6194,-2.5973,-2.5897,-2.5708,-2.5581,-2.5433,-2.5099,-2.4703,-2.4217,-2.3973,-2.3782,-2.3681,-2.3558,-2.3504,-2.3405,-2.3416,-2.3274,-2.3438,-2.3274,-2.3099,-2.3023,-2.3001,-2.3029,-2.2713,-2.2434,-2.2201,-2.2063,-2.2185,-2.2224,-3.6677,-3.6923,-3.6569,-3.6114,-3.5462,-3.5891,-3.5797,-3.5632,-3.5507,-3.5264,-3.5023,-3.4708,-3.4645,-3.4942,-3.4704,-3.4414,-3.4467,-3.4735,-3.4887,-3.4887,-3.5169,-3.5154,-3.4887,-3.4854,-3.4716,-3.4414,-3.438,-3.438,-3.438,-3.4346,-3.4278,-3.4074,-3.3991,-3.3868,-3.364,-3.357,-3.3501,-3.3361,-3.3326,-3.3276,-3.3276,-3.3276,-3.3262,-3.3192,-3.3234,-3.3164,-3.3136,-3.3164,-3.2926,-3.2336,-3.2336,-3.2002,-3.1322,-3.1232,-3.114,-3.089,-3.1261,-3.1471,-3.1363,-3.1707,-3.2042,-3.2069,-3.1988,-3.2083,-3.1974,-3.2042,-3.2083,-3.2151,-3.2028,-3.1965,-3.1965,-3.1884,-3.1974,-3.2001,-3.2055,-3.1762,-3.13,-3.0757,-3.0,-2.96,-2.9129,-2.8649,-2.7914,-2.7273,-2.7069,-2.7043,-2.6995,-2.683,-2.6547,-2.6362,-2.6116,-2.5702,-2.5457,-2.5228,-2.4759,-2.4459,-2.4392,-2.4303,-2.4132,-2.4301,-2.4399,-2.4377,-2.4093,-2.3864,-2.3755,-2.3536,-2.3165,-2.3018,-2.3079,-2.2924,-2.2664,-2.2474,-2.2534,-2.2643,-2.2681,-3.8419,-3.8247,-3.7882,-3.7592,-3.743,-3.7527,-3.751,-3.7397,-3.7397,-3.72,-3.6917,-3.6735,-3.6649,-3.6518,-3.6,-3.5485,-3.507,-3.5154,-3.5219,-3.5187,-3.5136,-3.5004,-3.4902,-3.4668,-3.4515,-3.4414,-3.438,-3.4346,-3.423,-3.4196,-3.4128,-3.4005,-3.3985,-3.3902,-3.3793,-3.364,-3.357,-3.3501,-3.3361,-3.3276,-3.3276,-3.3276,-3.3276,-3.3276,-3.3276,-3.3276,-3.3276,-3.3276,-3.3178,-3.3002,-3.2988,-3.2855,-3.2576,-3.2534,-3.2361,-3.2061,-3.217,-3.2151,-3.1956,-3.2096,-3.2205,-3.2205,-3.2205,-3.2205,-3.2205,-3.2205,-3.2205,-3.2205,-3.2205,-3.2205,-3.2205,-3.2205,-3.2205,-3.2205,-3.2205,-3.2137,-3.1938,-3.1626,-3.1374,-3.1091,-3.048,-2.9852,-2.9264,-2.8746,-2.8244,-2.8011,-2.7972,-2.7858,-2.7726,-2.7608,-2.7223,-2.6714,-2.6537,-2.6295,-2.5535,-2.4948,-2.459,-2.4533,-2.4493,-2.4476,-2.453,-2.4596,-2.4377,-2.4301,-2.4224,-2.4115,-2.3798,-2.3766,-2.3689,-2.3683,-2.3384,-2.3105,-2.3239,-2.3266,-2.3271,-3.9298,-3.885,-3.8688,-3.8606,-3.8508,-3.8508,-3.8508,-3.8475,-3.8376,-3.8211,-3.7995,-3.7895,-3.7745,-3.7583,-3.7191,-3.6788,-3.634,-3.5881,-3.5608,-3.5591,-3.5477,-3.5282,-3.5082,-3.5041,-3.4908,-3.4753,-3.4719,-3.4564,-3.421,-3.4196,-3.4142,-3.4088,-3.4054,-3.4,-3.3896,-3.3744,-3.364,-3.3501,-3.3361,-3.3276,-3.3276,-3.3276,-3.3276,-3.3276,-3.3276,-3.3276,-3.3276,-3.3276,-3.3276,-3.3276,-3.3276,-3.3276,-3.3276,-3.3241,-3.3051,-3.2753,-3.2618,-3.2503,-3.2241,-3.2205,-3.2205,-3.2205,-3.2205,-3.2205,-3.2205,-3.2205,-3.2205,-3.2205,-3.2205,-3.2205,-3.2205,-3.2205,-3.2205,-3.2205,-3.2205,-3.2205,-3.2205,-3.2205,-3.2155,-3.2005,-3.1489,-3.1033,-3.0709,-2.9999,-2.9484,-2.9131,-2.9013,-2.8907,-2.8709,-2.8431,-2.8139,-2.7592,-2.7168,-2.6819,-2.6281,-2.5713,-2.5279,-2.5157,-2.5,-2.4912,-2.4847,-2.4858,-2.4814,-2.4749,-2.4683,-2.4618,-2.4563,-2.4519,-2.4508,-2.453,-2.4147,-2.3727,-2.3812,-2.3862,-2.3786,-3.917,-3.8762,-3.8882,-3.8908,-3.8708,-3.8708,-3.86,-3.8611,-3.8348,-3.8339,-3.8318,-3.7862,-3.802,-3.8053,-3.8086,-3.8147,-3.8019,-3.6879,-3.6172,-3.6127,-3.6379,-3.608,-3.5517,-3.5982,-3.5942,-3.5407,-3.5407,-3.5053,-3.4496,-3.4467,-3.4467,-3.4395,-3.4346,-3.4191,-3.3931,-3.3848,-3.3675,-3.3431,-3.3312,-3.3276,-3.3276,-3.3276,-3.3276,-3.3276,-3.3276,-3.3276,-3.3276,-3.3276,-3.3276,-3.3276,-3.3276,-3.3276,-3.3276,-3.3157,-3.2917,-3.2739,-3.2525,-3.2359,-3.2205,-3.2205,-3.2205,-3.2205,-3.2205,-3.2205,-3.2205,-3.2205,-3.2205,-3.2205,-3.2205,-3.2205,-3.2205,-3.2205,-3.2205,-3.2205,-3.2205,-3.2205,-3.2205,-3.2205,-3.2205,-3.2132,-3.179,-3.1593,-3.1408,-3.0772,-3.0203,-3.0101,-2.9844,-2.9507,-2.9131,-2.8788,-2.8459,-2.8059,-2.7615,-2.7167,-2.6798,-2.6498,-2.6185,-2.5913,-2.5762,-2.5622,-2.5535,-2.5502,-2.536,-2.5273,-2.5196,-2.512,-2.4989,-2.4934,-2.4858,-2.4796,-2.4472,-2.4352,-2.4322,-2.434,-2.426,-4.0482,-4.0264,-4.0081,-3.9961,-3.9893,-3.9874,-3.9874,-3.9874,-3.9757,-3.9707,-3.9688,-3.9619,-3.9619,-3.955,-3.9263,-3.91,-3.909,-3.8146,-3.747,-3.7163,-3.7388,-3.6985,-3.633,-3.6554,-3.6487,-3.6081,-3.6011,-3.5691,-3.5203,-3.5067,-3.4864,-3.4501,-3.4395,-3.4278,-3.4097,-3.3951,-3.3744,-3.3536,-3.3361,-3.3276,-3.3276,-3.3276,-3.3276,-3.3276,-3.3276,-3.3276,-3.3276,-3.3276,-3.3276,-3.3276,-3.3276,-3.3276,-3.3276,-3.3241,-3.3051,-3.2739,-3.2668,-3.2453,-3.2241,-3.2205,-3.2205,-3.2205,-3.2205,-3.2205,-3.2205,-3.2205,-3.2205,-3.2205,-3.2205,-3.2205,-3.2205,-3.2205,-3.2205,-3.2205,-3.2205,-3.2205,-3.2205,-3.2205,-3.2205,-3.2169,-3.1863,-3.1629,-3.1482,-3.0923,-3.047,-3.0444,-3.0126,-2.9702,-2.9404,-2.9197,-2.8752,-2.8063,-2.7753,-2.7452,-2.7044,-2.6674,-2.6354,-2.6104,-2.5979,-2.5895,-2.5895,-2.5884,-2.5775,-2.5699,-2.5633,-2.5546,-2.5415,-2.5338,-2.5273,-2.5349,-2.5311,-2.5126,-2.4858,-2.4723,-2.4629,-4.1122,-4.0867,-4.0627,-4.0489,-4.0489,-4.0489,-4.0489,-4.0489,-4.0489,-4.0489,-4.0489,-4.0489,-4.0489,-4.0413,-4.0043,-3.9874,-3.9813,-3.9382,-3.8859,-3.8275,-3.8126,-3.7652,-3.6877,-3.6939,-3.6965,-3.6714,-3.6678,-3.6359,-3.577,-3.5494,-3.5305,-3.5111,-3.4878,-3.4804,-3.4761,-3.4513,-3.4245,-3.4022,-3.3649,-3.3431,-3.3396,-3.3347,-3.3276,-3.3276,-3.3276,-3.3276,-3.3276,-3.3276,-3.3276,-3.3276,-3.3276,-3.3276,-3.3276,-3.3206,-3.3072,-3.2881,-3.2739,-3.2561,-3.23,-3.2286,-3.2241,-3.2205,-3.2205,-3.2205,-3.2205,-3.2205,-3.2205,-3.2205,-3.2205,-3.2205,-3.2205,-3.2205,-3.2205,-3.2205,-3.2205,-3.2205,-3.2205,-3.2205,-3.2205,-3.2132,-3.1973,-3.1863,-3.168,-3.1296,-3.0848,-3.0772,-3.0495,-3.0113,-2.9857,-2.96,-2.9003,-2.845,-2.8087,-2.7736,-2.7196,-2.6839,-2.6509,-2.6229,-2.6021,-2.5937,-2.5895,-2.5895,-2.5841,-2.583,-2.5786,-2.5764,-2.5655,-2.5721,-2.571,-2.5884,-2.5895,-2.5557,-2.5187,-2.5093,-2.4957,-4.1156,-4.0558,-4.0524,-4.0593,-4.0627,-4.0627,-4.0662,-4.0593,-4.0593,-4.0627,-4.0558,-4.0593,-4.0524,-4.0489,-4.0397,-4.0382,-4.0459,-4.0366,-3.9997,-3.9428,-3.8962,-3.8339,-3.7803,-3.7676,-3.7623,-3.7514,-3.7492,-3.7092,-3.648,-3.6,-3.577,-3.6054,-3.5648,-3.5592,-3.5675,-3.5366,-3.5016,-3.4768,-3.4129,-3.3846,-3.3797,-3.3579,-3.3417,-3.3417,-3.3403,-3.3375,-3.329,-3.3276,-3.3276,-3.3276,-3.3276,-3.3276,-3.3276,-3.3108,-3.3037,-3.2988,-3.281,-3.2668,-3.2489,-3.2381,-3.2322,-3.2241,-3.2205,-3.2205,-3.2205,-3.2205,-3.2205,-3.2205,-3.2205,-3.2205,-3.2205,-3.2205,-3.2205,-3.2205,-3.2205,-3.2205,-3.2205,-3.2205,-3.2205,-3.2205,-3.2169,-3.2169,-3.2132,-3.1753,-3.1556,-3.1408,-3.1123,-3.071,-3.0394,-3.0024,-2.9678,-2.9172,-2.8578,-2.8099,-2.7603,-2.6962,-2.6644,-2.6396,-2.6104,-2.5937,-2.5895,-2.5895,-2.5895,-2.5895,-2.5895,-2.5895,-2.5895,-2.5895,-2.5895,-2.5895,-2.5812,-2.5644,-2.5464,-2.5327,-2.5115,-4.1138,-4.0935,-4.0935,-4.1104,-4.129,-4.1339,-4.129,-4.129,-4.129,-4.1138,-4.1003,-4.0935,-4.0765,-4.0539,-4.0489,-4.0489,-4.0489,-4.0489,-4.0443,-4.0243,-4.0074,-3.9726,-3.9325,-3.8985,-3.8807,-3.8771,-3.869,-3.8366,-3.754,-3.7246,-3.6892,-3.6286,-3.6235,-3.6056,-3.5978,-3.587,-3.5698,-3.5518,-3.5223,-3.4959,-3.4909,-3.4764,-3.4436,-3.3978,-3.3964,-3.3754,-3.3361,-3.3276,-3.3276,-3.3276,-3.3276,-3.3276,-3.3276,-3.3241,-3.3157,-3.3023,-3.2952,-3.2846,-3.2632,-3.2489,-3.2395,-3.2359,-3.2264,-3.2205,-3.2205,-3.2205,-3.2205,-3.2205,-3.2205,-3.2205,-3.2205,-3.2205,-3.2205,-3.2205,-3.2205,-3.2205,-3.2205,-3.2205,-3.2205,-3.2205,-3.2205,-3.2205,-3.2132,-3.19,-3.1629,-3.1556,-3.131,-3.0986,-3.0722,-3.0558,-3.0241,-2.9561,-2.8988,-2.8486,-2.7926,-2.7249,-2.6768,-2.652,-2.6229,-2.5937,-2.5895,-2.5895,-2.5895,-2.5895,-2.5895,-2.5895,-2.5895,-2.5895,-2.5895,-2.5895,-2.5853,-2.5728,-2.5559,-2.538,-2.5158,-4.1439,-4.1339,-4.1339,-4.1439,-4.1588,-4.1588,-4.1588,-4.1588,-4.1588,-4.1522,-4.1323,-4.1156,-4.0969,-4.0749,-4.0593,-4.0489,-4.0489,-4.0489,-4.0489,-4.0489,-4.0459,-4.025,-3.993,-3.9595,-3.94,-3.94,-3.94,-3.9062,-3.854,-3.8252,-3.7801,-3.7425,-3.709,-3.6961,-3.6982,-3.6642,-3.6505,-3.6352,-3.5983,-3.5703,-3.5543,-3.541,-3.5108,-3.4697,-3.4618,-3.4421,-3.4126,-3.4098,-3.3888,-3.348,-3.3276,-3.3276,-3.3276,-3.3276,-3.3241,-3.3108,-3.3108,-3.3002,-3.2775,-3.2668,-3.2561,-3.2453,-3.2395,-3.2372,-3.23,-3.2264,-3.2264,-3.2205,-3.2205,-3.2205,-3.2205,-3.2205,-3.2205,-3.2205,-3.2205,-3.2205,-3.2205,-3.2205,-3.2205,-3.2205,-3.2205,-3.2205,-3.2205,-3.1973,-3.19,-3.1827,-3.1767,-3.1421,-3.1134,-3.1009,-3.0733,-3.005,-2.9406,-2.891,-2.8327,-2.7655,-2.7003,-2.6674,-2.6313,-2.5979,-2.5895,-2.5895,-2.5895,-2.5895,-2.5895,-2.5895,-2.5895,-2.5895,-2.5895,-2.5895,-2.5895,-2.5812,-2.5644,-2.5475,-2.5253,-4.198,-4.172,-4.172,-4.172,-4.1785,-4.1785,-4.1851,-4.1768,-4.1818,-4.1753,-4.1621,-4.1307,-4.1189,-4.107,-4.0749,-4.0558,-4.0489,-4.0489,-4.0489,-4.0489,-4.0489,-4.0331,-4.0086,-3.9824,-3.9666,-3.9615,-3.9508,-3.9493,-3.9292,-3.8837,-3.8698,-3.8565,-3.822,-3.8106,-3.7995,-3.7681,-3.7455,-3.7214,-3.6699,-3.63,-3.6139,-3.5969,-3.5699,-3.5376,-3.5105,-3.5077,-3.5034,-3.5034,-3.4669,-3.3578,-3.3417,-3.3431,-3.3417,-3.3375,-3.3276,-3.3276,-3.3241,-3.3136,-3.286,-3.2917,-3.281,-3.2561,-3.2596,-3.2596,-3.2395,-3.2359,-3.2322,-3.2205,-3.2205,-3.2241,-3.2205,-3.2205,-3.2205,-3.2205,-3.2205,-3.2205,-3.2205,-3.2205,-3.2205,-3.2205,-3.2205,-3.2205,-3.2205,-3.2205,-3.2169,-3.2059,-3.195,-3.1827,-3.1629,-3.1556,-3.1172,-3.052,-2.9909,-2.9341,-2.8712,-2.8099,-2.74,-2.688,-2.6426,-2.6104,-2.5937,-2.5895,-2.5895,-2.5895,-2.5895,-2.5895,-2.5895,-2.5895,-2.5895,-2.5895,-2.5895,-2.5812,-2.5686,-2.5601,-2.5433,-4.2365,-4.2365,-4.2396,-4.2522,-4.2758,-4.2805,-4.2711,-4.2602,-4.2602,-4.2349,-4.2045,-4.1916,-4.1588,-4.1138,-4.1021,-4.0799,-4.0593,-4.0558,-4.0489,-4.0489,-4.0489,-4.047,-4.0366,-4.0246,-4.0246,-4.0196,-4.0246,-4.0106,-3.9854,-3.9688,-3.9495,-3.9239,-3.9122,-3.8905,-3.8635,-3.8451,-3.8296,-3.8007,-3.7601,-3.7388,-3.7232,-3.6954,-3.658,-3.6123,-3.5573,-3.5245,-3.5203,-3.5189,-3.5048,-3.4716,-3.4337,-3.4076,-3.395,-3.3613,-3.3403,-3.3361,-3.3333,-3.3269,-3.3171,-3.3037,-3.2917,-3.2668,-3.2596,-3.2395,-3.2277,-3.2359,-3.2322,-3.2228,-3.2286,-3.23,-3.2205,-3.2205,-3.2205,-3.2205,-3.2205,-3.2205,-3.2205,-3.2205,-3.2205,-3.2205,-3.2205,-3.2205,-3.2205,-3.2205,-3.2205,-3.2205,-3.2169,-3.2132,-3.2096,-3.2023,-3.1556,-3.0947,-3.0393,-2.9819,-2.9223,-2.8514,-2.7713,-2.7115,-2.6674,-2.626,-2.6104,-2.5937,-2.5937,-2.5937,-2.5895,-2.5895,-2.5895,-2.5895,-2.5895,-2.5895,-2.5895,-2.5853,-2.577,-2.5696,-2.557,-4.2774,-4.2834,-4.2851,-4.2927,-4.3066,-4.3021,-4.3007,-4.2959,-4.2837,-4.2665,-4.2445,-4.2254,-4.1883,-4.1571,-4.139,-4.1205,-4.1037,-4.0851,-4.0799,-4.073,-4.0627,-4.0489,-4.0489,-4.0489,-4.0489,-4.0489,-4.0489,-4.0366,-4.0261,-4.0191,-4.0021,-3.9717,-3.9681,-3.9313,-3.8892,-3.8819,-3.8546,-3.8248,-3.8104,-3.8005,-3.7868,-3.761,-3.7218,-3.6787,-3.6254,-3.6061,-3.6089,-3.6061,-3.6061,-3.5855,-3.5433,-3.4941,-3.4688,-3.4351,-3.407,-3.3768,-3.3712,-3.348,-3.3255,-3.3157,-3.3086,-3.2846,-3.281,-3.2682,-3.2516,-3.2538,-3.2395,-3.2277,-3.2277,-3.2264,-3.2205,-3.2205,-3.2205,-3.2205,-3.2205,-3.2205,-3.2205,-3.2205,-3.2205,-3.2205,-3.2205,-3.2205,-3.2205,-3.2205,-3.2205,-3.2205,-3.2205,-3.2169,-3.2169,-3.2096,-3.19,-3.1394,-3.0884,-3.0304,-2.9716,-2.8937,-2.7995,-2.7429,-2.6992,-2.6633,-2.6396,-2.6188,-2.6021,-2.5979,-2.5937,-2.5895,-2.5895,-2.5895,-2.5895,-2.5895,-2.5895,-2.5895,-2.5906,-2.5822,-2.5696,-4.3174,-4.3174,-4.3174,-4.3157,-4.3143,-4.3068,-4.3037,-4.3052,-4.2805,-4.2759,-4.2775,-4.2333,-4.2142,-4.2013,-4.1785,-4.1687,-4.1522,-4.1323,-4.1156,-4.1003,-4.0765,-4.0593,-4.0524,-4.0489,-4.0489,-4.0489,-4.0489,-4.047,-4.047,-4.0505,-4.0296,-4.0117,-4.0066,-3.9732,-3.9126,-3.8892,-3.8708,-3.8315,-3.8202,-3.8142,-3.7967,-3.7725,-3.7429,-3.7102,-3.6891,-3.6849,-3.6782,-3.681,-3.6894,-3.695,-3.6487,-3.6019,-3.5597,-3.5189,-3.4992,-3.4371,-3.4379,-3.4026,-3.3521,-3.3402,-3.336,-3.3079,-3.3122,-3.3051,-3.2789,-3.2668,-3.2525,-3.2336,-3.2228,-3.2241,-3.2241,-3.2205,-3.2205,-3.2205,-3.2205,-3.2205,-3.2205,-3.2205,-3.2205,-3.2205,-3.2205,-3.2205,-3.2205,-3.2205,-3.2205,-3.2205,-3.2205,-3.2205,-3.2205,-3.2132,-3.1936,-3.1643,-3.1084,-3.0342,-2.9716,-2.9457,-2.8502,-2.7903,-2.7429,-2.7074,-2.6757,-2.6437,-2.6229,-2.6021,-2.5937,-2.5937,-2.5895,-2.5895,-2.5895,-2.5895,-2.5895,-2.5895,-2.5895,-2.5895,-2.5822,-4.3432,-4.3539,-4.3539,-4.3539,-4.3522,-4.3462,-4.3312,-4.3113,-4.3021,-4.2883,-4.2665,-4.2556,-4.2333,-4.2174,-4.2077,-4.1883,-4.172,-4.1555,-4.139,-4.1205,-4.1003,-4.0833,-4.0593,-4.0489,-4.0489,-4.0489,-4.0489,-4.0489,-4.0489,-4.0505,-4.0436,-4.0401,-4.0366,-4.0036,-3.9574,-3.9379,-3.8943,-3.8427,-3.8277,-3.8179,-3.8089,-3.7877,-3.761,-3.7264,-3.7056,-3.6978,-3.6978,-3.6978,-3.6978,-3.6964,-3.6919,-3.6754,-3.6416,-3.5752,-3.5273,-3.5077,-3.5034,-3.4731,-3.4125,-3.3956,-3.3668,-3.3226,-3.3072,-3.2966,-3.2775,-3.269,-3.2596,-3.2417,-3.2264,-3.2228,-3.2359,-3.2277,-3.2205,-3.2205,-3.2205,-3.2205,-3.2205,-3.2205,-3.2205,-3.2205,-3.2205,-3.2205,-3.2205,-3.2205,-3.2205,-3.2205,-3.2205,-3.2205,-3.2205,-3.2132,-3.2023,-3.168,-3.1235,-3.0419,-2.9613,-2.9535,-2.9094,-2.8542,-2.8063,-2.7632,-2.7278,-2.6757,-2.6467,-2.6271,-2.6063,-2.5937,-2.5937,-2.5895,-2.5895,-2.5895,-2.5895,-2.5895,-2.5895,-2.5895,-2.5895,-4.3522,-4.3615,-4.3615,-4.3615,-4.3568,-4.3402,-4.3295,-4.3204,-4.2959,-4.2821,-4.2728,-4.2634,-4.2523,-4.2365,-4.2365,-4.2238,-4.2109,-4.1916,-4.1785,-4.1588,-4.1272,-4.1037,-4.0765,-4.0627,-4.0524,-4.0489,-4.0489,-4.0489,-4.0489,-4.0489,-4.0455,-4.0401,-4.0401,-4.0121,-3.9625,-3.9322,-3.8995,-3.8553,-3.8315,-3.8202,-3.8165,-3.7929,-3.7586,-3.7341,-3.7134,-3.6978,-3.6978,-3.6978,-3.6978,-3.6978,-3.6978,-3.6978,-3.6796,-3.6525,-3.5977,-3.5738,-3.5653,-3.54,-3.4759,-3.4464,-3.3984,-3.371,-3.3367,-3.3086,-3.2917,-3.2846,-3.2739,-3.2489,-3.2345,-3.23,-3.2264,-3.2228,-3.2205,-3.2205,-3.2205,-3.2205,-3.2205,-3.2205,-3.2205,-3.2205,-3.2205,-3.2205,-3.2205,-3.2205,-3.2205,-3.2205,-3.2205,-3.2205,-3.2205,-3.2132,-3.2096,-3.179,-3.1421,-3.0848,-3.0152,-2.996,-2.9755,-2.9238,-2.8806,-2.8371,-2.7943,-2.758,-2.6992,-2.652,-2.6313,-2.6188,-2.5937,-2.5895,-2.5895,-2.5895,-2.5895,-2.5895,-2.5895,-2.5895,-2.5895,-4.3615,-4.3615,-4.3615,-4.3615,-4.3568,-4.3312,-4.3265,-4.3235,-4.2898,-4.2759,-4.2806,-4.2681,-4.2602,-4.2602,-4.2602,-4.2571,-4.2571,-4.2302,-4.2142,-4.1916,-4.1489,-4.1189,-4.0987,-4.073,-4.0489,-4.0489,-4.0436,-4.0505,-4.0489,-4.047,-4.0401,-4.0347,-4.0277,-3.998,-3.9553,-3.9286,-3.8885,-3.8612,-3.8315,-3.8202,-3.8127,-3.7877,-3.7586,-3.7341,-3.7187,-3.7056,-3.7017,-3.6978,-3.6978,-3.6978,-3.6978,-3.6978,-3.6978,-3.6978,-3.6754,-3.6399,-3.63,-3.5949,-3.5442,-3.4997,-3.4596,-3.4133,-3.374,-3.3402,-3.3108,-3.2988,-3.2846,-3.2596,-3.2489,-3.2503,-3.2444,-3.2314,-3.2277,-3.2241,-3.2205,-3.2205,-3.2205,-3.2205,-3.2205,-3.2205,-3.2205,-3.2205,-3.2205,-3.2205,-3.2205,-3.2205,-3.2205,-3.2205,-3.2205,-3.2205,-3.2096,-3.19,-3.1606,-3.1272,-3.0848,-3.0621,-3.0368,-3.005,-2.9704,-2.9381,-2.8924,-2.849,-2.7822,-2.7196,-2.6798,-2.6633,-2.6271,-2.5937,-2.5895,-2.5895,-2.5895,-2.5895,-2.5895,-2.5895,-2.5895,-4.3615,-4.3615,-4.3615,-4.3615,-4.3598,-4.3539,-4.3372,-4.3143,-4.3052,-4.2867,-4.2665,-4.2634,-4.2602,-4.2602,-4.2602,-4.2602,-4.2571,-4.2539,-4.2381,-4.2109,-4.1753,-4.1423,-4.1104,-4.0696,-4.0716,-4.0713,-4.0528,-4.0401,-4.0497,-4.0477,-4.0296,-4.0242,-4.0101,-3.992,-3.976,-3.9294,-3.898,-3.876,-3.8404,-3.8202,-3.8165,-3.7953,-3.7777,-3.7572,-3.738,-3.7187,-3.7056,-3.7017,-3.6978,-3.6978,-3.6978,-3.6978,-3.6978,-3.6978,-3.6978,-3.6933,-3.6849,-3.6638,-3.6103,-3.5728,-3.5293,-3.4632,-3.4133,-3.3796,-3.3374,-3.3108,-3.2988,-3.2952,-3.2775,-3.2704,-3.2704,-3.2574,-3.2417,-3.2322,-3.2264,-3.2241,-3.2205,-3.2205,-3.2205,-3.2205,-3.2205,-3.2205,-3.2205,-3.2205,-3.2205,-3.2205,-3.2205,-3.2205,-3.2205,-3.2205,-3.2169,-3.1986,-3.1877,-3.1545,-3.1421,-3.1222,-3.1073,-3.0784,-3.062,-3.0317,-2.9807,-2.9303,-2.8688,-2.8063,-2.7592,-2.6992,-2.6509,-2.6218,-2.6021,-2.5895,-2.5895,-2.5895,-2.5895,-2.5895,-2.5906,-4.3522,-4.3615,-4.3615,-4.3568,-4.3462,-4.3372,-4.319,-4.3007,-4.2867,-4.2743,-4.2665,-4.2728,-4.2775,-4.2775,-4.2665,-4.2602,-4.2602,-4.2602,-4.2539,-4.2333,-4.2013,-4.1801,-4.1732,-4.1599,-4.1545,-4.1372,-4.1249,-4.1186,-4.1012,-4.0475,-4.0101,-4.0011,-3.997,-4.006,-4.0148,-3.9377,-3.9313,-3.9173,-3.8735,-3.8254,-3.8127,-3.7991,-3.7853,-3.7754,-3.7457,-3.7264,-3.7187,-3.7056,-3.6978,-3.6978,-3.6978,-3.6978,-3.6978,-3.6978,-3.6978,-3.6978,-3.6978,-3.6838,-3.6585,-3.6276,-3.577,-3.525,-3.4624,-3.3908,-3.3445,-3.3255,-3.3122,-3.2988,-3.2917,-3.2881,-3.2846,-3.2668,-3.2561,-3.2417,-3.2395,-3.2264,-3.2241,-3.2205,-3.2205,-3.2205,-3.2205,-3.2205,-3.2205,-3.2205,-3.2205,-3.2205,-3.2205,-3.2205,-3.2205,-3.2205,-3.2132,-3.2059,-3.195,-3.1853,-3.184,-3.179,-3.1753,-3.1593,-3.1593,-3.1209,-3.0607,-3.0024,-2.9459,-2.8727,-2.8023,-2.7429,-2.6816,-2.6426,-2.6188,-2.6063,-2.5895,-2.5979,-2.6063,-2.5906,-2.5948,-4.3402,-4.3568,-4.3539,-4.3492,-4.3372,-4.3204,-4.3021,-4.2899,-4.279,-4.2728,-4.2728,-4.2868,-4.2945,-4.293,-4.2805,-4.2759,-4.2681,-4.2665,-4.2634,-4.2508,-4.2302,-4.2237,-4.2281,-4.2428,-4.2422,-4.2473,-4.219,-4.1891,-4.1463,-4.1026,-4.0557,-4.0111,-4.0238,-4.0468,-4.0646,-4.0262,-3.9929,-3.9742,-3.8756,-3.8269,-3.8165,-3.8066,-3.7915,-3.7777,-3.7548,-3.7341,-3.7226,-3.7095,-3.6978,-3.6978,-3.6978,-3.6978,-3.6978,-3.6978,-3.6978,-3.6978,-3.6978,-3.6964,-3.681,-3.6585,-3.6314,-3.5836,-3.518,-3.4295,-3.3683,-3.3501,-3.3361,-3.315,-3.3072,-3.3002,-3.2895,-3.281,-3.2725,-3.2618,-3.2525,-3.2395,-3.23,-3.23,-3.2241,-3.2205,-3.2205,-3.2205,-3.2205,-3.2205,-3.2205,-3.2205,-3.2205,-3.2205,-3.2205,-3.2205,-3.2169,-3.2109,-3.2109,-3.2036,-3.2059,-3.2096,-3.2169,-3.2205,-3.2205,-3.2009,-3.1344,-3.0809,-3.0317,-2.9498,-2.8648,-2.7971,-2.7458,-2.6899,-2.6426,-2.6467,-2.6467,-2.6302,-2.6271,-2.6115,-2.599,-4.3251,-4.3402,-4.3419,-4.3388,-4.3388,-4.3174,-4.3037,-4.2899,-4.3007,-4.2976,-4.2914,-4.3037,-4.3082,-4.3082,-4.3035,-4.2959,-4.2868,-4.2868,-4.2775,-4.2539,-4.2302,-4.2478,-4.27,-4.2886,-4.3029,-4.3349,-4.3181,-4.2618,-4.2096,-4.2058,-4.1576,-4.1229,-4.1055,-4.1362,-4.1485,-4.1158,-4.0368,-3.9899,-3.8824,-3.8404,-3.8315,-3.8202,-3.8052,-3.7763,-3.7625,-3.7419,-3.7056,-3.7017,-3.6978,-3.6978,-3.6978,-3.6978,-3.6978,-3.6978,-3.6978,-3.6978,-3.6978,-3.6978,-3.6908,-3.6852,-3.6599,-3.6117,-3.5513,-3.4829,-3.4253,-3.4147,-3.3894,-3.3438,-3.3388,-3.3297,-3.3213,-3.3122,-3.2952,-3.2832,-3.2704,-3.2596,-3.2489,-3.2417,-3.2359,-3.2241,-3.2205,-3.2241,-3.2205,-3.2205,-3.2205,-3.2205,-3.2205,-3.2205,-3.2205,-3.2205,-3.2205,-3.2169,-3.2169,-3.2169,-3.2169,-3.2205,-3.2205,-3.2205,-3.2205,-3.2205,-3.1973,-3.1519,-3.0897,-3.0393,-2.9588,-2.8834,-2.8171,-2.7931,-2.762,-2.7267,-2.7021,-2.6787,-2.6633,-2.652,-2.6313,-4.3052,-4.3221,-4.3129,-4.3084,-4.3068,-4.3023,-4.2961,-4.2899,-4.2945,-4.3068,-4.3207,-4.3143,-4.3174,-4.3235,-4.3143,-4.3082,-4.3007,-4.293,-4.2837,-4.2744,-4.262,-4.2622,-4.2945,-4.344,-4.388,-4.4013,-4.4022,-4.4032,-4.3721,-4.3261,-4.3184,-4.2819,-4.2071,-4.1888,-4.1936,-4.1583,-4.0663,-3.9875,-3.9216,-3.8943,-3.8892,-3.8671,-3.8427,-3.8179,-3.7701,-3.7495,-3.7226,-3.7056,-3.7017,-3.6978,-3.6978,-3.6978,-3.6978,-3.6978,-3.6978,-3.6978,-3.6978,-3.6978,-3.6978,-3.695,-3.6697,-3.6244,-3.585,-3.5498,-3.4871,-3.4801,-3.4478,-3.4126,-3.3824,-3.3733,-3.3333,-3.3255,-3.3157,-3.3037,-3.2917,-3.2775,-3.2668,-3.2583,-3.2439,-3.2322,-3.23,-3.23,-3.2228,-3.2205,-3.2205,-3.2205,-3.2205,-3.2205,-3.2205,-3.2205,-3.2205,-3.2205,-3.2205,-3.2205,-3.2205,-3.2205,-3.2205,-3.2205,-3.2205,-3.2205,-3.2169,-3.1827,-3.1283,-3.0897,-3.0595,-2.9884,-2.9381,-2.916,-2.8688,-2.7903,-2.7429,-2.7103,-2.6992,-2.6921,-2.6715,-4.2883,-4.3037,-4.2883,-4.2837,-4.2899,-4.2837,-4.2806,-4.2837,-4.2868,-4.3084,-4.3372,-4.3295,-4.3325,-4.3402,-4.3342,-4.3174,-4.3082,-4.3007,-4.2899,-4.2759,-4.2634,-4.2732,-4.3169,-4.367,-4.4135,-4.4419,-4.4758,-4.4888,-4.4354,-4.4329,-4.3996,-4.3505,-4.3142,-4.2852,-4.2401,-4.1553,-4.0595,-4.0052,-3.9526,-3.9415,-3.9328,-3.9002,-3.8598,-3.8352,-3.7877,-3.7471,-3.7226,-3.707,-3.6978,-3.6978,-3.6978,-3.6978,-3.6978,-3.6978,-3.6978,-3.6978,-3.6978,-3.6978,-3.6978,-3.6936,-3.6796,-3.6511,-3.6427,-3.6061,-3.5653,-3.5442,-3.5175,-3.459,-3.4365,-3.402,-3.3529,-3.3459,-3.3283,-3.3122,-3.3122,-3.3016,-3.2881,-3.2761,-3.2596,-3.2417,-3.2381,-3.2359,-3.2395,-3.2336,-3.2314,-3.2314,-3.2264,-3.2241,-3.2205,-3.2205,-3.2205,-3.2205,-3.2205,-3.2205,-3.2205,-3.2205,-3.2205,-3.2205,-3.2205,-3.2205,-3.2096,-3.1827,-3.1629,-3.132,-3.1046,-3.0809,-3.038,-2.9884,-2.9069,-2.8251,-2.7903,-2.7632,-2.74,-2.733,-2.7185,-4.2728,-4.2868,-4.2696,-4.2728,-4.2868,-4.2696,-4.2634,-4.2696,-4.2868,-4.3084,-4.3372,-4.3462,-4.3539,-4.3539,-4.3462,-4.3312,-4.3143,-4.3082,-4.2929,-4.2728,-4.265,-4.3022,-4.3347,-4.3735,-4.4074,-4.4721,-4.4987,-4.4847,-4.4381,-4.4894,-4.4508,-4.3796,-4.3452,-4.3402,-4.331,-4.1824,-4.0997,-4.081,-3.9887,-3.9604,-3.9436,-3.9147,-3.8745,-3.8389,-3.7877,-3.7471,-3.7187,-3.707,-3.6978,-3.6978,-3.6978,-3.6978,-3.6978,-3.6978,-3.6978,-3.6978,-3.6978,-3.6978,-3.6978,-3.6978,-3.6922,-3.6852,-3.6754,-3.6557,-3.623,-3.6047,-3.5836,-3.5208,-3.4787,-3.4357,-3.4006,-3.3712,-3.3501,-3.3276,-3.3241,-3.3206,-3.3072,-3.3002,-3.2824,-3.2668,-3.2525,-3.2417,-3.2489,-3.2489,-3.2444,-3.2444,-3.2395,-3.2336,-3.2277,-3.2205,-3.2205,-3.2205,-3.2205,-3.2205,-3.2205,-3.2205,-3.2205,-3.2205,-3.2205,-3.2205,-3.2205,-3.2096,-3.1863,-3.1666,-3.1505,-3.1307,-3.0884,-3.0418,-2.9768,-2.9133,-2.8514,-2.8207,-2.7938,-2.7817,-2.7765,-4.2696,-4.2899,-4.2837,-4.2883,-4.2959,-4.2711,-4.2665,-4.2806,-4.2976,-4.3099,-4.3174,-4.3265,-4.3355,-4.3402,-4.3342,-4.3281,-4.3281,-4.3007,-4.2821,-4.279,-4.2665,-4.2731,-4.3023,-4.3444,-4.38,-4.4156,-4.4541,-4.4863,-4.4654,-4.5078,-4.4729,-4.4024,-4.3192,-4.2731,-4.2124,-4.1198,-4.0653,-4.0622,-4.0303,-4.0126,-4.0056,-3.9508,-3.9053,-3.876,-3.8028,-3.7495,-3.7187,-3.7109,-3.7017,-3.6978,-3.6978,-3.6978,-3.6978,-3.6978,-3.6978,-3.6978,-3.6978,-3.6978,-3.6978,-3.6978,-3.6978,-3.6978,-3.695,-3.688,-3.6683,-3.6708,-3.637,-3.5949,-3.5489,-3.5012,-3.4329,-3.4104,-3.3838,-3.3375,-3.3276,-3.3276,-3.3206,-3.3206,-3.3122,-3.2966,-3.281,-3.2668,-3.2668,-3.2739,-3.2731,-3.2624,-3.2574,-3.2453,-3.2359,-3.2241,-3.2205,-3.2205,-3.2205,-3.2205,-3.2205,-3.2277,-3.2277,-3.2277,-3.2241,-3.2205,-3.2205,-3.2241,-3.2169,-3.1973,-3.19,-3.1813,-3.1468,-3.1121,-3.0735,-3.0165,-2.9535,-2.8988,-2.8712,-2.8645,-2.8657,-4.2759,-4.2899,-4.2961,-4.3021,-4.3082,-4.2867,-4.2821,-4.2914,-4.3021,-4.3082,-4.3052,-4.3066,-4.3174,-4.3251,-4.319,-4.3099,-4.3207,-4.3023,-4.2821,-4.279,-4.2665,-4.2635,-4.2813,-4.3055,-4.3185,-4.3541,-4.3994,-4.4383,-4.435,-4.4674,-4.4312,-4.3524,-4.2629,-4.1931,-4.1337,-4.0855,-4.062,-4.0566,-4.0385,-4.042,-4.0281,-3.993,-3.943,-3.8958,-3.8352,-3.7763,-3.738,-3.7187,-3.7056,-3.7017,-3.6978,-3.6978,-3.6993,-3.6978,-3.6978,-3.6978,-3.6978,-3.6978,-3.6978,-3.6978,-3.6978,-3.6978,-3.6978,-3.6978,-3.6978,-3.6922,-3.6768,-3.6473,-3.6272,-3.5686,-3.5026,-3.4773,-3.4365,-3.3916,-3.3705,-3.3733,-3.3599,-3.3627,-3.3367,-3.3184,-3.3057,-3.2973,-3.2923,-3.2966,-3.3051,-3.2895,-3.2753,-3.2632,-3.2525,-3.2395,-3.2314,-3.2264,-3.23,-3.2336,-3.2372,-3.2408,-3.2408,-3.2372,-3.2336,-3.23,-3.2336,-3.2359,-3.2336,-3.2314,-3.2264,-3.2214,-3.2105,-3.1813,-3.1384,-3.1011,-3.0596,-3.0037,-2.9535,-2.9353,-2.9287,-4.2899,-4.293,-4.3052,-4.3096,-4.3127,-4.3143,-4.3068,-4.293,-4.3052,-4.3021,-4.293,-4.3052,-4.3127,-4.3113,-4.3096,-4.3021,-4.2961,-4.2899,-4.2759,-4.2665,-4.2602,-4.2602,-4.2602,-4.2699,-4.2797,-4.2926,-4.325,-4.3686,-4.3751,-4.4059,-4.3782,-4.3017,-4.2129,-4.1541,-4.1161,-4.0929,-4.073,-4.0558,-4.0489,-4.0489,-4.0385,-4.0137,-3.9696,-3.9228,-3.8664,-3.8104,-3.7687,-3.738,-3.7226,-3.7109,-3.7031,-3.7031,-3.6993,-3.6978,-3.6978,-3.6978,-3.6978,-3.6978,-3.6978,-3.6978,-3.6978,-3.6978,-3.6978,-3.6978,-3.6978,-3.6978,-3.6894,-3.674,-3.6539,-3.63,-3.5949,-3.5555,-3.5161,-3.4809,-3.4464,-3.4351,-3.4197,-3.3978,-3.3598,-3.3437,-3.3296,-3.3232,-3.3232,-3.3275,-3.3318,-3.3122,-3.3016,-3.2931,-3.2789,-3.2632,-3.2538,-3.2467,-3.2489,-3.2525,-3.2561,-3.2538,-3.2525,-3.2525,-3.2574,-3.2538,-3.2561,-3.2525,-3.2503,-3.2503,-3.2596,-3.2525,-3.2309,-3.2191,-3.2023,-3.1656,-3.1211,-3.0672,-3.005,-2.9729,-2.9586,-4.3007,-4.3267,-4.3312,-4.3372,-4.3462,-4.3479,-4.3312,-4.3082,-4.3113,-4.3082,-4.3068,-4.3082,-4.3096,-4.3096,-4.3007,-4.2961,-4.2868,-4.2775,-4.2681,-4.2619,-4.2602,-4.2602,-4.2602,-4.2602,-4.2602,-4.2667,-4.2829,-4.2991,-4.2975,-4.3282,-4.3218,-4.2494,-4.2043,-4.167,-4.139,-4.1223,-4.0885,-4.0662,-4.0574,-4.0558,-4.047,-4.0242,-3.9925,-3.9589,-3.8995,-3.8427,-3.8179,-3.7763,-3.7519,-3.7303,-3.7264,-3.7187,-3.6993,-3.6978,-3.6978,-3.6978,-3.6978,-3.6978,-3.6978,-3.6978,-3.6978,-3.6978,-3.6978,-3.6978,-3.6978,-3.6978,-3.6978,-3.6852,-3.6806,-3.6595,-3.6356,-3.6019,-3.5709,-3.5442,-3.5124,-3.4941,-3.4801,-3.4604,-3.4287,-3.4153,-3.4032,-3.3814,-3.3808,-3.3584,-3.3564,-3.3403,-3.3297,-3.3311,-3.3107,-3.2979,-3.2739,-3.2668,-3.2668,-3.2739,-3.2704,-3.2668,-3.2654,-3.269,-3.2739,-3.2739,-3.2704,-3.2668,-3.2668,-3.2704,-3.2739,-3.2632,-3.2417,-3.2286,-3.2169,-3.1963,-3.1545,-3.1061,-3.0609,-3.0317,-3.0011,-4.3237,-4.3372,-4.3462,-4.3522,-4.3598,-4.3615,-4.3462,-4.3312,-4.3235,-4.3174,-4.3096,-4.3096,-4.3096,-4.3096,-4.3037,-4.2961,-4.2899,-4.2806,-4.2713,-4.2602,-4.2602,-4.2602,-4.2602,-4.2602,-4.2602,-4.2602,-4.2602,-4.2699,-4.2602,-4.2602,-4.2556,-4.243,-4.2206,-4.1916,-4.1621,-4.1357,-4.1104,-4.0882,-4.0746,-4.0746,-4.0608,-4.0436,-4.0296,-4.0016,-3.9307,-3.9068,-3.8738,-3.8315,-3.8089,-3.7863,-3.781,-3.7558,-3.7327,-3.7173,-3.6978,-3.6978,-3.6978,-3.6978,-3.6978,-3.6978,-3.6978,-3.6978,-3.6978,-3.6978,-3.6978,-3.6978,-3.6978,-3.6936,-3.6922,-3.6852,-3.6666,-3.6427,-3.6216,-3.5991,-3.578,-3.5583,-3.5428,-3.5287,-3.5175,-3.5077,-3.4885,-3.4674,-3.445,-3.4155,-3.4056,-3.4197,-3.4267,-3.4245,-3.3914,-3.3429,-3.3092,-3.2846,-3.2881,-3.2966,-3.2881,-3.2846,-3.2931,-3.2966,-3.3016,-3.298,-3.286,-3.2895,-3.2966,-3.2931,-3.2895,-3.2739,-3.2561,-3.2395,-3.2228,-3.2023,-3.189,-3.1545,-3.1198,-3.0923,-3.0621,-4.3402,-4.3432,-4.3568,-4.3598,-4.3615,-4.3615,-4.3598,-4.3598,-4.3449,-4.3312,-4.3157,-4.3143,-4.3157,-4.3174,-4.3143,-4.3037,-4.293,-4.2868,-4.2744,-4.2602,-4.2602,-4.2602,-4.2602,-4.2602,-4.2602,-4.2602,-4.2602,-4.2602,-4.2602,-4.2602,-4.2539,-4.2413,-4.2206,-4.198,-4.1704,-4.1489,-4.129,-4.1171,-4.1086,-4.1086,-4.1034,-4.0882,-4.0681,-4.037,-4.0091,-3.9824,-3.9379,-3.9162,-3.9053,-3.8745,-3.8449,-3.815,-3.7711,-3.7289,-3.7056,-3.6978,-3.6978,-3.6978,-3.6978,-3.6978,-3.6978,-3.6978,-3.6978,-3.6978,-3.6978,-3.6978,-3.6978,-3.6978,-3.695,-3.695,-3.6782,-3.6726,-3.6585,-3.6459,-3.6304,-3.6216,-3.6117,-3.5977,-3.5864,-3.5738,-3.5513,-3.5278,-3.5152,-3.4871,-3.4598,-3.4936,-3.4992,-3.4964,-3.4604,-3.3992,-3.3549,-3.3163,-3.3086,-3.3136,-3.3086,-3.3086,-3.3206,-3.3241,-3.3241,-3.3171,-3.3037,-3.3122,-3.3276,-3.3171,-3.3086,-3.2917,-3.2775,-3.261,-3.2444,-3.2228,-3.2096,-3.2023,-3.1753,-3.1445,-3.1123,-4.3479,-4.3568,-4.3598,-4.3615,-4.3615,-4.3615,-4.3615,-4.3615,-4.3568,-4.3509,-4.3509,-4.3462,-4.3402,-4.3295,-4.3295,-4.3176,-4.293,-4.2885,-4.2775,-4.2665,-4.2602,-4.2602,-4.2602,-4.2602,-4.2602,-4.2602,-4.2602,-4.2602,-4.2602,-4.2602,-4.2602,-4.2508,-4.227,-4.2045,-4.1916,-4.1687,-4.1505,-4.1406,-4.1406,-4.1288,-4.1135,-4.1171,-4.1073,-4.0972,-4.0802,-4.0562,-4.0165,-3.9884,-3.9508,-3.909,-3.8782,-3.8315,-3.7725,-3.725,-3.7017,-3.6978,-3.6978,-3.6978,-3.6978,-3.6978,-3.6978,-3.6978,-3.6978,-3.6978,-3.6978,-3.6978,-3.6978,-3.6978,-3.6978,-3.6978,-3.6978,-3.6978,-3.6978,-3.6894,-3.6838,-3.6768,-3.675,-3.6624,-3.6473,-3.6314,-3.6075,-3.5949,-3.5822,-3.5611,-3.5287,-3.5175,-3.5147,-3.5091,-3.4894,-3.445,-3.4076,-3.3661,-3.3304,-3.3283,-3.3255,-3.3241,-3.3276,-3.3276,-3.3276,-3.3241,-3.3192,-3.3241,-3.3276,-3.3276,-3.3206,-3.3037,-3.2917,-3.2917,-3.2753,-3.2431,-3.23,-3.2178,-3.2132,-3.1863,-3.1495,-4.3615,-4.3615,-4.3615,-4.3615,-4.3615,-4.3615,-4.3615,-4.3615,-4.3615,-4.3615,-4.3615,-4.3598,-4.3539,-4.3402,-4.3402,-4.3207,-4.293,-4.2916,-4.2775,-4.2634,-4.2602,-4.2602,-4.2602,-4.2602,-4.2602,-4.2602,-4.2602,-4.2602,-4.2602,-4.2602,-4.2602,-4.2571,-4.2349,-4.219,-4.2077,-4.1866,-4.167,-4.1573,-4.1588,-4.1472,-4.1303,-4.1406,-4.1489,-4.1456,-4.1341,-4.114,-4.1057,-4.0752,-4.0443,-3.9793,-3.9292,-3.8575,-3.7901,-3.7327,-3.7056,-3.6978,-3.6978,-3.6978,-3.6978,-3.6978,-3.6978,-3.6978,-3.6978,-3.6978,-3.6978,-3.6978,-3.6978,-3.6978,-3.6978,-3.6978,-3.6978,-3.6978,-3.6978,-3.6936,-3.6922,-3.6894,-3.6866,-3.6824,-3.6768,-3.6697,-3.6595,-3.6553,-3.6416,-3.6402,-3.6103,-3.5695,-3.5611,-3.54,-3.5175,-3.4885,-3.4562,-3.4133,-3.3726,-3.3389,-3.329,-3.3276,-3.3276,-3.3276,-3.3276,-3.3276,-3.3241,-3.3276,-3.3276,-3.3276,-3.3241,-3.3122,-3.3037,-3.2988,-3.2775,-3.2453,-3.2345,-3.2309,-3.2264,-3.2205,-3.1913,-4.3763,-4.3598,-4.3615,-4.3615,-4.3615,-4.3615,-4.3615,-4.3615,-4.3615,-4.3615,-4.3615,-4.3615,-4.3509,-4.3432,-4.3342,-4.3129,-4.2992,-4.2916,-4.2775,-4.2634,-4.2602,-4.2602,-4.2602,-4.2602,-4.2602,-4.2602,-4.2602,-4.2602,-4.2602,-4.2602,-4.2602,-4.2571,-4.2445,-4.2286,-4.2125,-4.198,-4.1784,-4.1654,-4.1588,-4.1637,-4.1621,-4.1654,-4.1768,-4.1801,-4.1801,-4.172,-4.1687,-4.1621,-4.1456,-4.065,-3.9657,-3.8863,-3.815,-3.7544,-3.7134,-3.6978,-3.6978,-3.6978,-3.6978,-3.6978,-3.6978,-3.6978,-3.6978,-3.6978,-3.6978,-3.6978,-3.6978,-3.6978,-3.6978,-3.6978,-3.6978,-3.6978,-3.6978,-3.6978,-3.6978,-3.6978,-3.6978,-3.6978,-3.6978,-3.6978,-3.6964,-3.6936,-3.6922,-3.6922,-3.6697,-3.6342,-3.6075,-3.5836,-3.5597,-3.533,-3.5012,-3.4534,-3.4056,-3.3747,-3.3375,-3.3276,-3.3276,-3.3276,-3.3276,-3.3276,-3.3276,-3.3276,-3.3276,-3.3276,-3.3206,-3.3122,-3.3037,-3.2988,-3.2739,-3.2489,-3.2417,-3.2345,-3.2264,-3.2205,-3.2205,-4.3793,-4.3615,-4.3615,-4.3615,-4.3615,-4.3615,-4.3615,-4.3615,-4.3598,-4.3615,-4.3598,-4.3598,-4.3522,-4.3402,-4.3204,-4.3068,-4.293,-4.2916,-4.2775,-4.2634,-4.2602,-4.2602,-4.2602,-4.2602,-4.2602,-4.2602,-4.2602,-4.2602,-4.2602,-4.2602,-4.2602,-4.2602,-4.2476,-4.2318,-4.2125,-4.1964,-4.185,-4.1736,-4.1687,-4.1687,-4.1898,-4.1947,-4.2029,-4.2125,-4.227,-4.2174,-4.2109,-4.2013,-4.172,-4.099,-3.9945,-3.9218,-3.8539,-3.7857,-3.7313,-3.7095,-3.7095,-3.7056,-3.7095,-3.7095,-3.7095,-3.7056,-3.7056,-3.6978,-3.6978,-3.6978,-3.6978,-3.6978,-3.6978,-3.6978,-3.6978,-3.6978,-3.6978,-3.6978,-3.6978,-3.6978,-3.6978,-3.6978,-3.6978,-3.6978,-3.6978,-3.6964,-3.6964,-3.695,-3.6894,-3.6638,-3.6529,-3.629,-3.6061,-3.578,-3.5442,-3.4913,-3.4379,-3.3859,-3.3403,-3.3304,-3.3276,-3.3276,-3.3276,-3.3276,-3.3276,-3.3276,-3.3276,-3.3276,-3.3276,-3.3241,-3.3157,-3.2988,-3.2846,-3.2632,-3.2489,-3.2381,-3.2264,-3.2205,-3.2205]},{"header":{"parameterUnit":"m.s-1","parameterCategory":1,"la1":31.0,"la2":29.5877,"lo1":-88.7671,"lo2":-86.6584,"dy":0.0162,"dx":0.0185,"nx":115,"ny":88,"refTime":"2023-02-24T06:00:00:Z","depth":0,"parameterNumber":3,"parameterNumberName":"V-component_of_WINDS"},"data":[0.0,0.0,0.0,0.0,0.0,0.0,0.0,0.0,0.0,0.0,0.0,0.0,0.0,0.0,0.0,0.0,0.0,0.0,0.0,0.0,0.0,0.0,0.0,0.0,0.0,0.0,0.0,0.0,0.0,0.0,0.0,0.0,0.0,0.0,0.0,0.0,0.0,0.0,0.0,0.0,0.0,0.0,0.0,0.0,0.0,0.0,0.0,0.0,0.0,0.0,0.0,0.0,0.0,0.0,0.0,0.0,0.0,0.0,0.0,0.0,0.0,0.0,0.0,0.0,0.0,0.0,0.0,0.0,0.0,0.0,0.0,0.0,0.0,0.0,0.0,0.0,0.0,0.0,0.0,0.0,0.0,0.0,0.0,0.0,0.0,0.0,0.0,0.0,0.0,0.0,0.0,0.0,0.0,0.0,0.0,0.0,0.0,0.0,0.0,0.0,0.0,0.0,0.0,0.0,0.0,0.0,0.0,0.0,0.0,0.0,0.0,0.0,0.0,0.0,0.0,0.0,0.0,0.0,0.0,0.0,0.0,0.0,0.0,0.0,0.0,0.0,0.0,0.0,0.0,0.0,0.0,0.0,0.0,0.0,0.0,0.0,0.0,0.0,0.0,0.0,0.0,0.0,0.0,0.0,0.0,0.0,0.0,0.0,0.0,0.0,0.0,0.0,0.0,0.0,0.0,0.0,0.0,0.0,0.0,0.0,0.0,0.0,0.0,0.0,0.0,0.0,0.0,0.0,0.0,0.0,0.0,0.0,0.0,0.0,0.0,0.0,0.0,0.0,0.0,0.0,0.0,0.0,0.0,0.0,0.0,0.0,0.0,0.0,0.0,0.0,0.0,0.0,0.0,0.0,0.0,0.0,0.0,0.0,0.0,0.0,0.0,0.0,0.0,0.0,0.0,0.0,0.0,0.0,0.0,0.0,0.0,0.0,0.0,0.0,0.0,0.0,0.0,0.0,0.0,0.0,0.0,0.0,0.0,0.0,0.0,0.0,0.0,0.0,0.0,0.0,0.0,0.0,0.0,0.0,0.0,0.0,0.0,0.0,0.0,0.0,0.0,0.0,0.0,0.0,0.0,0.0,0.0,0.0,0.0,0.0,0.0,0.0,0.0,0.0,0.0,0.0,0.0,0.0,0.0,0.0,0.0,0.0,0.0,0.0,0.0,0.0,0.0,0.0,0.0,0.0,0.0,0.0,0.0,0.0,0.0,0.0,0.0,0.0,0.0,0.0,0.0,0.0,0.0,0.0,0.0,0.0,0.0,0.0,0.0,0.0,0.0,0.0,0.0,0.0,0.0,0.0,0.0,0.0,0.0,0.0,0.0,0.0,0.0,0.0,0.0,0.0,0.0,0.0,0.0,0.0,0.0,0.0,0.0,0.0,0.0,0.0,0.0,0.0,0.0,0.0,0.0,0.0,0.0,0.0,0.0,0.0,0.0,0.0,0.0,0.0,0.0,0.0,0.0,0.0,0.0,0.0,0.0,0.0,0.0,0.0,0.0,0.0,0.0,0.0,0.0,0.0,0.0,0.0,0.0,0.0,0.0,0.0,0.0,0.0,0.0,0.0,0.0,0.0,0.0,0.0,0.0,0.0,0.0,0.0,0.0,0.0,0.0,0.0,0.0,0.0,0.0,0.0,0.0,0.0,0.0,0.0,0.0,0.0,0.0,0.0,0.0,0.0,0.0,0.0,0.0,0.0,0.0,0.0,0.0,0.0,0.0,0.0,0.0,0.0,0.0,0.0,0.0,0.0,0.0,0.0,0.0,0.0,0.0,0.0,0.0,0.0,0.0,0.0,0.0,0.0,0.0,0.0,0.0,0.0,0.0,0.0,0.0,0.0,0.0,0.0,0.0,0.0,0.0,0.0,0.0,0.0,0.0,0.0,0.0,0.0,0.0,0.0,0.0,0.0,0.0,0.0,0.0,0.0,0.0,0.0,0.0,0.0,0.0,0.0,0.0,0.0,0.0,0.0,0.0,0.0,0.0,0.0,0.0,0.0,0.0,0.0,0.0,0.0,0.0,0.0,0.0,0.0,0.0,0.0,0.0,0.0,0.0,0.0,0.0,0.0,0.0,0.0,0.0,0.0,0.0,0.0,0.0,0.0,0.0,0.0,0.0,0.0,0.0,0.0,0.0,0.0,0.0,0.0,0.0,0.0,0.0,0.0,0.0,0.0,0.0,0.0,0.0,0.0,0.0,0.0,0.0,0.0,0.0,0.0,0.0,0.0,0.0,0.0,0.0,0.0,0.0,0.0,0.0,0.0,0.0,0.0,0.0,0.0,0.0,0.0,0.0,0.0,0.0,0.0,0.0,0.0,0.0,0.0,0.0,0.0,0.0,0.0,0.0,0.0,0.0,0.0,0.0,0.0,0.0,0.0,0.0,0.0,0.0,0.0,0.0,0.0,0.0,0.0,0.0,0.0,0.0,0.0,0.0,0.0,0.0,0.0,0.0,0.0,0.0,0.0,0.0,0.0,0.0,0.0,0.0,0.0,0.0,0.0,0.0,0.0,0.0,0.0,0.0,0.0,0.0,0.0,0.0,0.0,0.0,0.0,0.0,0.0,0.0,0.0,0.0,0.0,0.0,0.0,0.0,0.0,0.0,0.0,0.0,0.0,0.0,0.0,0.0,0.0,0.0,0.0,0.0,0.0,0.0,0.0,0.0,0.0,0.0,0.0,0.0,0.0,0.0,0.0,0.0,0.0,0.0,0.0,0.0,0.0,0.0,0.0,0.0,0.0,0.0,0.0,0.0,0.0,0.0,0.0,0.0,0.0,0.0,0.0,0.0,0.0,0.0,0.0,0.0,0.0,0.0,0.0,0.0,0.0,0.0,0.0,0.0,0.0,0.0,0.0,0.0,0.0,0.0,0.0,0.0,0.0,0.0,0.0,0.0,0.0,0.0,0.0,0.0,0.0,0.0,0.0,0.0,0.0,0.0,0.0,0.0,0.0,0.0,0.0,0.0,0.0,0.0,0.0,0.0,0.0,0.0,0.0,0.0,0.0,0.0,0.0,0.0,0.0,0.0,0.0,0.0,0.0,0.0,0.0,0.0,0.0,0.0,0.0,0.0,0.0,0.0,0.0,0.0,0.0,0.0,0.0,0.0,0.0,0.0,0.0,0.0,0.0,0.0,0.0,0.0,0.0,0.0,0.0,0.0,0.0,0.0,0.0,0.0,0.0,0.0,0.0,0.0,0.0,0.0,0.0,0.0,0.0,0.0,0.0,0.0,0.0,0.0,0.0,0.0,0.0,0.0,0.0,0.0,0.0,0.0,0.0,0.0,0.0,0.0,0.0,0.0,0.0,0.0,0.0,0.0,0.0,0.0,0.0,0.0,0.0,0.0,0.0,0.0,0.0,0.0,0.0,0.0,0.0,0.0,0.0,0.0,0.0,0.0,0.0,0.0,0.0,0.0,0.0,0.0,0.0,0.0,0.0,0.0,0.0,0.0,0.0,0.0,0.0,0.0,0.0,0.0,0.0,0.0,0.0,0.0,0.0,0.0,0.0,0.0,0.0,0.0,0.0,0.0,0.0,0.0,0.0,0.0,0.0,0.0,0.0,0.0,0.0,0.0,0.0,0.0,0.0,0.0,0.0,0.0,0.0,0.0,0.0,0.0,0.0,0.0,0.0,0.0,0.0,0.0,0.0,0.0,0.0,0.0,0.0,0.0,0.0,0.0,0.0,0.0,0.0,0.0,0.0,0.0,0.0,0.0,0.0,0.0,0.0,0.0,0.0,0.0,0.0,0.0,0.0,0.0,0.0,0.0,0.0,0.0,0.0,0.0,0.0,0.0,0.0,0.0,0.0,0.0,0.0,0.0,0.0,0.0,0.0,0.0,0.0,0.0,0.0,0.0,0.0,0.0,0.0,0.0,0.0,0.0,0.0,0.0,0.0,0.0,0.0,0.0,0.0,0.0,0.0,0.0,0.0,0.0,0.0,0.0,0.0,0.0,0.0,0.0,0.0,0.0,0.0,0.0,0.0,0.0,0.0,0.0,0.0,0.0,0.0,0.0,0.0,0.0,0.0,0.0,0.0,0.0,0.0,0.0,0.0,0.0,0.0,0.0,0.0,0.0,0.0,0.0,0.0,0.0,0.0,0.0,0.0,0.0,0.0,0.0,0.0,0.0,0.0,0.0,0.0,0.0,0.0,0.0,0.0,0.0,0.0,0.0,0.0,0.0,0.0,0.0,0.0,0.0,0.0,0.0,0.0,0.0,0.0,0.0,0.0,0.0,0.0,0.0,0.0,0.0,0.0,2.0701,0.0,0.0,0.0,0.0,0.0,0.0,0.0,0.0,0.0,0.0,0.0,0.0,0.0,0.0,0.0,0.0,0.0,0.0,0.0,0.0,0.0,0.0,0.0,0.0,0.0,0.0,0.0,0.0,0.0,0.0,0.0,0.0,0.0,0.0,0.0,0.0,0.0,0.0,0.0,0.0,0.0,0.0,0.0,0.0,0.0,0.0,0.0,0.0,0.0,0.0,0.0,0.0,0.0,0.0,0.0,0.0,0.0,0.0,0.0,0.0,0.0,0.0,0.0,0.0,0.0,0.0,0.0,0.0,0.0,0.0,0.0,0.0,0.0,0.0,0.0,0.0,0.0,0.0,0.0,0.0,0.0,0.0,0.0,0.0,0.0,0.0,0.0,0.0,0.0,0.0,0.0,0.0,0.0,0.0,0.0,0.0,0.0,0.0,0.0,0.0,0.0,0.0,0.0,0.0,0.0,0.0,0.0,0.0,0.0,0.0,2.1042,2.119,2.1201,2.1074,2.083,0.0,0.0,0.0,0.0,0.0,0.0,0.0,0.0,0.0,0.0,0.0,0.0,0.0,0.0,0.0,0.0,0.0,0.0,0.0,0.0,0.0,0.0,0.0,0.0,0.0,0.0,0.0,0.0,0.0,0.0,0.0,0.0,0.0,0.0,0.0,0.0,0.0,0.0,0.0,0.0,0.0,0.0,0.0,0.0,0.0,0.0,0.0,0.0,0.0,0.0,0.0,0.0,0.0,0.0,0.0,0.0,0.0,0.0,0.0,0.0,0.0,0.0,0.0,0.0,0.0,0.0,0.0,0.0,0.0,0.0,0.0,0.0,0.0,0.0,0.0,0.0,0.0,0.0,0.0,0.0,0.0,0.0,0.0,0.0,0.0,0.0,0.0,0.0,0.0,0.0,0.0,0.0,0.0,0.0,0.0,0.0,0.0,0.0,0.0,0.0,0.0,0.0,0.0,0.0,0.0,0.0,0.0,0.0,0.0,0.0,0.0,0.0,2.1201,2.1094,2.0903,0.0,0.0,0.0,0.0,0.0,0.0,0.0,0.0,0.0,0.0,0.0,0.0,0.0,0.0,0.0,0.0,0.0,0.0,0.0,0.0,0.0,0.0,0.0,0.0,0.0,0.0,0.0,0.0,0.0,0.0,0.0,0.0,0.0,0.0,0.0,0.0,0.0,0.0,0.0,0.0,0.0,0.0,0.0,0.0,0.0,0.0,0.0,0.0,0.0,0.0,0.0,0.0,0.0,0.0,0.0,0.0,0.0,0.0,0.0,0.0,0.0,0.0,0.0,0.0,0.0,0.0,0.0,0.0,0.0,0.0,0.0,0.0,0.0,0.0,0.0,0.0,0.0,0.0,0.0,0.0,0.0,0.0,0.0,0.0,0.0,0.0,0.0,0.0,0.0,0.0,0.0,0.0,0.0,0.0,0.0,0.0,0.0,0.0,0.0,0.0,0.0,0.0,0.0,0.0,0.0,0.0,0.0,0.0,0.0,0.0,2.0999,2.1201,2.1201,0.0,2.0903,0.0,0.0,0.0,0.0,0.0,0.0,0.0,0.0,0.0,0.0,0.0,0.0,0.0,0.0,0.0,0.0,0.0,0.0,0.0,0.0,0.0,0.0,0.0,0.0,0.0,0.0,0.0,0.0,0.0,0.0,0.0,0.0,0.0,0.0,0.0,0.0,0.0,0.0,0.0,0.0,0.0,0.0,0.0,0.0,0.0,0.0,0.0,0.0,0.0,0.0,0.0,0.0,0.0,0.0,0.0,0.0,0.0,0.0,0.0,0.0,0.0,0.0,0.0,0.0,0.0,0.0,0.0,0.0,0.0,0.0,0.0,0.0,0.0,0.0,0.0,0.0,0.0,0.0,0.0,0.0,0.0,0.0,0.0,0.0,0.0,0.0,0.0,0.0,0.0,0.0,0.0,0.0,0.0,0.0,0.0,0.0,0.0,0.0,0.0,0.0,0.0,0.0,0.0,0.0,0.0,0.0,0.0,0.0,0.0,0.0,2.1126,2.1201,2.1201,2.1158,0.0,0.0,0.0,0.0,0.0,0.0,0.0,0.0,0.0,0.0,0.0,0.0,0.0,0.0,0.0,0.0,0.0,0.0,0.0,0.0,0.0,0.0,0.0,0.0,0.0,0.0,0.0,0.0,0.0,0.0,0.0,0.0,0.0,0.0,0.0,0.0,0.0,0.0,0.0,0.0,0.0,0.0,0.0,0.0,0.0,0.0,0.0,0.0,0.0,0.0,0.0,0.0,0.0,0.0,0.0,0.0,0.0,0.0,0.0,0.0,0.0,0.0,0.0,0.0,0.0,0.0,0.0,0.0,0.0,0.0,0.0,0.0,0.0,0.0,0.0,0.0,0.0,0.0,0.0,0.0,0.0,0.0,0.0,0.0,0.0,0.0,0.0,0.0,0.0,0.0,0.0,0.0,0.0,0.0,0.0,0.0,0.0,0.0,0.0,0.0,0.0,0.0,0.0,0.0,0.0,0.0,0.0,0.0,0.0,0.0,2.1253,2.1285,2.1328,2.1328,2.134,2.1328,0.0,0.0,0.0,0.0,0.0,0.0,0.0,0.0,0.0,0.0,0.0,0.0,0.0,0.0,0.0,0.0,0.0,0.0,0.0,0.0,0.0,0.0,0.0,0.0,0.0,0.0,0.0,0.0,0.0,0.0,0.0,0.0,0.0,0.0,0.0,0.0,0.0,0.0,0.0,0.0,0.0,0.0,0.0,0.0,0.0,0.0,0.0,0.0,0.0,0.0,0.0,0.0,0.0,0.0,0.0,0.0,0.0,0.0,0.0,0.0,0.0,0.0,0.0,0.0,0.0,0.0,0.0,0.0,0.0,0.0,0.0,0.0,0.0,0.0,0.0,0.0,0.0,0.0,0.0,0.0,0.0,0.0,0.0,0.0,0.0,0.0,0.0,0.0,0.0,0.0,0.0,0.0,0.0,0.0,0.0,0.0,0.0,0.0,0.0,0.0,0.0,0.0,0.0,0.0,0.0,0.0,0.0,0.0,2.1221,2.1348,2.1474,2.1667,2.1667,2.1667,0.0,0.0,0.0,0.0,0.0,0.0,0.0,0.0,0.0,0.0,0.0,0.0,0.0,0.0,0.0,0.0,0.0,0.0,0.0,0.0,0.0,0.0,0.0,0.0,0.0,0.0,0.0,0.0,0.0,0.0,0.0,0.0,0.0,0.0,0.0,0.0,0.0,0.0,0.0,0.0,0.0,0.0,0.0,0.0,0.0,0.0,0.0,0.0,0.0,0.0,0.0,0.0,0.0,0.0,0.0,0.0,0.0,0.0,0.0,0.0,0.0,0.0,0.0,0.0,0.0,0.0,0.0,0.0,0.0,0.0,0.0,0.0,0.0,0.0,0.0,0.0,0.0,0.0,0.0,0.0,0.0,0.0,0.0,0.0,0.0,0.0,0.0,0.0,0.0,0.0,0.0,0.0,0.0,0.0,0.0,0.0,0.0,0.0,0.0,0.0,0.0,0.0,0.0,0.0,0.0,0.0,0.0,0.0,0.0,2.1201,2.1253,2.1316,2.136,2.1454,2.158,0.0,0.0,0.0,0.0,0.0,0.0,0.0,0.0,0.0,0.0,0.0,0.0,0.0,0.0,0.0,0.0,0.0,0.0,0.0,0.0,0.0,0.0,0.0,0.0,0.0,0.0,0.0,0.0,0.0,0.0,0.0,0.0,0.0,0.0,0.0,0.0,0.0,0.0,0.0,0.0,0.0,0.0,0.0,0.0,0.0,0.0,0.0,0.0,0.0,0.0,0.0,0.0,0.0,0.0,0.0,0.0,0.0,0.0,0.0,0.0,0.0,0.0,0.0,0.0,0.0,0.0,0.0,0.0,0.0,0.0,0.0,0.0,0.0,0.0,0.0,0.0,0.0,0.0,0.0,0.0,0.0,0.0,0.0,0.0,0.0,0.0,0.0,0.0,0.0,0.0,0.0,0.0,0.0,0.0,0.0,0.0,0.0,0.0,0.0,0.0,0.0,0.0,0.0,0.0,0.0,0.0,0.0,0.0,0.0,2.1253,0.0,2.1285,0.0,2.1454,2.158,0.0,0.0,0.0,0.0,0.0,0.0,0.0,0.0,0.0,0.0,0.0,0.0,0.0,0.0,0.0,0.0,0.0,0.0,0.0,0.0,0.0,0.0,0.0,0.0,0.0,0.0,0.0,0.0,0.0,0.0,0.0,0.0,0.0,0.0,0.0,0.0,0.0,0.0,0.0,0.0,0.0,0.0,0.0,0.0,0.0,0.0,0.0,0.0,0.0,0.0,0.0,0.0,0.0,0.0,0.0,0.0,0.0,0.0,0.0,0.0,0.0,0.0,0.0,0.0,0.0,0.0,0.0,0.0,0.0,0.0,0.0,0.0,0.0,0.0,0.0,0.0,0.0,0.0,0.0,0.0,0.0,0.0,0.0,0.0,0.0,0.0,0.0,0.0,0.0,0.0,0.0,0.0,0.0,0.0,0.0,0.0,0.0,0.0,0.0,0.0,0.0,0.0,0.0,0.0,0.0,0.0,0.0,0.0,2.1253,2.1388,2.1388,2.1474,2.1667,2.1667,2.1749,0.0,0.0,0.0,0.0,0.0,0.0,0.0,0.0,0.0,0.0,0.0,0.0,0.0,0.0,0.0,0.0,0.0,0.0,0.0,0.0,0.0,0.0,0.0,0.0,0.0,0.0,0.0,0.0,0.0,0.0,0.0,0.0,0.0,0.0,0.0,0.0,0.0,0.0,0.0,0.0,0.0,0.0,0.0,0.0,0.0,0.0,0.0,0.0,0.0,0.0,0.0,0.0,0.0,0.0,0.0,0.0,0.0,0.0,0.0,0.0,0.0,0.0,0.0,0.0,0.0,0.0,0.0,0.0,0.0,0.0,0.0,0.0,0.0,0.0,0.0,0.0,0.0,0.0,0.0,0.0,0.0,0.0,0.0,0.0,0.0,0.0,0.0,0.0,0.0,0.0,0.0,0.0,0.0,0.0,0.0,0.0,0.0,0.0,0.0,0.0,0.0,0.0,0.0,0.0,0.0,0.0,0.0,0.0,0.0,2.1253,2.1253,2.1285,2.136,2.1443,2.1569,0.0,0.0,0.0,0.0,0.0,0.0,0.0,0.0,0.0,0.0,0.0,0.0,0.0,0.0,0.0,0.0,0.0,0.0,0.0,0.0,0.0,0.0,0.0,0.0,0.0,0.0,0.0,0.0,0.0,0.0,0.0,0.0,0.0,0.0,0.0,0.0,0.0,0.0,0.0,0.0,0.0,0.0,0.0,0.0,0.0,0.0,0.0,0.0,0.0,0.0,0.0,0.0,0.0,0.0,0.0,0.0,0.0,0.0,0.0,0.0,0.0,0.0,0.0,0.0,0.0,0.0,0.0,0.0,0.0,0.0,0.0,0.0,0.0,0.0,0.0,0.0,0.0,0.0,0.0,0.0,0.0,0.0,0.0,0.0,0.0,0.0,0.0,0.0,0.0,0.0,0.0,0.0,0.0,0.0,0.0,0.0,0.0,0.0,0.0,0.0,0.0,0.0,0.0,0.0,0.0,0.0,0.0,0.0,0.0,2.1549,2.1316,2.1253,2.138,2.1336,2.1454,2.1698,0.0,0.0,0.0,0.0,0.0,0.0,0.0,0.0,0.0,0.0,0.0,0.0,0.0,0.0,0.0,0.0,0.0,0.0,0.0,0.0,0.0,0.0,0.0,0.0,0.0,0.0,0.0,0.0,0.0,0.0,0.0,0.0,0.0,0.0,0.0,0.0,0.0,0.0,0.0,0.0,0.0,0.0,0.0,0.0,0.0,0.0,0.0,0.0,0.0,0.0,0.0,0.0,0.0,0.0,0.0,0.0,0.0,0.0,0.0,0.0,0.0,0.0,0.0,0.0,0.0,0.0,0.0,0.0,0.0,0.0,0.0,0.0,0.0,0.0,0.0,0.0,0.0,0.0,0.0,0.0,0.0,0.0,0.0,0.0,0.0,0.0,0.0,0.0,0.0,0.0,0.0,0.0,0.0,0.0,0.0,0.0,0.0,0.0,0.0,0.0,0.0,0.0,0.0,0.0,0.0,0.0,0.0,0.0,2.2197,2.158,2.138,2.1726,2.1411,2.1391,0.0,0.0,0.0,0.0,0.0,0.0,0.0,0.0,0.0,0.0,0.0,0.0,0.0,0.0,0.0,0.0,0.0,0.0,0.0,0.0,0.0,0.0,0.0,0.0,0.0,0.0,0.0,0.0,0.0,0.0,0.0,0.0,0.0,0.0,0.0,0.0,0.0,0.0,0.0,0.0,0.0,0.0,0.0,0.0,0.0,0.0,0.0,0.0,0.0,0.0,0.0,0.0,0.0,0.0,0.0,0.0,0.0,0.0,0.0,0.0,0.0,0.0,0.0,0.0,0.0,0.0,0.0,0.0,0.0,0.0,0.0,0.0,0.0,0.0,0.0,0.0,0.0,0.0,0.0,0.0,0.0,0.0,0.0,0.0,0.0,0.0,0.0,0.0,0.0,0.0,0.0,0.0,0.0,0.0,0.0,0.0,0.0,0.0,0.0,0.0,0.0,0.0,0.0,0.0,0.0,0.0,0.0,0.0,0.0,2.2154,2.18,2.1726,2.2061,2.1831,2.1843,0.0,0.0,0.0,0.0,0.0,0.0,0.0,0.0,0.0,0.0,0.0,0.0,0.0,0.0,0.0,0.0,0.0,0.0,0.0,0.0,0.0,0.0,0.0,0.0,0.0,0.0,0.0,0.0,0.0,0.0,0.0,0.0,0.0,0.0,0.0,0.0,0.0,0.0,0.0,0.0,0.0,0.0,0.0,0.0,0.0,0.0,0.0,0.0,0.0,0.0,0.0,0.0,0.0,0.0,0.0,0.0,0.0,0.0,0.0,0.0,0.0,0.0,0.0,0.0,0.0,0.0,0.0,0.0,0.0,0.0,0.0,0.0,0.0,0.0,0.0,0.0,0.0,0.0,0.0,0.0,0.0,0.0,0.0,0.0,0.0,0.0,0.0,0.0,0.0,0.0,0.0,0.0,0.0,0.0,0.0,0.0,0.0,0.0,0.0,0.0,0.0,0.0,0.0,0.0,0.0,0.0,0.0,0.0,2.1812,2.2414,2.2235,2.2223,2.2494,2.2111,2.1999,0.0,0.0,0.0,0.0,0.0,0.0,0.0,0.0,0.0,0.0,0.0,0.0,0.0,0.0,0.0,0.0,0.0,0.0,0.0,0.0,0.0,0.0,0.0,0.0,0.0,0.0,0.0,0.0,0.0,0.0,0.0,0.0,0.0,0.0,0.0,0.0,0.0,0.0,0.0,0.0,0.0,0.0,0.0,0.0,0.0,0.0,0.0,0.0,0.0,0.0,0.0,0.0,0.0,0.0,0.0,0.0,0.0,0.0,0.0,0.0,0.0,0.0,0.0,0.0,0.0,0.0,0.0,0.0,0.0,0.0,0.0,0.0,0.0,0.0,0.0,0.0,0.0,0.0,0.0,0.0,0.0,0.0,0.0,0.0,0.0,0.0,0.0,0.0,0.0,0.0,0.0,0.0,0.0,0.0,0.0,0.0,0.0,0.0,0.0,0.0,0.0,0.0,0.0,0.0,0.0,0.0,0.0,0.0,2.2123,2.2629,2.2647,2.2739,2.2878,2.2297,2.2061,0.0,0.0,0.0,0.0,0.0,0.0,0.0,0.0,0.0,0.0,0.0,0.0,0.0,0.0,0.0,0.0,0.0,0.0,0.0,0.0,0.0,0.0,0.0,0.0,0.0,0.0,0.0,0.0,0.0,0.0,0.0,0.0,0.0,0.0,0.0,0.0,0.0,0.0,0.0,0.0,0.0,0.0,0.0,0.0,0.0,0.0,0.0,0.0,0.0,0.0,0.0,0.0,0.0,0.0,0.0,0.0,0.0,0.0,0.0,0.0,0.0,0.0,0.0,0.0,0.0,0.0,0.0,0.0,0.0,0.0,0.0,0.0,0.0,0.0,0.0,0.0,0.0,0.0,0.0,0.0,0.0,0.0,0.0,0.0,0.0,0.0,0.0,0.0,0.0,0.0,0.0,0.0,0.0,0.0,0.0,0.0,0.0,0.0,0.0,0.0,0.0,0.0,0.0,0.0,0.0,0.0,0.0,0.0,2.1949,2.2278,2.229,2.2494,2.2878,2.2647,2.2555,0.0,0.0,0.0,0.0,0.0,0.0,0.0,0.0,0.0,0.0,0.0,0.0,0.0,0.0,0.0,0.0,0.0,0.0,0.0,0.0,0.0,0.0,0.0,0.0,0.0,0.0,0.0,0.0,0.0,0.0,0.0,0.0,0.0,0.0,0.0,0.0,0.0,0.0,0.0,0.0,0.0,0.0,0.0,0.0,0.0,0.0,0.0,0.0,2.6418,0.0,0.0,0.0,0.0,0.0,0.0,0.0,0.0,0.0,0.0,0.0,0.0,0.0,0.0,0.0,0.0,0.0,0.0,0.0,0.0,0.0,0.0,0.0,0.0,0.0,0.0,0.0,0.0,0.0,0.0,0.0,0.0,0.0,0.0,0.0,0.0,0.0,0.0,0.0,0.0,0.0,0.0,0.0,0.0,0.0,0.0,0.0,0.0,0.0,0.0,0.0,0.0,0.0,0.0,0.0,0.0,0.0,0.0,0.0,2.1937,2.2197,2.2197,2.2414,2.2769,2.2739,2.2739,0.0,0.0,0.0,0.0,0.0,0.0,0.0,0.0,0.0,0.0,0.0,0.0,0.0,0.0,0.0,0.0,0.0,0.0,0.0,0.0,0.0,0.0,0.0,0.0,0.0,0.0,0.0,0.0,0.0,0.0,0.0,0.0,0.0,0.0,0.0,0.0,0.0,0.0,0.0,0.0,0.0,0.0,0.0,0.0,0.0,0.0,0.0,0.0,0.0,0.0,0.0,0.0,0.0,0.0,0.0,0.0,0.0,0.0,0.0,0.0,0.0,0.0,0.0,0.0,0.0,0.0,0.0,0.0,0.0,0.0,0.0,0.0,0.0,0.0,0.0,0.0,0.0,0.0,0.0,0.0,0.0,0.0,0.0,0.0,0.0,0.0,0.0,0.0,0.0,0.0,0.0,0.0,0.0,0.0,0.0,0.0,0.0,0.0,0.0,0.0,0.0,0.0,0.0,0.0,0.0,0.0,0.0,2.2061,2.2061,2.2216,2.2216,2.2402,2.272,2.2708,2.2769,2.2878,0.0,0.0,0.0,0.0,0.0,0.0,0.0,0.0,0.0,0.0,0.0,0.0,0.0,0.0,0.0,0.0,0.0,0.0,0.0,0.0,0.0,0.0,0.0,0.0,0.0,0.0,0.0,0.0,0.0,0.0,0.0,0.0,0.0,0.0,0.0,0.0,0.0,0.0,2.5536,2.5771,0.0,0.0,0.0,0.0,0.0,0.0,0.0,0.0,2.6963,0.0,0.0,0.0,0.0,0.0,0.0,0.0,0.0,0.0,0.0,0.0,0.0,0.0,0.0,0.0,0.0,0.0,0.0,0.0,0.0,0.0,0.0,0.0,0.0,0.0,0.0,0.0,0.0,0.0,0.0,0.0,0.0,0.0,0.0,0.0,0.0,0.0,0.0,0.0,0.0,0.0,0.0,0.0,0.0,0.0,0.0,0.0,0.0,0.0,0.0,0.0,0.0,0.0,0.0,0.0,0.0,2.2197,2.2266,2.2328,2.2359,2.2389,2.2512,2.2848,2.286,2.2878,2.2878,0.0,0.0,0.0,0.0,0.0,0.0,0.0,0.0,0.0,0.0,0.0,0.0,0.0,0.0,0.0,0.0,0.0,0.0,0.0,0.0,0.0,0.0,0.0,0.0,0.0,0.0,0.0,0.0,0.0,0.0,0.0,0.0,0.0,0.0,0.0,0.0,0.0,0.0,0.0,2.5975,2.6152,0.0,0.0,0.0,0.0,0.0,0.0,0.0,0.0,2.7335,0.0,0.0,0.0,0.0,0.0,0.0,0.0,0.0,0.0,0.0,0.0,0.0,0.0,0.0,0.0,0.0,0.0,0.0,0.0,0.0,0.0,0.0,0.0,0.0,0.0,0.0,0.0,0.0,0.0,0.0,0.0,0.0,0.0,0.0,0.0,0.0,0.0,0.0,0.0,0.0,0.0,0.0,0.0,0.0,0.0,0.0,0.0,0.0,0.0,0.0,0.0,0.0,0.0,0.0,0.0,2.2445,2.2371,2.2309,2.2278,2.2309,2.2402,2.2635,2.2739,2.2726,0.0,0.0,0.0,0.0,0.0,0.0,0.0,0.0,0.0,0.0,0.0,0.0,0.0,0.0,0.0,0.0,0.0,0.0,0.0,0.0,0.0,0.0,0.0,0.0,0.0,0.0,0.0,0.0,0.0,0.0,0.0,0.0,0.0,0.0,0.0,0.0,0.0,0.0,0.0,0.0,2.6218,2.6313,2.6621,0.0,0.0,0.0,0.0,0.0,0.0,2.7437,2.7478,0.0,0.0,0.0,0.0,0.0,0.0,0.0,0.0,0.0,0.0,0.0,0.0,0.0,0.0,0.0,0.0,0.0,0.0,0.0,0.0,0.0,0.0,0.0,0.0,0.0,0.0,0.0,0.0,0.0,0.0,0.0,0.0,0.0,0.0,0.0,0.0,0.0,0.0,0.0,0.0,0.0,0.0,0.0,0.0,0.0,0.0,0.0,0.0,0.0,0.0,0.0,0.0,0.0,0.0,0.0,2.2525,2.2352,2.2247,2.2216,2.2247,2.2309,2.2451,2.2635,2.2647,0.0,0.0,0.0,0.0,0.0,0.0,0.0,0.0,0.0,0.0,0.0,0.0,0.0,0.0,0.0,0.0,0.0,0.0,0.0,0.0,0.0,0.0,0.0,0.0,0.0,0.0,0.0,0.0,0.0,0.0,0.0,0.0,0.0,0.0,0.0,0.0,0.0,0.0,0.0,0.0,0.0,2.65,2.6884,2.6738,0.0,0.0,0.0,0.0,2.7665,2.7615,0.0,0.0,0.0,0.0,0.0,0.0,0.0,0.0,0.0,0.0,0.0,0.0,0.0,0.0,0.0,0.0,0.0,0.0,0.0,0.0,0.0,0.0,0.0,0.0,0.0,0.0,0.0,0.0,0.0,0.0,0.0,0.0,0.0,0.0,0.0,0.0,0.0,0.0,0.0,0.0,0.0,0.0,0.0,0.0,0.0,0.0,0.0,0.0,0.0,0.0,0.0,0.0,0.0,0.0,0.0,0.0,2.2018,2.2235,2.2359,2.2359,2.2359,2.2463,2.2647,2.2787,2.2787,0.0,0.0,0.0,0.0,0.0,0.0,0.0,0.0,0.0,0.0,0.0,0.0,0.0,0.0,0.0,0.0,0.0,0.0,0.0,0.0,0.0,0.0,0.0,0.0,0.0,0.0,0.0,0.0,0.0,0.0,0.0,0.0,0.0,0.0,0.0,0.0,0.0,0.0,0.0,0.0,0.0,2.6551,2.6806,2.6779,2.6843,0.0,0.0,0.0,2.792,2.8054,0.0,0.0,0.0,0.0,0.0,0.0,0.0,0.0,0.0,0.0,0.0,0.0,0.0,0.0,0.0,0.0,0.0,0.0,0.0,0.0,0.0,0.0,0.0,0.0,0.0,0.0,0.0,0.0,0.0,0.0,0.0,0.0,0.0,0.0,0.0,0.0,0.0,0.0,0.0,0.0,0.0,0.0,0.0,0.0,0.0,0.0,0.0,0.0,0.0,0.0,0.0,0.0,0.0,0.0,0.0,2.2628,2.2638,2.2693,2.2902,2.3148,2.2914,2.2756,2.2894,2.2819,2.2769,0.0,0.0,0.0,0.0,0.0,0.0,0.0,0.0,0.0,0.0,0.0,0.0,0.0,0.0,0.0,0.0,0.0,0.0,0.0,0.0,0.0,0.0,0.0,0.0,0.0,0.0,0.0,0.0,0.0,0.0,0.0,0.0,0.0,0.0,0.0,0.0,0.0,0.0,0.0,0.0,0.0,0.0,2.6794,2.6922,0.0,0.0,0.0,2.8596,2.9144,0.0,0.0,0.0,0.0,0.0,0.0,0.0,0.0,0.0,0.0,0.0,0.0,0.0,0.0,0.0,0.0,0.0,0.0,0.0,0.0,0.0,0.0,0.0,0.0,0.0,0.0,0.0,0.0,0.0,0.0,0.0,0.0,0.0,0.0,0.0,0.0,0.0,0.0,0.0,0.0,0.0,0.0,0.0,0.0,0.0,0.0,0.0,0.0,0.0,0.0,0.0,0.0,0.0,0.0,0.0,0.0,0.0,2.3341,2.3236,2.3408,2.377,2.3421,2.3183,2.3204,2.3072,0.0,0.0,0.0,0.0,0.0,0.0,0.0,0.0,0.0,0.0,0.0,0.0,0.0,0.0,0.0,0.0,0.0,0.0,0.0,0.0,0.0,0.0,0.0,0.0,0.0,0.0,0.0,2.5839,0.0,0.0,0.0,0.0,0.0,0.0,0.0,0.0,0.0,0.0,0.0,0.0,0.0,0.0,2.7144,2.7144,2.7486,2.7961,0.0,0.0,2.9412,3.0033,3.0136,3.0162,0.0,0.0,0.0,0.0,0.0,0.0,0.0,0.0,0.0,0.0,0.0,0.0,0.0,0.0,0.0,0.0,0.0,0.0,0.0,0.0,0.0,0.0,0.0,0.0,0.0,0.0,0.0,0.0,0.0,0.0,0.0,0.0,0.0,0.0,0.0,0.0,0.0,0.0,0.0,0.0,0.0,0.0,0.0,0.0,0.0,0.0,0.0,0.0,0.0,0.0,0.0,0.0,0.0,0.0,0.0,2.3746,2.3746,2.377,2.3806,2.377,2.3758,2.3758,2.3874,2.4043,0.0,0.0,0.0,0.0,0.0,0.0,0.0,0.0,0.0,0.0,0.0,0.0,0.0,0.0,0.0,0.0,0.0,0.0,0.0,0.0,0.0,0.0,0.0,0.0,0.0,0.0,0.0,0.0,0.0,0.0,0.0,0.0,0.0,0.0,0.0,0.0,0.0,0.0,0.0,0.0,0.0,2.8107,2.8107,2.8773,2.9295,0.0,0.0,2.98,2.9993,3.0035,3.0061,3.0204,0.0,0.0,0.0,0.0,0.0,0.0,0.0,0.0,0.0,0.0,0.0,0.0,0.0,0.0,0.0,0.0,0.0,0.0,0.0,0.0,0.0,0.0,0.0,0.0,0.0,0.0,0.0,0.0,0.0,0.0,0.0,0.0,0.0,0.0,0.0,0.0,0.0,0.0,0.0,0.0,0.0,0.0,0.0,0.0,0.0,0.0,0.0,0.0,0.0,0.0,0.0,0.0,0.0,2.4017,2.423,2.423,2.4386,2.4721,2.466,2.4591,2.4591,2.4657,2.4763,0.0,0.0,0.0,0.0,0.0,0.0,0.0,0.0,0.0,0.0,0.0,0.0,0.0,0.0,0.0,0.0,0.0,0.0,0.0,0.0,0.0,0.0,0.0,0.0,0.0,0.0,0.0,0.0,2.6527,2.6513,2.6659,0.0,0.0,0.0,0.0,0.0,0.0,0.0,0.0,0.0,0.0,2.8729,2.8771,2.9169,0.0,0.0,3.0383,3.0573,3.0723,3.1085,3.1247,3.101,3.1271,0.0,0.0,0.0,0.0,0.0,0.0,0.0,0.0,0.0,0.0,0.0,0.0,0.0,0.0,0.0,0.0,0.0,0.0,0.0,0.0,0.0,0.0,0.0,0.0,0.0,0.0,0.0,0.0,0.0,0.0,0.0,0.0,0.0,0.0,0.0,0.0,0.0,0.0,0.0,0.0,0.0,0.0,0.0,0.0,0.0,0.0,0.0,0.0,0.0,0.0,0.0,0.0,2.4512,2.4828,2.4931,2.5182,2.5581,2.5529,2.5503,2.549,2.5485,2.5547,0.0,0.0,0.0,0.0,0.0,0.0,0.0,0.0,0.0,0.0,0.0,0.0,0.0,0.0,0.0,0.0,0.0,0.0,0.0,0.0,0.0,0.0,0.0,0.0,0.0,0.0,0.0,0.0,2.7268,2.7059,2.7055,0.0,0.0,0.0,0.0,0.0,0.0,0.0,0.0,0.0,0.0,2.9516,2.9599,2.9971,3.0436,3.0945,3.1215,3.1366,3.1448,3.1857,3.205,3.1646,0.0,0.0,0.0,0.0,0.0,0.0,0.0,0.0,0.0,0.0,0.0,0.0,0.0,0.0,0.0,0.0,0.0,0.0,0.0,0.0,0.0,0.0,0.0,0.0,0.0,0.0,0.0,0.0,0.0,0.0,2.5241,0.0,0.0,0.0,0.0,0.0,0.0,0.0,0.0,0.0,0.0,0.0,0.0,0.0,0.0,0.0,0.0,0.0,0.0,0.0,0.0,0.0,0.0,0.0,2.5581,2.5918,2.6139,2.6164,2.6311,2.6355,2.6343,2.6377,2.6548,2.6896,0.0,0.0,0.0,0.0,0.0,0.0,0.0,0.0,0.0,0.0,0.0,0.0,0.0,0.0,0.0,0.0,0.0,0.0,0.0,0.0,0.0,0.0,0.0,0.0,0.0,0.0,2.8789,2.8562,2.8152,0.0,0.0,0.0,0.0,0.0,0.0,0.0,0.0,0.0,0.0,3.002,3.0563,3.0729,3.1427,3.1877,3.1951,3.2064,3.2104,3.1977,3.2092,3.2135,0.0,0.0,0.0,0.0,0.0,0.0,0.0,0.0,0.0,0.0,0.0,0.0,0.0,0.0,0.0,0.0,0.0,0.0,0.0,0.0,0.0,0.0,0.0,0.0,0.0,0.0,0.0,2.4506,2.4885,0.0,0.0,0.0,0.0,0.0,0.0,0.0,0.0,0.0,0.0,0.0,2.4885,2.4885,0.0,0.0,0.0,0.0,0.0,0.0,0.0,0.0,0.0,0.0,0.0,0.0,2.5688,2.5793,2.5933,2.6002,2.6002,2.6255,2.6461,2.6611,2.6837,2.7053,2.7188,0.0,0.0,0.0,0.0,0.0,0.0,0.0,0.0,0.0,0.0,0.0,0.0,0.0,0.0,0.0,0.0,0.0,0.0,0.0,0.0,0.0,0.0,0.0,0.0,0.0,2.9302,0.0,0.0,0.0,0.0,0.0,0.0,0.0,0.0,0.0,0.0,0.0,3.0123,3.0138,3.0733,3.1252,3.1453,3.169,3.1912,0.0,0.0,0.0,0.0,0.0,0.0,0.0,0.0,0.0,0.0,0.0,0.0,0.0,0.0,3.3607,3.3991,3.4,3.4016,3.4151,0.0,0.0,0.0,0.0,0.0,0.0,0.0,0.0,0.0,0.0,0.0,0.0,0.0,0.0,0.0,0.0,2.4992,0.0,0.0,0.0,0.0,0.0,0.0,0.0,0.0,2.5159,2.5087,2.5253,2.5253,2.5253,0.0,2.5347,2.5558,0.0,0.0,0.0,0.0,0.0,0.0,0.0,0.0,2.5875,2.6015,2.6119,2.6176,2.6176,2.6474,2.6679,2.6794,2.7146,2.7302,2.7369,2.7456,2.7403,0.0,0.0,0.0,0.0,0.0,0.0,0.0,0.0,0.0,0.0,0.0,0.0,0.0,0.0,0.0,0.0,0.0,0.0,0.0,0.0,0.0,0.0,0.0,3.0088,0.0,0.0,0.0,0.0,0.0,0.0,0.0,0.0,0.0,2.9573,3.0229,3.0781,3.0781,3.1255,3.1655,3.1841,0.0,0.0,0.0,0.0,0.0,0.0,0.0,3.2478,3.1963,3.2435,3.2951,3.3085,3.3203,3.3372,3.3642,0.0,0.0,3.3899,3.3924,3.3965,3.4126,3.4126,3.4201,3.4448,3.4521,3.4611,0.0,0.0,0.0,0.0,0.0,0.0,0.0,0.0,2.4718,2.479,0.0,2.5324,0.0,0.0,0.0,0.0,0.0,0.0,0.0,0.0,2.5371,2.5288,2.6092,2.6092,2.6286,2.671,2.6824,2.6939,2.6905,2.5709,0.0,0.0,0.0,0.0,0.0,0.0,2.6236,2.627,2.6555,2.6726,2.6714,2.6909,2.7011,2.7058,2.7248,2.7403,2.7536,2.7556,2.757,2.7523,2.7914,0.0,0.0,0.0,0.0,0.0,0.0,0.0,0.0,0.0,0.0,0.0,0.0,0.0,0.0,0.0,0.0,0.0,0.0,0.0,0.0,3.0895,0.0,0.0,0.0,0.0,0.0,0.0,0.0,0.0,0.0,0.0,2.9466,3.0504,3.1322,3.1307,0.0,0.0,0.0,0.0,3.2274,3.2398,3.2523,3.2578,3.241,3.2796,3.2947,3.2465,0.0,0.0,3.3096,3.3229,3.3424,3.3684,3.3633,3.3555,3.3694,3.3813,3.3949,3.4201,3.4325,3.4546,3.4787,3.4787,3.4811,2.4381,0.0,0.0,0.0,0.0,2.4682,2.4718,2.4718,2.4754,2.4838,2.4957,2.543,0.0,0.0,0.0,0.0,0.0,0.0,2.6173,2.6607,2.6311,2.623,2.6308,2.6299,2.638,2.6483,2.6552,2.6735,2.696,2.662,2.6311,2.6117,0.0,0.0,0.0,0.0,2.6897,2.7134,2.7222,2.7255,2.7255,2.7323,2.7469,2.7723,2.7908,2.8118,2.8281,2.8295,2.8295,2.8295,2.8392,0.0,0.0,0.0,0.0,0.0,0.0,0.0,0.0,0.0,0.0,0.0,0.0,0.0,0.0,0.0,0.0,0.0,0.0,0.0,3.0925,3.0925,3.0852,0.0,0.0,0.0,0.0,0.0,0.0,0.0,0.0,0.0,3.0244,3.0901,3.1511,0.0,0.0,3.187,3.2137,3.2342,3.2508,3.2535,0.0,0.0,0.0,3.2866,3.2962,3.2605,3.3,3.3346,3.3388,3.3658,3.3899,3.3975,3.3949,3.3949,3.3949,3.3771,3.3658,3.372,3.3822,3.3991,3.4151,3.4325,3.4586,2.4683,2.4527,2.4634,2.4682,2.4682,2.4682,2.4718,2.4801,2.4849,2.4933,2.504,2.5734,2.6151,2.6311,2.6324,0.0,0.0,0.0,2.6778,2.7229,2.696,2.6913,2.7035,2.7061,2.7142,2.7263,2.7276,2.7397,2.7643,2.7643,2.7443,2.7074,0.0,0.0,2.6918,2.7108,2.7276,2.749,2.7503,2.7503,2.7503,2.759,2.7756,2.8006,2.8189,2.8398,2.8587,2.8587,2.8587,2.8587,2.8716,2.8812,0.0,0.0,0.0,0.0,0.0,0.0,0.0,0.0,0.0,0.0,0.0,2.9634,0.0,0.0,0.0,0.0,3.0672,3.0747,3.0895,3.0791,0.0,0.0,0.0,0.0,0.0,0.0,0.0,3.0814,3.1183,3.1402,3.114,3.1384,3.1641,3.1683,3.1912,3.2081,3.2191,0.0,3.2796,3.2784,3.3134,3.3282,3.2931,3.3134,3.3282,3.3065,3.333,3.3581,3.3581,3.3813,3.3949,3.4,3.4025,3.4025,3.4075,3.3899,3.3771,3.3873,3.3949,3.4075,3.425,3.4407,3.4594,2.529,2.5064,2.4776,2.4597,2.4562,2.4562,2.4706,2.4933,2.5064,2.5123,2.5217,2.6289,2.6564,2.6264,2.6824,0.0,2.7776,2.7129,2.7297,2.8112,2.7456,2.749,2.8145,2.8145,2.8308,2.8587,2.8587,2.8587,2.8587,2.8587,2.8438,2.8158,2.7769,2.749,2.7263,2.7477,2.759,2.7556,2.7603,2.759,2.759,2.7789,2.7908,2.8072,2.8268,2.8463,2.8651,2.8651,2.8683,2.8683,2.8972,2.9131,2.9131,0.0,0.0,0.0,0.0,0.0,0.0,0.0,0.0,0.0,0.0,0.0,0.0,0.0,0.0,0.0,3.0612,0.0,3.0612,3.0612,0.0,0.0,0.0,3.0628,3.0762,3.0821,3.1014,3.1437,0.0,0.0,3.2025,0.0,3.1783,3.1623,3.2048,3.2342,3.229,3.2773,3.3123,3.3069,3.3361,3.3477,3.3309,3.345,3.3591,3.3581,3.3694,3.372,3.372,3.3771,3.3822,3.3975,3.3958,3.4025,3.4151,3.4159,3.425,3.4472,3.4497,3.4546,3.4739,3.4828,3.4875,2.6217,2.5958,2.5801,2.5469,2.5147,2.5288,2.5523,2.5779,2.5988,2.623,2.6552,2.7074,2.7255,2.7209,2.7669,2.7914,2.8,2.7835,2.8033,2.8471,2.8295,2.8341,2.849,2.8503,2.8522,2.8587,2.8587,2.8587,2.8587,2.8587,2.8554,2.8471,2.8392,2.8197,2.7901,2.8052,2.8183,2.8327,2.8327,2.836,2.8327,2.8392,2.8476,2.8605,2.8798,2.899,2.9226,2.9289,2.9366,2.9352,2.9446,2.9477,2.9477,2.9772,0.0,0.0,0.0,0.0,0.0,0.0,0.0,0.0,0.0,3.0203,3.0462,0.0,3.0612,0.0,3.0612,3.0612,3.0612,3.0612,0.0,0.0,3.0612,3.0612,3.0642,3.1073,3.1321,3.1336,3.1768,3.212,3.2425,3.2425,3.2465,3.2614,3.2425,3.2373,3.2691,3.3123,3.3335,3.3203,3.3581,3.3797,3.3398,3.3361,3.3414,3.3398,3.3658,3.3864,3.3848,3.4126,3.4366,3.4489,3.4521,3.4562,3.4683,3.4691,3.4732,3.4763,3.4643,3.4521,3.4611,3.4756,3.4899,2.7347,2.6963,2.6615,2.6214,2.5804,2.5844,2.6,2.6264,2.6461,2.6667,2.6905,2.739,2.7709,2.7875,2.8164,2.8341,2.8341,2.8341,2.8438,2.8587,2.8587,2.8587,2.8587,2.8587,2.8587,2.8587,2.8587,2.8587,2.8587,2.8587,2.8587,2.8587,2.8587,2.849,2.8341,2.8411,2.8476,2.8587,2.8587,2.8587,2.8587,2.8651,2.878,2.894,2.9131,2.932,2.9477,2.9571,2.9602,2.9602,2.9602,2.9602,2.9602,2.9772,2.9927,0.0,0.0,0.0,0.0,0.0,0.0,0.0,0.0,0.0,0.0,0.0,3.0612,0.0,3.0612,3.0568,3.0477,3.0538,3.0582,3.0477,3.0538,3.0612,3.0612,3.0896,3.1175,3.135,3.1552,3.1894,3.2437,3.2453,3.259,3.2985,3.285,3.2784,3.3043,3.3424,3.3633,3.3503,3.3822,3.4025,3.371,3.3658,3.3658,3.3668,3.3864,3.4097,3.4403,3.4662,3.4945,3.5356,3.553,3.5498,3.5357,3.5331,3.5379,3.5355,3.5283,3.507,3.4733,3.4804,3.4899,2.853,2.7903,2.7527,2.711,2.6748,2.6634,2.6565,2.6496,2.6714,2.6829,2.6918,2.7556,2.8006,2.83,2.8444,2.8522,2.8522,2.8554,2.8554,2.8554,2.8587,2.8587,2.8587,2.8587,2.8587,2.8587,2.8587,2.8587,2.8587,2.8587,2.8587,2.8587,2.8587,2.8587,2.8587,2.8587,2.8587,2.8587,2.8587,2.8587,2.8587,2.8716,2.8876,2.9067,2.9257,2.9415,2.9571,2.9571,2.9602,2.9602,2.9602,2.9602,2.9602,2.9634,2.9682,0.0,2.9822,0.0,0.0,0.0,0.0,0.0,0.0,0.0,0.0,3.0538,3.0552,3.0582,3.0552,3.0447,3.0296,3.0447,3.0492,3.0296,3.0417,3.0522,3.0552,3.0582,3.0807,3.1335,3.119,3.1393,3.2188,3.2287,3.2523,3.3054,3.3293,3.3398,3.344,3.3668,3.3873,3.3899,3.4025,3.4075,3.405,3.4075,3.4075,3.4075,3.4075,3.4327,3.4862,3.5001,3.527,3.6007,3.6261,3.6292,3.5967,3.596,3.5951,3.5918,3.5819,3.5587,3.5223,3.5223,3.5148,2.9453,2.889,2.9,2.8908,2.866,2.8708,2.8018,2.6905,2.7222,2.7536,2.7835,2.798,2.8066,2.8145,2.8177,2.821,2.8197,2.8314,2.8352,2.8352,2.8522,2.8587,2.8587,2.8587,2.8587,2.8587,2.8587,2.8587,2.8587,2.8587,2.8587,2.8587,2.8587,2.8587,2.8587,0.0,0.0,0.0,2.8587,2.8587,2.8587,2.8619,2.8716,2.8844,2.9035,0.0,2.9446,2.954,2.9602,2.9602,2.9602,0.0,0.0,0.0,0.0,0.0,0.0,0.0,0.0,0.0,0.0,0.0,3.0142,3.0189,3.0203,3.0203,3.0264,3.0326,3.0249,3.0172,3.0142,3.0158,3.0172,3.0142,3.0172,3.0172,3.0203,3.0431,3.0657,3.0747,3.1146,3.1522,3.1962,3.2477,3.2969,3.3346,3.372,3.3924,3.3924,3.3924,3.3899,3.3924,3.4025,3.4101,3.4101,3.4101,3.4101,3.4101,3.4101,3.4165,3.4343,3.4376,3.4637,3.548,3.5612,3.5943,3.6501,3.6248,3.5919,3.5968,3.5545,3.5247,3.5711,3.6257,3.6506,3.0216,0.0,2.9616,2.9399,0.0,2.9065,2.8618,2.7993,2.8282,2.8502,2.8707,2.8741,2.8775,2.8809,2.8911,2.8945,2.8932,2.9033,2.8906,2.8592,2.8691,2.8623,2.8341,2.8354,2.8373,2.8341,2.8411,2.843,2.843,2.8554,2.8587,2.8587,2.8587,2.8587,2.86,2.8885,2.8918,2.8587,2.8587,2.8587,2.8587,2.8587,2.8651,2.878,0.0,0.0,0.0,0.0,0.0,0.0,0.0,0.0,0.0,0.0,0.0,2.9699,2.9789,2.9865,2.9865,2.9865,2.9834,2.9865,2.9865,2.9927,3.008,3.008,3.0142,3.0189,3.0142,3.0036,2.9974,3.005,3.005,2.9974,3.0036,3.008,3.0111,3.0264,3.0401,3.0568,3.0851,3.1219,3.1722,3.2244,3.2807,3.3303,3.371,3.3949,3.4075,3.405,3.4,3.4,3.405,3.4101,3.4101,3.4101,3.4101,3.4101,3.4101,3.4246,3.4586,3.4635,3.4903,3.5678,3.6163,3.648,3.6142,3.6153,3.6147,3.5877,3.5547,3.5431,3.5828,3.6241,3.6589,3.071,3.0241,2.9981,2.9626,2.9276,2.9127,2.9202,2.9356,0.0,0.0,0.0,2.9416,2.9451,2.9487,2.9649,2.9719,2.9719,2.9719,2.9467,2.9016,2.9037,2.8818,2.8399,2.8399,2.8432,2.8452,2.8557,2.8643,2.8675,2.8833,2.8912,2.8912,2.8912,2.8912,2.894,2.9434,2.9401,2.8926,2.879,2.875,2.875,2.8641,2.8651,2.8812,2.8812,2.8876,2.9099,2.9257,2.9366,2.9352,2.9446,2.954,2.954,2.9571,2.9585,2.9602,2.9602,2.9602,2.9602,2.9602,2.9602,2.9602,2.9602,2.9727,3.0019,3.0019,3.0019,3.005,3.0019,2.9958,2.9792,2.9898,2.9943,2.9777,2.9913,2.9988,3.0019,3.005,3.0189,3.0462,3.0642,3.0896,3.1495,3.2023,3.2453,3.3065,3.3487,3.3771,3.3975,3.4025,3.405,3.4075,3.4075,3.4075,3.4101,3.4101,3.4101,3.4101,3.4101,3.4327,3.4797,3.5017,3.5283,3.5849,3.6669,3.6554,3.5857,3.6058,3.6282,3.5734,3.5605,3.5671,3.5828,3.5918,3.6166,3.0558,2.9858,3.0544,3.0341,2.9668,3.039,3.0714,3.0623,2.9706,2.931,2.931,2.931,2.9345,2.9345,2.9345,2.9345,2.9381,2.9487,2.9504,0.0,2.96,2.9616,2.9584,2.9536,2.964,2.9799,2.9833,2.9929,3.0065,3.0133,3.0161,3.0147,3.0161,3.0147,3.0161,3.0242,3.0242,3.0147,2.9631,2.938,2.938,2.8858,2.8651,2.8812,2.8826,2.8908,2.9099,2.9131,2.9131,2.9131,2.9162,2.9226,2.9415,2.9446,2.9477,2.9602,2.9602,2.9602,2.9602,2.9602,2.9602,2.9602,2.9602,2.9682,2.9822,2.9758,2.9713,2.9822,2.9744,2.9665,2.9634,2.9665,2.9665,2.9634,2.9665,2.9665,2.9696,2.9927,3.008,3.0172,3.0628,3.0955,3.1204,3.1936,3.252,3.2792,3.3314,3.372,3.3771,3.3848,3.3975,3.4034,3.4,3.3975,3.4025,3.4101,3.4075,3.4101,3.4101,3.4149,3.4295,3.4343,3.4586,3.5244,3.5561,3.576,3.6059,3.5889,3.5715,3.5588,3.5292,3.5127,3.572,3.5902,3.5992,3.0063,2.9793,3.0394,3.0432,3.0114,3.0748,3.1024,3.0934,3.0438,3.0202,3.0202,3.0202,3.0239,3.0239,3.0215,3.0202,3.0239,3.0275,3.0141,2.9817,2.9911,2.9812,2.9535,2.9522,2.9579,2.9649,2.9754,2.9824,2.9955,3.0115,3.0254,3.0254,3.0336,3.0568,3.0866,3.0893,3.1042,3.1341,3.0446,2.9984,2.9984,2.9713,2.9461,2.9187,2.9174,2.9075,2.8826,2.8908,2.8972,2.9067,2.9226,2.9352,2.9491,2.9509,2.9509,2.9602,2.9602,2.9602,2.9602,2.9602,2.9602,2.9602,2.9602,2.9634,2.9682,2.9634,2.9634,2.9682,2.9634,2.9602,2.9602,2.9602,2.9602,2.9602,2.9602,2.9602,2.9602,2.971,2.9834,2.9882,3.0387,3.0851,3.1102,3.1724,3.2441,3.2877,3.3435,3.3694,3.3694,3.3684,3.372,3.3864,3.3822,3.3822,3.3873,3.3949,3.3975,3.3975,3.405,3.4075,3.4101,3.4101,3.4246,3.4538,3.4878,3.5156,3.5305,3.5272,3.5212,3.4946,3.4824,3.4857,3.5168,3.5348,3.5678,2.9626,2.96,3.0165,3.0432,3.0558,3.0659,3.0823,3.0986,3.0898,3.0911,3.0986,3.1024,3.1024,3.1024,3.1024,3.1024,3.1024,3.1024,3.0738,3.0322,3.0283,3.0085,2.9742,2.9689,2.9702,2.9761,2.9868,2.9953,3.0024,3.0294,3.047,3.0527,3.0659,3.1021,3.1477,3.1504,3.1721,3.2123,3.1287,3.0744,3.0622,3.0486,3.0174,2.974,2.9672,2.9502,2.9034,2.9092,2.9154,2.9224,2.9338,2.9442,2.9491,2.9491,2.9509,2.9571,2.9602,2.9673,2.9813,2.9954,3.0024,3.0024,3.0038,3.0038,3.0038,3.0024,2.9954,2.9869,2.9996,3.0066,3.0094,3.0066,3.0038,3.0024,3.0024,3.001,2.9855,2.9956,3.0043,3.0033,3.0568,3.116,3.1451,3.1796,3.2388,3.3123,3.3477,3.3591,3.3607,3.3529,3.3503,3.3581,3.3658,3.3736,3.3745,3.3873,3.3949,3.3949,3.4025,3.4075,3.4101,3.4101,3.4101,3.4198,3.4538,3.4709,3.4279,3.4547,3.4737,3.4529,3.4505,3.4586,3.4781,3.4894,3.5214,2.9484,2.9314,3.0011,3.0609,3.0823,3.0139,3.0266,3.0861,3.0596,3.0672,3.0949,3.1024,3.0986,3.1024,3.1024,3.1024,3.1024,3.1024,3.0947,3.0895,3.0908,3.0869,3.0777,3.0841,3.0928,3.1037,3.1061,3.1095,3.1219,3.1369,3.1533,3.1729,3.1765,3.1847,3.2087,3.2123,3.2164,3.2205,3.211,3.1762,3.1219,3.069,3.0364,3.0337,3.0323,3.0296,3.0161,3.0242,3.0004,2.9522,2.9487,2.9386,2.921,2.9176,2.9303,2.9613,2.9645,2.9841,3.0371,3.0979,3.126,3.1316,3.1246,3.1246,3.1246,3.1288,3.105,3.0684,3.0979,3.1204,3.1302,3.1246,3.119,3.1134,3.119,3.1092,3.0622,3.1178,3.1482,3.0925,3.1542,3.2231,3.2229,3.2598,3.2963,3.3397,3.3588,3.3625,3.3609,3.3609,3.3567,3.3525,3.3576,3.3768,3.3854,3.4,3.4025,3.4034,3.4075,3.4101,3.4101,3.4101,3.4101,3.4117,3.4165,3.4214,3.4182,3.4182,3.4314,3.4456,3.4472,3.457,3.4804,3.4875,3.5041,2.8882,2.8816,2.9392,2.9857,3.0139,2.9871,2.9896,3.0177,3.0063,3.0228,3.0583,3.0634,3.0785,3.0986,3.1024,3.1024,3.1024,3.1024,3.1024,3.1024,3.1024,3.1024,3.1024,3.1024,3.1061,3.1099,3.1136,3.1161,3.1261,3.1498,3.1743,3.2036,3.2073,3.2109,3.2169,3.2205,3.2205,3.2205,3.2205,3.2096,3.1829,3.1599,3.1287,3.0975,3.0934,3.0744,3.0446,3.0405,3.0317,3.0147,3.0167,3.0158,3.0176,3.0162,3.0228,3.0359,3.0485,3.0695,3.1078,3.1345,3.1485,3.1485,3.1485,3.1485,3.1513,3.1808,3.1907,3.1696,3.1555,3.1485,3.1513,3.1485,3.1485,3.1485,3.1485,3.1387,3.1148,3.1421,3.1535,3.1352,3.1749,3.2301,3.2721,3.3512,3.4082,3.4277,3.4372,3.4435,3.451,3.4623,3.4662,3.4689,3.4888,3.4579,3.3992,3.3771,3.3915,3.3991,3.405,3.4101,3.4165,3.4101,3.4101,3.4117,3.4149,3.4149,3.4117,3.4101,3.4176,3.4349,3.4546,3.4659,3.478,3.4763,3.4804,2.8431,2.8403,2.8776,2.9211,2.9665,2.9588,2.9588,2.9704,2.9704,2.9947,3.0406,3.052,3.0634,3.0836,3.0949,3.1024,3.0986,3.0898,3.0823,3.0823,3.071,3.071,3.0823,3.0836,3.0911,3.0986,3.1024,3.1024,3.1024,3.1299,3.1633,3.1927,3.195,3.2023,3.2109,3.2109,3.2132,3.2205,3.2205,3.2205,3.2205,3.2205,3.1965,3.1585,3.1531,3.1341,3.092,3.0893,3.0833,3.0794,3.0781,3.0815,3.0807,3.0827,3.0874,3.1003,3.1271,3.1537,3.1752,3.1893,3.1977,3.1991,3.1991,3.1991,3.2075,3.2398,3.2637,3.2623,3.2244,3.2019,3.1977,3.1991,3.1991,3.2005,3.1977,3.1935,3.1766,3.1857,3.1971,3.1796,3.2133,3.2489,3.3148,3.4028,3.4656,3.4685,3.4919,3.5181,3.5238,3.5303,3.5371,3.5574,3.5762,3.5444,3.4425,3.4477,3.4442,3.4536,3.4762,3.4845,3.47,3.4716,3.4505,3.4748,3.4505,3.4246,3.4133,3.4101,3.4223,3.4316,3.4546,3.4766,3.4715,3.4823,3.5053,2.8271,2.8014,2.8379,2.9049,2.969,2.9324,2.9378,2.97,2.9728,2.9985,3.0445,3.0775,3.0786,3.0509,3.0838,3.0986,3.0898,3.0596,3.0394,3.0394,3.0037,3.0024,3.0394,3.0432,3.0647,3.0986,3.1024,3.1024,3.1024,3.1061,3.1136,3.136,3.1421,3.1582,3.1853,3.1927,3.2,3.2146,3.2182,3.2205,3.2205,3.2205,3.2191,3.2123,3.2164,3.2096,3.2069,3.2096,3.1865,3.1295,3.1295,3.1107,3.0713,3.0692,3.0869,3.1229,3.1742,3.2165,3.2406,3.2834,3.3108,3.3136,3.3052,3.315,3.3038,3.3108,3.315,3.322,3.3094,3.3101,3.3101,3.3016,3.3038,3.3066,3.3122,3.289,3.2412,3.2768,3.2883,3.2587,3.2852,3.3323,3.3713,3.4134,3.4569,3.4614,3.4552,3.473,3.507,3.5063,3.5294,3.5621,3.5772,3.5696,3.5857,3.5589,3.5824,3.5861,3.5693,3.6027,3.6173,3.6141,3.572,3.538,3.5218,3.4894,3.4343,3.4207,3.4378,3.4552,3.4816,3.4939,3.5202,3.5457,3.5688,2.8689,2.8886,2.9331,2.9702,2.9906,2.9784,2.9837,2.9947,2.9947,3.0191,3.0568,3.0756,3.0889,3.0983,3.0747,3.0508,3.0152,3.0024,2.9947,2.9986,3.0075,3.0228,3.0406,3.0672,3.0874,3.0986,3.1024,3.1061,3.1161,3.1198,3.1272,3.1434,3.1485,3.1545,3.172,3.1853,3.1927,3.2,3.2146,3.2205,3.2205,3.2205,3.2205,3.2205,3.2205,3.2205,3.2205,3.2205,3.211,3.187,3.1857,3.1797,3.1665,3.1624,3.1801,3.2131,3.2381,3.2646,3.2947,3.3164,3.3276,3.3276,3.3276,3.3276,3.3276,3.3276,3.3276,3.3276,3.3276,3.3276,3.3276,3.3276,3.3276,3.3276,3.3276,3.3206,3.3073,3.3182,3.3206,3.3124,3.3556,3.4115,3.4416,3.5027,3.5508,3.5692,3.5722,3.5737,3.5889,3.598,3.6126,3.66,3.6777,3.695,3.7503,3.6556,3.6115,3.6201,3.6227,3.6287,3.6367,3.6465,3.6141,3.6027,3.5914,3.5752,3.5283,3.5234,3.5286,3.536,3.5582,3.5578,3.5956,3.6171,3.6353,2.9013,2.961,2.9821,2.9959,3.0086,3.0086,3.0086,3.0128,3.0253,3.0462,3.0699,3.0823,3.0976,3.105,3.0726,3.0325,2.9824,2.9644,2.9484,2.9535,2.9703,2.9934,3.0228,3.0663,3.102,3.1223,3.1261,3.1258,3.1211,3.1198,3.1286,3.1373,3.141,3.1498,3.1609,3.1743,3.1853,3.2,3.2146,3.2205,3.2205,3.2205,3.2205,3.2205,3.2205,3.2205,3.2205,3.2205,3.2205,3.2205,3.2205,3.2205,3.2205,3.2241,3.2408,3.2682,3.2761,3.2931,3.3241,3.3276,3.3276,3.3276,3.3276,3.3276,3.3276,3.3276,3.3276,3.3276,3.3276,3.3276,3.3276,3.3276,3.3276,3.3276,3.3276,3.3276,3.3276,3.3276,3.3297,3.336,3.3768,3.424,3.4558,3.5201,3.5608,3.5973,3.6068,3.6178,3.6336,3.6554,3.6754,3.7118,3.7308,3.7512,3.7796,3.7239,3.704,3.7122,3.7064,3.6934,3.6837,3.6853,3.6788,3.6691,3.6594,3.6497,3.6416,3.6351,3.6335,3.6367,3.6224,3.6104,3.6492,3.6832,3.7068,2.9316,3.0013,2.9633,2.9855,3.0242,3.0242,3.0158,3.0302,3.0572,3.077,3.0891,3.1141,3.1133,3.0815,3.0773,3.0479,3.0107,2.9532,2.9226,2.919,2.8937,2.9217,2.9868,3.0528,3.1175,3.181,3.181,3.1561,3.1129,3.1102,3.1102,3.1037,3.1061,3.1261,3.1572,3.1633,3.1817,3.2073,3.2169,3.2205,3.2205,3.2205,3.2205,3.2205,3.2205,3.2205,3.2205,3.2205,3.2205,3.2205,3.2205,3.2205,3.2205,3.23,3.2489,3.2668,3.2881,3.3072,3.3276,3.3276,3.3276,3.3276,3.3276,3.3276,3.3276,3.3276,3.3276,3.3276,3.3276,3.3276,3.3276,3.3276,3.3276,3.3276,3.3276,3.3276,3.3276,3.3276,3.3276,3.3347,3.3646,3.3805,3.3977,3.4553,3.5052,3.5166,3.5409,3.5716,3.5973,3.6273,3.6507,3.6816,3.715,3.7478,3.7743,3.7931,3.81,3.8238,3.8104,3.7987,3.7857,3.7809,3.7598,3.7469,3.7355,3.7242,3.7048,3.6967,3.6853,3.6848,3.6712,3.6792,3.7186,3.757,3.7807,3.0367,3.0687,3.0894,3.1081,3.1168,3.1223,3.1223,3.1223,3.1342,3.1373,3.1428,3.1515,3.1515,3.1319,3.1022,3.0755,3.0609,3.0072,2.9605,2.9363,2.974,3.0084,3.0417,3.1151,3.1857,3.2345,3.2424,3.2136,3.1628,3.1575,3.1392,3.1065,3.1037,3.1136,3.145,3.1522,3.1743,3.1963,3.2146,3.2205,3.2205,3.2205,3.2205,3.2205,3.2205,3.2205,3.2205,3.2205,3.2205,3.2205,3.2205,3.2205,3.2205,3.2241,3.2408,3.2668,3.2739,3.2952,3.3241,3.3276,3.3276,3.3276,3.3276,3.3276,3.3276,3.3276,3.3276,3.3276,3.3276,3.3276,3.3276,3.3276,3.3276,3.3276,3.3276,3.3276,3.3276,3.3276,3.3276,3.3312,3.3577,3.377,3.3908,3.4419,3.482,3.4868,3.5195,3.5554,3.575,3.5894,3.6227,3.6738,3.6997,3.727,3.7567,3.7831,3.8078,3.825,3.8335,3.8391,3.8391,3.8375,3.8213,3.81,3.8003,3.7873,3.7679,3.7566,3.7469,3.7582,3.7702,3.7872,3.8095,3.8253,3.8383,3.0847,3.1217,3.1528,3.1705,3.1705,3.1705,3.1705,3.1705,3.1705,3.1705,3.1705,3.1705,3.1705,3.1645,3.1356,3.1223,3.1175,3.0838,3.0429,2.9971,3.0191,3.0626,3.1012,3.2111,3.2704,3.2985,3.3025,3.2738,3.2137,3.1889,3.1719,3.1614,3.1405,3.1545,3.1853,3.1834,3.1865,3.2075,3.2071,3.2073,3.2109,3.2132,3.2205,3.2205,3.2205,3.2205,3.2205,3.2205,3.2205,3.2205,3.2205,3.2205,3.2205,3.2277,3.2359,3.2525,3.2668,3.2846,3.3157,3.3143,3.3241,3.3276,3.3276,3.3276,3.3276,3.3276,3.3276,3.3276,3.3276,3.3276,3.3276,3.3276,3.3276,3.3276,3.3276,3.3276,3.3276,3.3276,3.3276,3.3347,3.3472,3.3577,3.375,3.4079,3.4486,3.4553,3.485,3.518,3.5347,3.5512,3.5976,3.6415,3.6769,3.7059,3.7433,3.7714,3.7947,3.8164,3.8307,3.8363,3.8391,3.8391,3.8311,3.8294,3.823,3.8197,3.8035,3.8132,3.8116,3.8375,3.8391,3.843,3.8417,3.8548,3.8706,3.0802,3.1617,3.1661,3.1572,3.1528,3.1528,3.1484,3.1572,3.1572,3.1528,3.1617,3.1572,3.1661,3.1705,3.1633,3.1621,3.1681,3.1609,3.132,3.0874,3.0646,3.077,3.158,3.2752,3.3286,3.3409,3.3463,3.3178,3.2632,3.2202,3.2137,3.2463,3.2097,3.2188,3.2619,3.2407,3.2298,3.2421,3.2246,3.2119,3.2142,3.2285,3.2341,3.2341,3.2327,3.23,3.2218,3.2205,3.2205,3.2205,3.2205,3.2205,3.2205,3.2322,3.2395,3.2417,3.2596,3.2739,3.2917,3.3023,3.3108,3.3241,3.3276,3.3276,3.3276,3.3276,3.3276,3.3276,3.3276,3.3276,3.3276,3.3276,3.3276,3.3276,3.3276,3.3276,3.3276,3.3276,3.3276,3.3276,3.3312,3.3312,3.3347,3.3681,3.3839,3.3977,3.4264,3.4635,3.4887,3.5154,3.5447,3.5864,3.6414,3.6785,3.7134,3.7626,3.7876,3.8049,3.825,3.8363,3.8391,3.8391,3.8391,3.8391,3.8391,3.8391,3.8391,3.8391,3.8391,3.8391,3.8448,3.856,3.8655,3.8722,3.886,3.0859,3.1128,3.1128,3.0904,3.0623,3.0589,3.0623,3.0623,3.0623,3.0859,3.1038,3.1128,3.135,3.1673,3.1705,3.1705,3.1705,3.1705,3.1669,3.1512,3.138,3.16,3.2129,3.2784,3.3145,3.3187,3.3191,3.3059,3.2849,3.2592,3.2639,3.2672,3.2554,3.2607,3.2896,3.2869,3.2855,3.3049,3.3135,3.3102,3.3127,3.3279,3.3254,3.2884,3.287,3.2667,3.2286,3.2205,3.2205,3.2205,3.2205,3.2205,3.2205,3.2241,3.23,3.2381,3.2453,3.2561,3.2775,3.2917,3.3037,3.3072,3.3192,3.3276,3.3276,3.3276,3.3276,3.3276,3.3276,3.3276,3.3276,3.3276,3.3276,3.3276,3.3276,3.3276,3.3276,3.3276,3.3276,3.3276,3.3276,3.3276,3.3347,3.3542,3.377,3.3839,3.4094,3.4414,3.4572,3.4691,3.4942,3.5544,3.6038,3.6461,3.6892,3.7419,3.7788,3.7963,3.8164,3.8363,3.8391,3.8391,3.8391,3.8391,3.8391,3.8391,3.8391,3.8391,3.8391,3.8391,3.842,3.8504,3.8616,3.8711,3.8832,3.0454,3.0589,3.0589,3.0454,3.0216,3.0216,3.0216,3.0216,3.0216,3.0306,3.0578,3.0802,3.1083,3.1339,3.1572,3.1705,3.1705,3.1705,3.1705,3.1705,3.1681,3.1945,3.2407,3.2785,3.2988,3.2988,3.2988,3.2995,3.2916,3.2742,3.2787,3.3038,3.2887,3.3061,3.3592,3.3356,3.3304,3.3384,3.3409,3.3366,3.3508,3.3677,3.3682,3.3433,3.343,3.324,3.2955,3.2928,3.2725,3.2331,3.2205,3.2205,3.2205,3.2205,3.2241,3.2322,3.2322,3.2431,3.2632,3.2739,3.2846,3.2952,3.3037,3.3086,3.3157,3.3192,3.3192,3.3276,3.3276,3.3276,3.3276,3.3276,3.3276,3.3276,3.3276,3.3276,3.3276,3.3276,3.3276,3.3276,3.3276,3.3276,3.3276,3.3472,3.3542,3.3612,3.3695,3.3991,3.4201,3.4288,3.4509,3.5106,3.5672,3.6101,3.6585,3.7119,3.7596,3.7831,3.8107,3.8335,3.8391,3.8391,3.8391,3.8391,3.8391,3.8391,3.8391,3.8391,3.8391,3.8391,3.8391,3.8448,3.856,3.8672,3.8794,2.9669,3.0034,3.0034,3.0034,2.9943,2.9943,2.9852,3.0,2.9897,2.9988,3.017,3.0566,3.0758,3.0949,3.1339,3.1617,3.1705,3.1705,3.1705,3.1705,3.1705,3.1937,3.2245,3.2537,3.2698,3.2729,3.2859,3.2846,3.2752,3.2444,3.276,3.3157,3.3078,3.3418,3.3838,3.3779,3.3651,3.3655,3.3555,3.3555,3.37,3.391,3.4025,3.3939,3.3826,3.3799,3.3758,3.3758,3.3406,3.2426,3.2341,3.2354,3.2341,3.23,3.2205,3.2205,3.2241,3.235,3.2574,3.2489,3.2596,3.2846,3.281,3.281,3.3037,3.3072,3.3108,3.3276,3.3276,3.3241,3.3276,3.3276,3.3276,3.3276,3.3276,3.3276,3.3276,3.3276,3.3276,3.3276,3.3276,3.3276,3.3276,3.3276,3.3312,3.3417,3.3521,3.3612,3.377,3.3839,3.4167,3.4725,3.5252,3.5752,3.6258,3.6785,3.7284,3.7685,3.8004,3.825,3.8363,3.8391,3.8391,3.8391,3.8391,3.8391,3.8391,3.8391,3.8391,3.8391,3.8391,3.8448,3.8532,3.8588,3.8699,2.9117,2.9048,2.9002,2.8817,2.8502,2.8466,2.8606,2.8803,2.8803,2.9174,2.9577,2.976,3.0216,3.0859,3.0982,3.1306,3.1572,3.1617,3.1705,3.1705,3.1705,3.1761,3.1893,3.2013,3.2013,3.2045,3.2013,3.2189,3.2345,3.2426,3.263,3.2998,3.3046,3.3301,3.3733,3.3795,3.3882,3.4147,3.4304,3.4335,3.4417,3.4687,3.4713,3.4429,3.4128,3.3962,3.3921,3.3908,3.3772,3.3525,3.3159,3.2979,3.2857,3.2531,3.2327,3.2286,3.2259,3.2268,3.2314,3.2395,3.2489,3.2739,3.281,3.3037,3.3206,3.3072,3.3108,3.3227,3.3143,3.3157,3.3276,3.3276,3.3276,3.3276,3.3276,3.3276,3.3276,3.3276,3.3276,3.3276,3.3276,3.3276,3.3276,3.3276,3.3276,3.3276,3.3312,3.3347,3.3382,3.3452,3.3839,3.437,3.481,3.5302,3.5847,3.6414,3.7028,3.7492,3.7831,3.8119,3.825,3.8363,3.8363,3.8363,3.8391,3.8391,3.8391,3.8391,3.8391,3.8391,3.8391,3.842,3.8476,3.8548,3.8632,2.8513,2.8351,2.8362,2.8211,2.8034,2.8139,2.8196,2.8233,2.8488,2.871,2.9035,2.9312,2.9806,3.0273,3.0487,3.0769,3.0994,3.1205,3.1306,3.1395,3.1528,3.1705,3.1705,3.1705,3.1705,3.1705,3.1705,3.1893,3.2025,3.2113,3.2264,3.2667,3.2711,3.3061,3.3586,3.367,3.3953,3.4288,3.4535,3.4673,3.4852,3.5072,3.5318,3.5063,3.4857,3.4748,3.4775,3.4748,3.4748,3.4624,3.4217,3.3742,3.3498,3.3173,3.2901,3.268,3.2626,3.2472,3.2395,3.23,3.2372,3.2561,3.2596,3.2753,3.2945,3.2895,3.3037,3.3206,3.3206,3.3192,3.3276,3.3276,3.3276,3.3276,3.3276,3.3276,3.3276,3.3276,3.3276,3.3276,3.3276,3.3276,3.3276,3.3276,3.3276,3.3276,3.3276,3.3312,3.3312,3.3382,3.3542,3.3962,3.4375,3.4861,3.5415,3.6054,3.6815,3.7238,3.7581,3.786,3.8049,3.8193,3.8307,3.8335,3.8363,3.8391,3.8391,3.8391,3.8391,3.8391,3.8391,3.8391,3.8408,3.8464,3.8548,2.7904,2.7904,2.7904,2.7893,2.7951,2.8102,2.8149,2.8092,2.8466,2.8571,2.8581,2.9163,2.9439,2.9623,2.9943,3.008,3.0306,3.0578,3.0802,3.1038,3.135,3.1572,3.1661,3.1705,3.1705,3.1705,3.1705,3.1761,3.1761,3.1717,3.1981,3.2269,3.23,3.268,3.3343,3.3586,3.3797,3.4272,3.4397,3.4494,3.4714,3.4949,3.5209,3.544,3.5547,3.5507,3.552,3.5547,3.5628,3.5683,3.5235,3.4707,3.4301,3.3908,3.3718,3.3264,3.32,3.3003,3.2654,3.2468,3.2427,3.2436,3.2336,3.2408,3.2646,3.2739,3.2881,3.3122,3.3227,3.3241,3.3241,3.3276,3.3276,3.3276,3.3276,3.3276,3.3276,3.3276,3.3276,3.3276,3.3276,3.3276,3.3276,3.3276,3.3276,3.3276,3.3276,3.3276,3.3276,3.3347,3.3507,3.3785,3.4221,3.4828,3.5415,3.5655,3.6399,3.686,3.7238,3.7522,3.7772,3.802,3.8164,3.8307,3.8363,3.8363,3.8391,3.8391,3.8391,3.8391,3.8391,3.8391,3.8391,3.8391,3.8464,2.7536,2.7404,2.7404,2.7404,2.7394,2.7489,2.7726,2.7998,2.8139,2.8384,2.871,2.8907,2.9163,2.9393,2.9531,2.9806,3.0034,3.0261,3.0487,3.0769,3.1038,3.1261,3.1572,3.1705,3.1705,3.1705,3.1705,3.1705,3.1705,3.1717,3.1805,3.1849,3.1893,3.2276,3.284,3.3043,3.3556,3.4147,3.4314,3.4452,3.4522,3.4784,3.5072,3.544,3.5629,3.571,3.571,3.571,3.571,3.5696,3.5574,3.5493,3.5167,3.445,3.3989,3.3799,3.3758,3.3539,3.3098,3.2935,3.2727,3.2509,3.2359,3.2467,3.2632,3.269,3.281,3.2988,3.3192,3.3227,3.3072,3.3206,3.3276,3.3276,3.3276,3.3276,3.3276,3.3276,3.3276,3.3276,3.3276,3.3276,3.3276,3.3276,3.3276,3.3276,3.3276,3.3276,3.3276,3.3347,3.3452,3.375,3.4162,3.4839,3.5527,3.5591,3.5928,3.6368,3.6738,3.7088,3.7373,3.7772,3.7976,3.8135,3.8278,3.8363,3.8363,3.8391,3.8391,3.8391,3.8391,3.8391,3.8391,3.8391,3.8391,2.7394,2.732,2.732,2.732,2.7357,2.7584,2.7715,2.7857,2.8233,2.8477,2.8617,2.8757,2.8885,2.9117,2.9117,2.9301,2.9485,2.976,2.9943,3.0216,3.0679,3.0994,3.135,3.1528,3.1661,3.1705,3.1705,3.1705,3.1705,3.1705,3.1749,3.1849,3.1849,3.2201,3.281,3.3142,3.3526,3.4034,3.4272,3.4397,3.4439,3.4756,3.5127,3.5358,3.5548,3.571,3.571,3.571,3.571,3.571,3.571,3.571,3.5533,3.5195,3.4666,3.4436,3.4355,3.4111,3.3566,3.3281,3.2962,3.2767,3.2504,3.2372,3.2489,3.2561,3.2668,3.2917,3.3058,3.3157,3.3192,3.3227,3.3276,3.3276,3.3276,3.3276,3.3276,3.3276,3.3276,3.3276,3.3276,3.3276,3.3276,3.3276,3.3276,3.3276,3.3276,3.3276,3.3276,3.3347,3.3382,3.3646,3.3991,3.4486,3.507,3.5234,3.5382,3.5785,3.6134,3.6477,3.683,3.7103,3.7581,3.7963,3.8107,3.8193,3.8363,3.8391,3.8391,3.8391,3.8391,3.8391,3.8391,3.8391,3.8391,2.732,2.732,2.732,2.732,2.7357,2.7726,2.7762,2.7809,2.8326,2.8571,2.8535,2.8721,2.8803,2.8803,2.8803,2.885,2.885,2.9209,2.9439,2.976,3.0352,3.0758,3.1026,3.1395,3.1705,3.1705,3.1805,3.1717,3.1705,3.1761,3.1849,3.195,3.2038,3.2376,3.2896,3.3185,3.3654,3.3937,3.4272,3.4397,3.4481,3.4784,3.5127,3.5358,3.5521,3.5629,3.5669,3.571,3.571,3.571,3.571,3.571,3.571,3.571,3.5493,3.5073,3.4978,3.4639,3.4151,3.3797,3.3482,3.3033,3.2653,3.2468,3.2322,3.2417,3.2561,3.281,3.2917,3.2931,3.3016,3.3171,3.3206,3.3241,3.3276,3.3276,3.3276,3.3276,3.3276,3.3276,3.3276,3.3276,3.3276,3.3276,3.3276,3.3276,3.3276,3.3276,3.3276,3.3276,3.3382,3.3542,3.3819,3.4128,3.4486,3.4687,3.4857,3.5106,3.54,3.5642,3.6039,3.6384,3.6921,3.7433,3.7743,3.786,3.8135,3.8363,3.8391,3.8391,3.8391,3.8391,3.8391,3.8391,3.8391,2.732,2.732,2.732,2.732,2.7309,2.7404,2.7631,2.7951,2.8092,2.8373,2.871,2.8757,2.8803,2.8803,2.8803,2.8803,2.885,2.8896,2.9128,2.9485,2.9988,3.0442,3.0904,3.1439,3.1668,3.1737,3.1878,3.1849,3.1854,3.191,3.1981,3.2081,3.2257,3.2543,3.2922,3.3265,3.3513,3.3768,3.4202,3.4397,3.4439,3.4701,3.4921,3.5113,3.5318,3.5521,3.5629,3.5669,3.571,3.571,3.571,3.571,3.571,3.571,3.571,3.5588,3.5507,3.5303,3.4788,3.4502,3.4082,3.3444,3.3033,3.2707,3.2441,3.2322,3.2417,3.2453,3.2632,3.2704,3.2704,3.286,3.2988,3.3108,3.3192,3.3241,3.3276,3.3276,3.3276,3.3276,3.3276,3.3276,3.3276,3.3276,3.3276,3.3276,3.3276,3.3276,3.3276,3.3276,3.3312,3.3486,3.3591,3.3902,3.3991,3.4147,3.4283,3.4491,3.461,3.4876,3.5287,3.5706,3.6228,3.6738,3.7118,3.7581,3.7947,3.8148,3.8307,3.8391,3.8391,3.8391,3.8391,3.8391,3.8408,2.7394,2.732,2.732,2.7357,2.7489,2.7631,2.7914,2.8196,2.8373,2.856,2.871,2.8617,2.8581,2.8581,2.871,2.8803,2.8803,2.8803,2.8896,2.9163,2.9623,2.9954,3.0251,3.0993,3.152,3.1746,3.1938,3.2178,3.2114,3.2196,3.2257,3.24,3.2512,3.2803,3.3096,3.3409,3.3725,3.3977,3.427,3.4369,3.4481,3.466,3.4839,3.4975,3.5236,3.544,3.5521,3.5629,3.571,3.571,3.571,3.571,3.571,3.571,3.571,3.571,3.571,3.5574,3.533,3.5031,3.4543,3.4041,3.3509,3.2816,3.2368,3.2255,3.2336,3.2417,3.2489,3.2525,3.2561,3.2739,3.2846,3.2988,3.3037,3.3192,3.3241,3.3276,3.3276,3.3276,3.3276,3.3276,3.3276,3.3276,3.3276,3.3276,3.3276,3.3276,3.3276,3.3276,3.3347,3.3417,3.3521,3.364,3.3626,3.3646,3.3681,3.3805,3.3805,3.4133,3.4595,3.5077,3.5578,3.6196,3.6769,3.7238,3.7682,3.8004,3.8193,3.8278,3.8391,3.8335,3.8278,3.8408,3.8379,2.7584,2.7357,2.7404,2.7441,2.7631,2.7857,2.8139,2.8395,2.8524,2.8617,2.8617,2.8441,2.829,2.8348,2.8466,2.8571,2.8721,2.871,2.8757,2.8943,2.9277,2.9575,3.0089,3.0755,3.1391,3.1716,3.2155,3.2289,3.2394,3.2633,3.2843,3.2772,3.2802,3.3138,3.3506,3.3784,3.4027,3.4244,3.4364,3.4382,3.4439,3.4577,3.4743,3.4921,3.5168,3.5358,3.548,3.5588,3.571,3.571,3.571,3.571,3.571,3.571,3.571,3.571,3.571,3.5696,3.5547,3.533,3.4992,3.4531,3.3973,3.3118,3.2599,3.2422,3.2286,3.2363,3.2359,3.2431,3.2538,3.2596,3.2654,3.2761,3.2881,3.3037,3.3157,3.3157,3.3241,3.3276,3.3276,3.3276,3.3276,3.3276,3.3276,3.3276,3.3276,3.3276,3.3276,3.3276,3.3312,3.3396,3.3396,3.3466,3.3417,3.3382,3.3312,3.3276,3.3276,3.3437,3.3982,3.4442,3.4876,3.5546,3.6259,3.6784,3.7193,3.7623,3.8004,3.7976,3.7976,3.8091,3.8135,3.8266,3.8351,2.782,2.7584,2.7594,2.7641,2.7641,2.7904,2.8149,2.8395,2.8196,2.8243,2.8337,2.8149,2.8045,2.8045,2.8081,2.8233,2.8441,2.8441,2.8581,2.8896,2.9277,2.9606,3.0038,3.0519,3.1191,3.1712,3.2171,3.2334,3.2374,3.2933,3.3071,3.2942,3.3097,3.3494,3.3744,3.3928,3.4023,3.4152,3.4198,3.4202,3.4272,3.4397,3.4564,3.4908,3.5086,3.5277,3.5629,3.5669,3.571,3.571,3.571,3.571,3.571,3.571,3.571,3.571,3.571,3.571,3.5642,3.5588,3.5343,3.4802,3.4219,3.3634,3.3078,3.3047,3.2803,3.2432,3.2454,3.2296,3.2355,3.2336,3.2453,3.2547,3.2704,3.281,3.2917,3.2988,3.3072,3.3241,3.3276,3.3241,3.3276,3.3276,3.3276,3.3276,3.3276,3.3276,3.3276,3.3276,3.3276,3.3312,3.3312,3.3312,3.3312,3.3276,3.3276,3.3276,3.3276,3.3276,3.3472,3.3874,3.439,3.481,3.5497,3.6087,3.6631,3.6814,3.7072,3.7358,3.7535,3.7727,3.786,3.7963,3.8107,2.8092,2.7867,2.8008,2.8113,2.8102,2.8207,2.8301,2.8395,2.829,2.8102,2.7925,2.7951,2.7904,2.7809,2.7951,2.8045,2.8196,2.8348,2.8488,2.8628,2.8951,2.9157,2.9584,3.0276,3.094,3.1394,3.1984,3.2433,3.2426,3.2748,3.2913,3.3005,3.339,3.3619,3.3808,3.3748,3.3669,3.3607,3.3568,3.3556,3.3586,3.3839,3.4147,3.4452,3.5003,3.5195,3.548,3.5629,3.5669,3.571,3.571,3.571,3.571,3.571,3.571,3.571,3.571,3.571,3.571,3.5683,3.5438,3.4924,3.4545,3.4206,3.3675,3.3607,3.3295,3.2955,3.2735,3.2576,3.2259,3.2255,3.23,3.2395,3.2489,3.2632,3.2739,3.2797,3.2938,3.3108,3.3157,3.3157,3.3227,3.3276,3.3276,3.3276,3.3276,3.3276,3.3276,3.3276,3.3276,3.3276,3.3276,3.3276,3.3276,3.3276,3.3276,3.3276,3.3276,3.3276,3.3312,3.3612,3.4065,3.439,3.4658,3.5222,3.5642,3.5849,3.6228,3.686,3.7238,3.7476,3.7581,3.7655,3.7801,2.8384,2.8149,2.8384,2.8488,2.8395,2.8488,2.8535,2.8488,2.8441,2.8113,2.7631,2.7715,2.7668,2.7584,2.7678,2.7904,2.8045,2.8196,2.8395,2.8571,2.8757,2.8891,2.9255,2.9734,3.0404,3.0886,3.1559,3.2018,3.1857,3.2059,3.2481,3.3007,3.348,3.363,3.3728,3.335,3.3168,3.309,3.302,3.3,3.3074,3.3458,3.3924,3.423,3.4784,3.5249,3.548,3.5642,3.571,3.571,3.571,3.571,3.571,3.571,3.571,3.571,3.571,3.571,3.571,3.5669,3.5533,3.5181,3.51,3.4748,3.4355,3.4151,3.3894,3.3403,3.3186,3.2925,3.2449,3.2381,3.2282,3.2336,3.2336,3.2444,3.2525,3.2618,3.281,3.2988,3.3023,3.3072,3.3037,3.3122,3.3171,3.3171,3.3192,3.3241,3.3276,3.3276,3.3276,3.3276,3.3276,3.3276,3.3276,3.3276,3.3276,3.3276,3.3276,3.3276,3.3382,3.3612,3.377,3.4031,3.4254,3.4442,3.4795,3.5222,3.5897,3.6569,3.686,3.7088,3.7284,3.7359,3.7417,2.8617,2.8441,2.8664,2.8617,2.8441,2.8664,2.8757,2.8664,2.8441,2.8113,2.7631,2.7489,2.7404,2.7404,2.7489,2.7726,2.7951,2.8045,2.8279,2.8617,2.8768,2.9019,2.9307,2.9639,2.9939,3.0378,3.0991,3.133,3.1076,3.1875,3.2411,3.2555,3.2818,3.3303,3.3837,3.3418,3.3199,3.3121,3.2953,3.2865,3.2945,3.3288,3.3755,3.4189,3.4784,3.5249,3.5521,3.5642,3.571,3.571,3.571,3.571,3.571,3.571,3.571,3.571,3.571,3.571,3.571,3.571,3.5655,3.5588,3.5493,3.5303,3.491,3.4734,3.4531,3.4,3.3593,3.3251,3.2911,3.2626,3.2422,3.2205,3.2241,3.2277,3.2359,3.2431,3.261,3.2739,3.2881,3.2988,3.2917,3.2917,3.3016,3.3016,3.3037,3.3122,3.3206,3.3276,3.3276,3.3276,3.3276,3.3276,3.3276,3.3276,3.3276,3.3276,3.3276,3.3276,3.3276,3.3382,3.3577,3.3736,3.3859,3.4016,3.4375,3.4762,3.532,3.5896,3.6414,3.6677,3.6907,3.6998,3.7013,2.8664,2.8395,2.8488,2.8384,2.8233,2.8606,2.871,2.8535,2.8243,2.8055,2.7904,2.7762,2.762,2.7584,2.7678,2.7773,2.7773,2.8196,2.8477,2.8524,2.871,2.8822,2.9088,2.9372,2.9543,2.9854,3.0398,3.0689,3.0475,3.1272,3.1465,3.1547,3.196,3.2347,3.269,3.2478,3.2192,3.2168,3.213,3.2133,3.222,3.2859,3.3428,3.3768,3.4618,3.5195,3.5521,3.5602,3.5669,3.571,3.571,3.571,3.571,3.571,3.571,3.571,3.571,3.571,3.571,3.571,3.571,3.571,3.5683,3.5615,3.5425,3.5371,3.5046,3.4639,3.4272,3.381,3.3224,3.3006,3.2748,3.23,3.2205,3.2205,3.2277,3.2277,3.2336,3.2467,3.2596,3.2739,3.2739,3.2668,3.2731,3.2838,3.286,3.2952,3.3072,3.3241,3.3276,3.3276,3.3276,3.3276,3.3276,3.3206,3.3206,3.3206,3.3241,3.3276,3.3276,3.3241,3.3312,3.3472,3.3542,3.3597,3.3894,3.4187,3.4587,3.5085,3.5591,3.6038,3.6258,3.6336,3.6352,2.8571,2.8395,2.8301,2.8139,2.8045,2.8373,2.8477,2.8337,2.8139,2.8045,2.8092,2.8034,2.7904,2.782,2.7914,2.8055,2.7925,2.8207,2.8477,2.8524,2.871,2.8825,2.8946,2.911,2.9197,2.9368,2.9674,2.9936,2.9985,3.0133,3.0526,3.0902,3.1043,3.1526,3.1791,3.1776,3.1665,3.1765,3.1837,3.1793,3.1969,3.2407,3.3013,3.3569,3.423,3.4908,3.5318,3.5521,3.5629,3.5669,3.571,3.571,3.5723,3.571,3.571,3.571,3.571,3.571,3.571,3.571,3.571,3.571,3.571,3.571,3.571,3.5655,3.5506,3.5221,3.4951,3.4461,3.3824,3.358,3.3186,3.2752,3.2548,3.2576,3.2517,3.2544,3.2364,3.2468,3.2485,3.2544,3.2566,3.2467,3.2408,3.2538,3.2682,3.2775,3.2881,3.3037,3.3171,3.3192,3.3157,3.3122,3.3086,3.3051,3.3051,3.3086,3.3122,3.3157,3.3122,3.3072,3.3122,3.3171,3.3192,3.3213,3.3318,3.3597,3.4025,3.4366,3.4735,3.5169,3.5591,3.5767,3.5846,2.8395,2.8348,2.8092,2.7987,2.794,2.7951,2.8102,2.8348,2.8092,2.8139,2.8348,2.8092,2.794,2.7998,2.7987,2.8139,2.8301,2.8395,2.8571,2.871,2.8803,2.8803,2.8803,2.8869,2.8935,2.9022,2.9241,2.9467,2.951,2.9718,3.009,3.0402,3.0468,3.0809,3.1088,3.1264,3.1395,3.1617,3.1705,3.1705,3.1837,3.2213,3.2723,3.3283,3.3907,3.4535,3.499,3.5318,3.548,3.5602,3.5683,3.5683,3.5723,3.571,3.571,3.571,3.571,3.571,3.571,3.571,3.571,3.571,3.571,3.571,3.571,3.571,3.5628,3.5479,3.5209,3.4978,3.4639,3.426,3.388,3.3542,3.3281,3.3173,3.3023,3.2884,3.2659,3.2573,3.2577,3.2586,3.2586,3.2486,3.2386,3.2336,3.2444,3.2503,3.2646,3.2775,3.2895,3.2966,3.2917,3.2881,3.2846,3.2895,3.2881,3.2881,3.286,3.2895,3.2846,3.2881,3.2931,3.2931,3.281,3.2881,3.3094,3.3262,3.3452,3.3799,3.421,3.4668,3.5184,3.5429,3.5574,2.8196,2.7831,2.7726,2.7631,2.7489,2.7499,2.7726,2.8045,2.7998,2.8045,2.8102,2.8045,2.7987,2.7987,2.8196,2.8301,2.8441,2.8581,2.8721,2.8814,2.8803,2.8803,2.8803,2.8803,2.8803,2.8847,2.8957,2.9066,2.9055,2.9263,2.9357,2.9479,2.9851,3.0136,3.0487,3.0713,3.116,3.1484,3.1629,3.1617,3.1761,3.2081,3.2475,3.2853,3.3526,3.4147,3.4452,3.4908,3.5141,3.5399,3.544,3.5521,3.5723,3.571,3.571,3.571,3.571,3.571,3.571,3.571,3.571,3.571,3.571,3.571,3.571,3.571,3.571,3.5588,3.5466,3.5263,3.5032,3.4707,3.4409,3.4151,3.3919,3.3742,3.3607,3.3417,3.3183,3.3125,3.3081,3.2941,3.2863,3.2645,3.2554,3.2327,3.2296,3.245,3.2463,3.2621,3.2668,3.2739,3.2739,3.2668,3.2704,3.2739,3.2725,3.269,3.2668,3.2668,3.2704,3.2739,3.2739,3.2704,3.2668,3.2775,3.2988,3.3143,3.3312,3.3536,3.3902,3.4346,3.475,3.4953,3.5216,2.7878,2.7631,2.7489,2.7394,2.7309,2.732,2.7489,2.7726,2.7809,2.7904,2.7987,2.7987,2.7987,2.7987,2.8149,2.8301,2.8395,2.8535,2.8675,2.8803,2.8803,2.8803,2.8803,2.8803,2.8803,2.8803,2.8803,2.8869,2.8803,2.8803,2.8907,2.9161,2.9347,2.976,3.017,3.0532,3.0904,3.1229,3.1407,3.1407,3.1584,3.1805,3.1981,3.2332,3.3129,3.3441,3.3823,3.4272,3.4522,3.4771,3.4799,3.51,3.5345,3.5507,3.571,3.571,3.571,3.571,3.571,3.571,3.571,3.571,3.571,3.571,3.571,3.571,3.571,3.5669,3.5655,3.5588,3.5331,3.51,3.4897,3.468,3.4477,3.4287,3.4138,3.4002,3.3894,3.3799,3.3688,3.3485,3.3268,3.2983,3.2888,3.3023,3.3091,3.3142,3.2894,3.2636,3.259,3.2561,3.2525,3.2467,3.2525,3.2561,3.2503,3.2467,3.2444,3.248,3.2574,3.2538,3.2467,3.2503,3.2538,3.2668,3.2846,3.3037,3.3227,3.3452,3.3605,3.3902,3.4196,3.4419,3.4687,2.7584,2.7536,2.7357,2.7309,2.732,2.732,2.7309,2.7309,2.7547,2.7726,2.7893,2.7951,2.7893,2.7904,2.7951,2.8149,2.8348,2.8441,2.8628,2.8803,2.8803,2.8803,2.8803,2.8803,2.8803,2.8803,2.8803,2.8803,2.8803,2.8803,2.8896,2.9082,2.9347,2.9669,3.0023,3.0352,3.0623,3.0814,3.096,3.096,3.1062,3.1229,3.1427,3.1825,3.2176,3.2537,3.3043,3.33,3.3428,3.3755,3.4092,3.4426,3.4936,3.5386,3.5629,3.571,3.571,3.571,3.571,3.571,3.571,3.571,3.571,3.571,3.571,3.571,3.571,3.571,3.5683,3.5683,3.552,3.5465,3.533,3.5208,3.5058,3.4897,3.4802,3.4666,3.4558,3.4436,3.4219,3.4068,3.3946,3.3675,3.3338,3.3664,3.3718,3.3691,3.3417,3.2898,3.2682,3.2518,3.2372,3.235,3.2372,3.2372,3.2277,3.2241,3.2241,3.2314,3.2395,3.2336,3.2205,3.2314,3.2372,3.2489,3.2632,3.2824,3.3016,3.3227,3.3382,3.3452,3.3681,3.3942,3.4264,2.7499,2.7357,2.7309,2.732,2.732,2.732,2.732,2.732,2.7357,2.7452,2.7452,2.7489,2.7584,2.7715,2.7715,2.7972,2.8348,2.8452,2.8581,2.871,2.8803,2.8803,2.8803,2.8803,2.8803,2.8803,2.8803,2.8803,2.8803,2.8803,2.8803,2.8943,2.9255,2.9577,2.976,3.008,3.0363,3.0499,3.0499,3.0691,3.0927,3.0814,3.088,3.1015,3.1238,3.1548,3.2021,3.237,3.2859,3.3386,3.3713,3.4272,3.4949,3.5426,3.5669,3.571,3.571,3.571,3.571,3.571,3.571,3.571,3.571,3.571,3.571,3.571,3.571,3.571,3.571,3.571,3.571,3.571,3.571,3.5628,3.5574,3.5506,3.5412,3.529,3.5221,3.4992,3.4761,3.4639,3.4517,3.4314,3.4002,3.3894,3.3867,3.3813,3.3623,3.3268,3.2979,3.2791,3.2373,3.2282,3.2255,3.2241,3.2205,3.2205,3.2205,3.2241,3.2264,3.2241,3.2205,3.2205,3.2277,3.2395,3.2489,3.2489,3.2682,3.3002,3.3157,3.3248,3.3347,3.3577,3.3922,2.732,2.732,2.732,2.732,2.732,2.732,2.732,2.732,2.732,2.732,2.732,2.7309,2.7404,2.7584,2.7584,2.7925,2.8348,2.8405,2.8581,2.8757,2.8803,2.8803,2.8803,2.8803,2.8803,2.8803,2.8803,2.8803,2.8803,2.8803,2.8803,2.885,2.9174,2.9405,2.9531,2.9863,3.0136,3.0204,3.0216,3.0408,3.0703,3.0499,3.0352,3.0397,3.0521,3.0791,3.0869,3.127,3.1669,3.2513,3.3116,3.3979,3.4729,3.5345,3.5629,3.571,3.571,3.571,3.571,3.571,3.571,3.571,3.571,3.571,3.571,3.571,3.571,3.571,3.571,3.571,3.571,3.571,3.571,3.5669,3.5655,3.5628,3.5601,3.556,3.5506,3.5438,3.5263,3.5222,3.5167,3.5153,3.4788,3.4395,3.4314,3.4111,3.3894,3.3688,3.3376,3.3033,3.264,3.2314,3.2218,3.2205,3.2205,3.2205,3.2205,3.2205,3.2241,3.2205,3.2205,3.2205,3.2241,3.2336,3.2395,3.2417,3.2632,3.2952,3.3058,3.3094,3.3192,3.3276,3.3556,2.7081,2.7309,2.732,2.732,2.732,2.732,2.732,2.732,2.732,2.732,2.732,2.732,2.7452,2.7536,2.7678,2.8008,2.8254,2.8405,2.8581,2.8757,2.8803,2.8803,2.8803,2.8803,2.8803,2.8803,2.8803,2.8803,2.8803,2.8803,2.8803,2.885,2.9035,2.9266,2.9497,2.9737,3.0011,3.0125,3.0216,3.0182,3.017,3.0125,3.0,2.9954,2.9954,3.0034,3.008,3.017,3.0397,3.1403,3.2618,3.356,3.4426,3.5087,3.5548,3.571,3.571,3.571,3.571,3.571,3.571,3.571,3.571,3.571,3.571,3.571,3.571,3.571,3.571,3.571,3.571,3.571,3.571,3.571,3.571,3.571,3.571,3.571,3.571,3.571,3.5696,3.5669,3.5655,3.5655,3.5438,3.5019,3.4761,3.4531,3.4301,3.4043,3.381,3.3349,3.2888,3.2589,3.23,3.2205,3.2205,3.2205,3.2205,3.2205,3.2205,3.2205,3.2205,3.2205,3.2277,3.2336,3.2395,3.2417,3.2668,3.2917,3.2988,3.3058,3.3192,3.3276,3.3276,2.7034,2.732,2.732,2.732,2.732,2.732,2.732,2.732,2.7309,2.732,2.7309,2.7309,2.7394,2.7584,2.7857,2.8102,2.8348,2.8405,2.8581,2.8757,2.8803,2.8803,2.8803,2.8803,2.8803,2.8803,2.8803,2.8803,2.8803,2.8803,2.8803,2.8803,2.8989,2.922,2.9497,2.9726,2.992,3.0045,3.008,3.008,2.9886,2.9783,2.9634,2.9497,2.9255,2.9393,2.9485,2.9623,3.0034,3.0958,3.2202,3.3054,3.3872,3.469,3.5332,3.5588,3.5588,3.5629,3.5588,3.5588,3.5588,3.5629,3.5629,3.571,3.571,3.571,3.571,3.571,3.571,3.571,3.571,3.571,3.571,3.571,3.571,3.571,3.571,3.571,3.571,3.571,3.571,3.5696,3.5696,3.5683,3.5628,3.5303,3.5276,3.5045,3.4748,3.4477,3.4151,3.3715,3.32,3.2698,3.2327,3.2232,3.2205,3.2205,3.2205,3.2205,3.2205,3.2205,3.2205,3.2205,3.2205,3.2241,3.23,3.2417,3.2561,3.2775,3.2917,3.3023,3.3192,3.3276,3.3276]}]]